Wetterdaten: Sonntag, 29.09.2024
Datum Zeit Temp. I. Temp. A. Feuchte I. Feuchte A. Luftdruck Regen Wind Richtung Richtung Sonnenschein Solar Taupunkt Windchill Windböen
29.09.2024 00:00 20,7 °C 6,8 °C 58 % 87 % 1024,7 hPa 0,0 l/m² 0,2 km/h (0 Bft) W-SW 253 ° 0 min 0 W/m² 4,8 °C 6,8 °C 1,6 km/h (1 Bft)
29.09.2024 00:02 20,6 °C 6,8 °C 58 % 87 % 1024,7 hPa 0,0 l/m² 0,0 km/h (0 Bft) W-SW 253 ° 0 min 0 W/m² 4,8 °C 6,8 °C 1,6 km/h (1 Bft)
29.09.2024 00:04 20,6 °C 6,7 °C 58 % 87 % 1024,8 hPa 0,0 l/m² 0,0 km/h (0 Bft) SW 235 ° 0 min 0 W/m² 4,7 °C 6,7 °C 0,0 km/h (0 Bft)
29.09.2024 00:06 20,6 °C 6,7 °C 58 % 87 % 1024,7 hPa 0,0 l/m² 0,6 km/h (0 Bft) SW 234 ° 0 min 0 W/m² 4,7 °C 6,7 °C 1,6 km/h (1 Bft)
29.09.2024 00:08 20,6 °C 6,6 °C 58 % 88 % 1024,7 hPa 0,0 l/m² 0,0 km/h (0 Bft) SW 235 ° 0 min 0 W/m² 4,8 °C 6,6 °C 1,6 km/h (1 Bft)
29.09.2024 00:10 20,6 °C 6,6 °C 58 % 88 % 1024,8 hPa 0,0 l/m² 0,3 km/h (0 Bft) SW 236 ° 0 min 0 W/m² 4,8 °C 6,6 °C 1,6 km/h (1 Bft)
29.09.2024 00:11 20,7 °C 6,5 °C 58 % 88 % 1024,8 hPa 0,0 l/m² 0,2 km/h (0 Bft) SW 236 ° 0 min 0 W/m² 4,7 °C 6,5 °C 1,6 km/h (1 Bft)
29.09.2024 00:13 20,6 °C 6,5 °C 58 % 88 % 1024,9 hPa 0,0 l/m² 1,7 km/h (1 Bft) S-SO 165 ° 0 min 0 W/m² 4,7 °C 6,5 °C 4,8 km/h (1 Bft)
29.09.2024 00:14 20,6 °C 6,4 °C 58 % 88 % 1024,9 hPa 0,0 l/m² 1,2 km/h (1 Bft) S-SO 165 ° 0 min 0 W/m² 4,6 °C 6,4 °C 1,6 km/h (1 Bft)
29.09.2024 00:16 20,7 °C 6,5 °C 58 % 88 % 1024,9 hPa 0,0 l/m² 1,4 km/h (1 Bft) S-SO 165 ° 0 min 0 W/m² 4,7 °C 6,5 °C 3,2 km/h (1 Bft)
29.09.2024 00:18 20,6 °C 6,5 °C 58 % 88 % 1024,9 hPa 0,0 l/m² 1,7 km/h (1 Bft) S-SO 162 ° 0 min 0 W/m² 4,7 °C 6,5 °C 3,2 km/h (1 Bft)
29.09.2024 00:20 20,6 °C 6,4 °C 58 % 89 % 1025,0 hPa 0,0 l/m² 0,9 km/h (0 Bft) S-SO 162 ° 0 min 0 W/m² 4,7 °C 6,4 °C 3,2 km/h (1 Bft)
29.09.2024 00:21 20,6 °C 6,4 °C 58 % 89 % 1025,0 hPa 0,0 l/m² 0,0 km/h (0 Bft) S-SO 161 ° 0 min 0 W/m² 4,7 °C 6,4 °C 0,0 km/h (0 Bft)
29.09.2024 00:22 20,6 °C 6,5 °C 58 % 89 % 1024,9 hPa 0,0 l/m² 0,0 km/h (0 Bft) S-SO 161 ° 0 min 0 W/m² 4,8 °C 6,5 °C 0,0 km/h (0 Bft)
29.09.2024 00:24 20,6 °C 6,5 °C 58 % 89 % 1025,0 hPa 0,0 l/m² 0,0 km/h (0 Bft) S-SO 161 ° 0 min 0 W/m² 4,8 °C 6,5 °C 0,0 km/h (0 Bft)
29.09.2024 00:26 20,6 °C 6,6 °C 58 % 89 % 1025,0 hPa 0,0 l/m² 0,0 km/h (0 Bft) S-SO 161 ° 0 min 0 W/m² 4,9 °C 6,6 °C 0,0 km/h (0 Bft)
29.09.2024 00:28 20,6 °C 6,6 °C 58 % 89 % 1025,0 hPa 0,0 l/m² 0,0 km/h (0 Bft) S-SO 161 ° 0 min 0 W/m² 4,9 °C 6,6 °C 0,0 km/h (0 Bft)
29.09.2024 00:30 20,6 °C 6,6 °C 58 % 89 % 1025,0 hPa 0,0 l/m² 0,0 km/h (0 Bft) S-SO 161 ° 0 min 0 W/m² 4,9 °C 6,6 °C 0,0 km/h (0 Bft)
29.09.2024 00:31 20,6 °C 6,5 °C 58 % 89 % 1025,0 hPa 0,0 l/m² 0,0 km/h (0 Bft) S-SO 161 ° 0 min 0 W/m² 4,8 °C 6,5 °C 0,0 km/h (0 Bft)
29.09.2024 00:32 20,6 °C 6,4 °C 58 % 89 % 1025,0 hPa 0,0 l/m² 0,0 km/h (0 Bft) S-SO 161 ° 0 min 0 W/m² 4,7 °C 6,4 °C 0,0 km/h (0 Bft)
29.09.2024 00:33 20,6 °C 6,4 °C 58 % 89 % 1025,0 hPa 0,0 l/m² 0,0 km/h (0 Bft) S-SO 161 ° 0 min 0 W/m² 4,7 °C 6,4 °C 0,0 km/h (0 Bft)
29.09.2024 00:34 20,6 °C 6,4 °C 58 % 89 % 1025,0 hPa 0,0 l/m² 0,0 km/h (0 Bft) S-SO 162 ° 0 min 0 W/m² 4,7 °C 6,4 °C 0,0 km/h (0 Bft)
29.09.2024 00:35 20,6 °C 6,4 °C 58 % 89 % 1025,0 hPa 0,0 l/m² 0,0 km/h (0 Bft) S-SO 162 ° 0 min 0 W/m² 4,7 °C 6,4 °C 0,0 km/h (0 Bft)
29.09.2024 00:37 20,6 °C 6,4 °C 58 % 89 % 1025,0 hPa 0,0 l/m² 1,3 km/h (1 Bft) S 181 ° 0 min 0 W/m² 4,7 °C 6,4 °C 4,8 km/h (1 Bft)
29.09.2024 00:39 20,6 °C 6,4 °C 58 % 90 % 1025,0 hPa 0,0 l/m² 3,5 km/h (1 Bft) S-SW 211 ° 0 min 0 W/m² 4,9 °C 6,4 °C 6,4 km/h (2 Bft)
29.09.2024 00:40 20,6 °C 6,6 °C 58 % 90 % 1025,1 hPa 0,0 l/m² 3,8 km/h (1 Bft) S-SW 212 ° 0 min 0 W/m² 5,1 °C 6,6 °C 4,8 km/h (1 Bft)
29.09.2024 00:42 20,6 °C 6,6 °C 58 % 89 % 1025,2 hPa 0,0 l/m² 2,5 km/h (1 Bft) W-SW 252 ° 0 min 0 W/m² 4,9 °C 6,6 °C 4,8 km/h (1 Bft)
29.09.2024 00:43 20,6 °C 6,6 °C 58 % 89 % 1025,1 hPa 0,0 l/m² 2,8 km/h (1 Bft) W-SW 252 ° 0 min 0 W/m² 4,9 °C 6,6 °C 4,8 km/h (1 Bft)
29.09.2024 00:46 20,6 °C 6,6 °C 58 % 89 % 1025,1 hPa 0,0 l/m² 2,2 km/h (1 Bft) W-SW 241 ° 0 min 0 W/m² 4,9 °C 6,6 °C 4,8 km/h (1 Bft)
29.09.2024 00:47 20,6 °C 6,6 °C 58 % 89 % 1025,1 hPa 0,0 l/m² 2,0 km/h (1 Bft) W-SW 241 ° 0 min 0 W/m² 4,9 °C 6,6 °C 3,2 km/h (1 Bft)
29.09.2024 00:49 20,6 °C 6,7 °C 58 % 89 % 1025,1 hPa 0,0 l/m² 0,6 km/h (0 Bft) W-SW 241 ° 0 min 0 W/m² 5,0 °C 6,7 °C 3,2 km/h (1 Bft)
29.09.2024 00:51 20,6 °C 6,6 °C 58 % 89 % 1025,0 hPa 0,0 l/m² 0,0 km/h (0 Bft) W-SW 241 ° 0 min 0 W/m² 4,9 °C 6,6 °C 1,6 km/h (1 Bft)
29.09.2024 00:52 20,6 °C 6,6 °C 58 % 89 % 1025,0 hPa 0,0 l/m² 1,2 km/h (1 Bft) W-SW 240 ° 0 min 0 W/m² 4,9 °C 6,6 °C 3,2 km/h (1 Bft)
29.09.2024 00:53 20,6 °C 6,6 °C 58 % 89 % 1025,0 hPa 0,0 l/m² 0,0 km/h (0 Bft) W-SW 240 ° 0 min 0 W/m² 4,9 °C 6,6 °C 0,0 km/h (0 Bft)
29.09.2024 00:54 20,6 °C 6,6 °C 58 % 89 % 1025,0 hPa 0,0 l/m² 0,0 km/h (0 Bft) W-SW 240 ° 0 min 0 W/m² 4,9 °C 6,6 °C 0,0 km/h (0 Bft)
29.09.2024 00:56 20,6 °C 6,5 °C 58 % 89 % 1024,9 hPa 0,0 l/m² 0,1 km/h (0 Bft) W-SW 240 ° 0 min 0 W/m² 4,8 °C 6,5 °C 3,2 km/h (1 Bft)
29.09.2024 00:58 20,6 °C 6,4 °C 58 % 88 % 1025,0 hPa 0,0 l/m² 0,0 km/h (0 Bft) W-SW 240 ° 0 min 0 W/m² 4,6 °C 6,4 °C 0,0 km/h (0 Bft)
29.09.2024 01:00 20,6 °C 6,3 °C 58 % 88 % 1025,0 hPa 0,0 l/m² 0,0 km/h (0 Bft) W-SW 240 ° 0 min 0 W/m² 4,5 °C 6,3 °C 0,0 km/h (0 Bft)
29.09.2024 01:01 20,6 °C 6,3 °C 58 % 88 % 1025,0 hPa 0,0 l/m² 0,0 km/h (0 Bft) W-SW 240 ° 0 min 0 W/m² 4,5 °C 6,3 °C 0,0 km/h (0 Bft)
29.09.2024 01:03 20,6 °C 6,3 °C 58 % 89 % 1025,0 hPa 0,0 l/m² 0,0 km/h (0 Bft) W-SW 240 ° 0 min 0 W/m² 4,6 °C 6,3 °C 0,0 km/h (0 Bft)
29.09.2024 01:04 20,6 °C 6,3 °C 58 % 89 % 1025,0 hPa 0,0 l/m² 0,0 km/h (0 Bft) W-SW 240 ° 0 min 0 W/m² 4,6 °C 6,3 °C 0,0 km/h (0 Bft)
29.09.2024 01:06 20,6 °C 6,4 °C 58 % 89 % 1025,1 hPa 0,0 l/m² 0,0 km/h (0 Bft) W-SW 240 ° 0 min 0 W/m² 4,7 °C 6,4 °C 0,0 km/h (0 Bft)
29.09.2024 01:08 20,6 °C 6,3 °C 58 % 89 % 1025,1 hPa 0,0 l/m² 0,0 km/h (0 Bft) W-SW 240 ° 0 min 0 W/m² 4,6 °C 6,3 °C 0,0 km/h (0 Bft)
29.09.2024 01:10 20,6 °C 6,2 °C 58 % 89 % 1025,2 hPa 0,0 l/m² 0,0 km/h (0 Bft) W-SW 240 ° 0 min 0 W/m² 4,5 °C 6,2 °C 0,0 km/h (0 Bft)
29.09.2024 01:11 20,6 °C 6,2 °C 58 % 89 % 1025,2 hPa 0,0 l/m² 0,0 km/h (0 Bft) W-SW 240 ° 0 min 0 W/m² 4,5 °C 6,2 °C 0,0 km/h (0 Bft)
29.09.2024 01:12 20,6 °C 6,2 °C 58 % 89 % 1025,1 hPa 0,0 l/m² 0,0 km/h (0 Bft) W-SW 240 ° 0 min 0 W/m² 4,5 °C 6,2 °C 0,0 km/h (0 Bft)
29.09.2024 01:14 20,6 °C 6,1 °C 58 % 89 % 1025,2 hPa 0,0 l/m² 0,0 km/h (0 Bft) W-SW 240 ° 0 min 0 W/m² 4,4 °C 6,1 °C 0,0 km/h (0 Bft)
29.09.2024 01:16 20,6 °C 6,1 °C 58 % 89 % 1025,2 hPa 0,0 l/m² 0,0 km/h (0 Bft) W-SW 240 ° 0 min 0 W/m² 4,4 °C 6,1 °C 0,0 km/h (0 Bft)
29.09.2024 01:18 20,6 °C 6,1 °C 58 % 89 % 1025,2 hPa 0,0 l/m² 0,0 km/h (0 Bft) W-SW 240 ° 0 min 0 W/m² 4,4 °C 6,1 °C 0,0 km/h (0 Bft)
29.09.2024 01:20 20,6 °C 6,1 °C 58 % 89 % 1025,2 hPa 0,0 l/m² 0,0 km/h (0 Bft) W-SW 240 ° 0 min 0 W/m² 4,4 °C 6,1 °C 0,0 km/h (0 Bft)
29.09.2024 01:21 20,6 °C 6,1 °C 58 % 89 % 1025,3 hPa 0,0 l/m² 0,0 km/h (0 Bft) W-SW 240 ° 0 min 0 W/m² 4,4 °C 6,1 °C 0,0 km/h (0 Bft)
29.09.2024 01:22 20,6 °C 6,0 °C 58 % 89 % 1025,2 hPa 0,0 l/m² 0,0 km/h (0 Bft) W-SW 240 ° 0 min 0 W/m² 4,3 °C 6,0 °C 0,0 km/h (0 Bft)
29.09.2024 01:23 20,6 °C 6,0 °C 58 % 89 % 1025,3 hPa 0,0 l/m² 0,0 km/h (0 Bft) W-SW 240 ° 0 min 0 W/m² 4,3 °C 6,0 °C 0,0 km/h (0 Bft)
29.09.2024 01:25 20,6 °C 6,0 °C 58 % 89 % 1025,2 hPa 0,0 l/m² 0,0 km/h (0 Bft) W-SW 240 ° 0 min 0 W/m² 4,3 °C 6,0 °C 0,0 km/h (0 Bft)
29.09.2024 01:26 20,5 °C 6,0 °C 58 % 89 % 1025,2 hPa 0,0 l/m² 0,0 km/h (0 Bft) W-SW 240 ° 0 min 0 W/m² 4,3 °C 6,0 °C 0,0 km/h (0 Bft)
29.09.2024 01:28 20,5 °C 5,9 °C 58 % 89 % 1025,2 hPa 0,0 l/m² 0,0 km/h (0 Bft) W-SW 240 ° 0 min 0 W/m² 4,2 °C 5,9 °C 0,0 km/h (0 Bft)
29.09.2024 01:30 20,6 °C 5,9 °C 58 % 89 % 1025,2 hPa 0,0 l/m² 0,0 km/h (0 Bft) W-SW 240 ° 0 min 0 W/m² 4,2 °C 5,9 °C 0,0 km/h (0 Bft)
29.09.2024 01:31 20,6 °C 5,9 °C 58 % 89 % 1025,3 hPa 0,0 l/m² 0,0 km/h (0 Bft) W-SW 240 ° 0 min 0 W/m² 4,2 °C 5,9 °C 0,0 km/h (0 Bft)
29.09.2024 01:32 20,6 °C 5,9 °C 58 % 89 % 1025,3 hPa 0,0 l/m² 0,0 km/h (0 Bft) W-SW 240 ° 0 min 0 W/m² 4,2 °C 5,9 °C 0,0 km/h (0 Bft)
29.09.2024 01:34 20,6 °C 5,8 °C 58 % 89 % 1025,3 hPa 0,0 l/m² 0,0 km/h (0 Bft) W-SW 240 ° 0 min 0 W/m² 4,1 °C 5,8 °C 0,0 km/h (0 Bft)
29.09.2024 01:36 20,5 °C 5,8 °C 58 % 89 % 1025,4 hPa 0,0 l/m² 0,0 km/h (0 Bft) W-SW 240 ° 0 min 0 W/m² 4,1 °C 5,8 °C 0,0 km/h (0 Bft)
29.09.2024 01:38 20,5 °C 5,7 °C 58 % 89 % 1025,4 hPa 0,0 l/m² 0,0 km/h (0 Bft) W-SW 240 ° 0 min 0 W/m² 4,0 °C 5,7 °C 0,0 km/h (0 Bft)
29.09.2024 01:40 20,5 °C 5,7 °C 58 % 89 % 1025,5 hPa 0,0 l/m² 0,0 km/h (0 Bft) W-SW 240 ° 0 min 0 W/m² 4,0 °C 5,7 °C 0,0 km/h (0 Bft)
29.09.2024 01:41 20,6 °C 5,6 °C 58 % 89 % 1025,5 hPa 0,0 l/m² 0,0 km/h (0 Bft) W-SW 240 ° 0 min 0 W/m² 3,9 °C 5,6 °C 0,0 km/h (0 Bft)
29.09.2024 01:42 20,5 °C 5,6 °C 58 % 90 % 1025,5 hPa 0,0 l/m² 0,0 km/h (0 Bft) W-SW 240 ° 0 min 0 W/m² 4,1 °C 5,6 °C 0,0 km/h (0 Bft)
29.09.2024 01:44 20,5 °C 5,6 °C 58 % 90 % 1025,5 hPa 0,0 l/m² 0,0 km/h (0 Bft) W-SW 240 ° 0 min 0 W/m² 4,1 °C 5,6 °C 0,0 km/h (0 Bft)
29.09.2024 01:46 20,5 °C 5,7 °C 58 % 90 % 1025,5 hPa 0,0 l/m² 0,0 km/h (0 Bft) W-SW 240 ° 0 min 0 W/m² 4,2 °C 5,7 °C 0,0 km/h (0 Bft)
29.09.2024 01:48 20,5 °C 5,7 °C 58 % 90 % 1025,5 hPa 0,0 l/m² 0,0 km/h (0 Bft) W-SW 240 ° 0 min 0 W/m² 4,2 °C 5,7 °C 0,0 km/h (0 Bft)
29.09.2024 01:50 20,5 °C 5,8 °C 58 % 90 % 1025,6 hPa 0,0 l/m² 0,0 km/h (0 Bft) W-SW 240 ° 0 min 0 W/m² 4,3 °C 5,8 °C 0,0 km/h (0 Bft)
29.09.2024 01:51 20,5 °C 5,8 °C 58 % 90 % 1025,6 hPa 0,0 l/m² 0,0 km/h (0 Bft) W-SW 240 ° 0 min 0 W/m² 4,3 °C 5,8 °C 0,0 km/h (0 Bft)
29.09.2024 01:52 20,5 °C 5,8 °C 58 % 90 % 1025,6 hPa 0,0 l/m² 0,0 km/h (0 Bft) W-SW 240 ° 0 min 0 W/m² 4,3 °C 5,8 °C 0,0 km/h (0 Bft)
29.09.2024 01:53 20,5 °C 5,8 °C 58 % 90 % 1025,6 hPa 0,0 l/m² 0,0 km/h (0 Bft) W-SW 240 ° 0 min 0 W/m² 4,3 °C 5,8 °C 0,0 km/h (0 Bft)
29.09.2024 01:55 20,5 °C 5,7 °C 58 % 90 % 1025,6 hPa 0,0 l/m² 0,0 km/h (0 Bft) W-SW 240 ° 0 min 0 W/m² 4,2 °C 5,7 °C 0,0 km/h (0 Bft)
29.09.2024 01:57 20,5 °C 5,7 °C 58 % 90 % 1025,6 hPa 0,0 l/m² 0,0 km/h (0 Bft) W-SW 240 ° 0 min 0 W/m² 4,2 °C 5,7 °C 0,0 km/h (0 Bft)
29.09.2024 01:59 20,5 °C 5,6 °C 58 % 90 % 1025,7 hPa 0,0 l/m² 0,0 km/h (0 Bft) W-SW 240 ° 0 min 0 W/m² 4,1 °C 5,6 °C 0,0 km/h (0 Bft)
29.09.2024 02:00 20,4 °C 5,6 °C 58 % 90 % 1025,7 hPa 0,0 l/m² 0,0 km/h (0 Bft) W-SW 240 ° 0 min 0 W/m² 4,1 °C 5,6 °C 0,0 km/h (0 Bft)
29.09.2024 02:02 20,4 °C 5,6 °C 58 % 90 % 1025,7 hPa 0,0 l/m² 0,0 km/h (0 Bft) W-SW 240 ° 0 min 0 W/m² 4,1 °C 5,6 °C 0,0 km/h (0 Bft)
29.09.2024 02:03 20,6 °C 5,6 °C 58 % 90 % 1025,7 hPa 0,0 l/m² 0,0 km/h (0 Bft) W-SW 240 ° 0 min 0 W/m² 4,1 °C 5,6 °C 0,0 km/h (0 Bft)
29.09.2024 02:05 20,4 °C 5,6 °C 58 % 90 % 1025,7 hPa 0,0 l/m² 0,0 km/h (0 Bft) W-SW 240 ° 0 min 0 W/m² 4,1 °C 5,6 °C 0,0 km/h (0 Bft)
29.09.2024 02:07 20,5 °C 5,6 °C 58 % 90 % 1025,8 hPa 0,0 l/m² 0,0 km/h (0 Bft) W-SW 240 ° 0 min 0 W/m² 4,1 °C 5,6 °C 0,0 km/h (0 Bft)
29.09.2024 02:09 20,5 °C 5,4 °C 58 % 90 % 1025,8 hPa 0,0 l/m² 0,0 km/h (0 Bft) W-SW 240 ° 0 min 0 W/m² 3,9 °C 5,4 °C 0,0 km/h (0 Bft)
29.09.2024 02:10 20,4 °C 5,4 °C 58 % 90 % 1025,9 hPa 0,0 l/m² 0,0 km/h (0 Bft) W-SW 240 ° 0 min 0 W/m² 3,9 °C 5,4 °C 0,0 km/h (0 Bft)
29.09.2024 02:12 20,4 °C 5,4 °C 58 % 90 % 1025,8 hPa 0,0 l/m² 0,0 km/h (0 Bft) W-SW 240 ° 0 min 0 W/m² 3,9 °C 5,4 °C 0,0 km/h (0 Bft)
29.09.2024 02:13 20,4 °C 5,4 °C 58 % 90 % 1025,9 hPa 0,0 l/m² 0,0 km/h (0 Bft) W-SW 240 ° 0 min 0 W/m² 3,9 °C 5,4 °C 0,0 km/h (0 Bft)
29.09.2024 02:15 20,4 °C 5,4 °C 58 % 90 % 1025,9 hPa 0,0 l/m² 0,0 km/h (0 Bft) W-SW 240 ° 0 min 0 W/m² 3,9 °C 5,4 °C 0,0 km/h (0 Bft)
29.09.2024 02:17 20,4 °C 5,4 °C 58 % 90 % 1025,9 hPa 0,0 l/m² 0,0 km/h (0 Bft) W-SW 240 ° 0 min 0 W/m² 3,9 °C 5,4 °C 0,0 km/h (0 Bft)
29.09.2024 02:19 20,4 °C 5,4 °C 58 % 90 % 1025,9 hPa 0,0 l/m² 0,0 km/h (0 Bft) W-SW 240 ° 0 min 0 W/m² 3,9 °C 5,4 °C 0,0 km/h (0 Bft)
29.09.2024 02:20 20,5 °C 5,4 °C 58 % 90 % 1025,9 hPa 0,0 l/m² 0,0 km/h (0 Bft) W-SW 240 ° 0 min 0 W/m² 3,9 °C 5,4 °C 0,0 km/h (0 Bft)
29.09.2024 02:21 20,4 °C 5,4 °C 58 % 90 % 1025,9 hPa 0,0 l/m² 0,0 km/h (0 Bft) W-SW 240 ° 0 min 0 W/m² 3,9 °C 5,4 °C 0,0 km/h (0 Bft)
29.09.2024 02:22 20,4 °C 5,4 °C 58 % 91 % 1025,9 hPa 0,0 l/m² 0,0 km/h (0 Bft) W-SW 240 ° 0 min 0 W/m² 4,1 °C 5,4 °C 0,0 km/h (0 Bft)
29.09.2024 02:24 20,4 °C 5,5 °C 58 % 91 % 1025,9 hPa 0,0 l/m² 0,0 km/h (0 Bft) W-SW 240 ° 0 min 0 W/m² 4,2 °C 5,5 °C 0,0 km/h (0 Bft)
29.09.2024 02:26 20,4 °C 5,4 °C 58 % 91 % 1025,9 hPa 0,0 l/m² 0,0 km/h (0 Bft) W-SW 240 ° 0 min 0 W/m² 4,1 °C 5,4 °C 0,0 km/h (0 Bft)
29.09.2024 02:28 20,4 °C 5,5 °C 58 % 91 % 1025,9 hPa 0,0 l/m² 0,0 km/h (0 Bft) W-SW 240 ° 0 min 0 W/m² 4,2 °C 5,5 °C 0,0 km/h (0 Bft)
29.09.2024 02:30 20,4 °C 5,4 °C 58 % 91 % 1025,9 hPa 0,0 l/m² 0,0 km/h (0 Bft) W-SW 240 ° 0 min 0 W/m² 4,1 °C 5,4 °C 0,0 km/h (0 Bft)
29.09.2024 02:31 20,4 °C 5,4 °C 58 % 90 % 1026,0 hPa 0,0 l/m² 0,0 km/h (0 Bft) W-SW 240 ° 0 min 0 W/m² 3,9 °C 5,4 °C 0,0 km/h (0 Bft)
29.09.2024 02:33 20,4 °C 5,3 °C 58 % 90 % 1025,9 hPa 0,0 l/m² 0,0 km/h (0 Bft) W-SW 240 ° 0 min 0 W/m² 3,8 °C 5,3 °C 0,0 km/h (0 Bft)
29.09.2024 02:34 20,4 °C 5,3 °C 58 % 91 % 1025,9 hPa 0,0 l/m² 0,0 km/h (0 Bft) W-SW 240 ° 0 min 0 W/m² 4,0 °C 5,3 °C 0,0 km/h (0 Bft)
29.09.2024 02:36 20,4 °C 5,3 °C 58 % 91 % 1026,0 hPa 0,0 l/m² 0,0 km/h (0 Bft) W-SW 240 ° 0 min 0 W/m² 4,0 °C 5,3 °C 0,0 km/h (0 Bft)
29.09.2024 02:38 20,4 °C 5,4 °C 58 % 91 % 1025,9 hPa 0,0 l/m² 0,0 km/h (0 Bft) W-SW 240 ° 0 min 0 W/m² 4,1 °C 5,4 °C 0,0 km/h (0 Bft)
29.09.2024 02:40 20,4 °C 5,3 °C 58 % 91 % 1026,0 hPa 0,0 l/m² 0,0 km/h (0 Bft) W-SW 240 ° 0 min 0 W/m² 4,0 °C 5,3 °C 1,6 km/h (1 Bft)
29.09.2024 02:41 20,4 °C 5,3 °C 58 % 91 % 1026,0 hPa 0,0 l/m² 0,0 km/h (0 Bft) W-SW 240 ° 0 min 0 W/m² 4,0 °C 5,3 °C 0,0 km/h (0 Bft)
29.09.2024 02:43 20,4 °C 5,3 °C 58 % 91 % 1026,0 hPa 0,0 l/m² 0,0 km/h (0 Bft) W-SW 240 ° 0 min 0 W/m² 4,0 °C 5,3 °C 0,0 km/h (0 Bft)
29.09.2024 02:44 20,4 °C 5,3 °C 58 % 91 % 1026,0 hPa 0,0 l/m² 0,0 km/h (0 Bft) W-SW 240 ° 0 min 0 W/m² 4,0 °C 5,3 °C 0,0 km/h (0 Bft)
29.09.2024 02:46 20,4 °C 5,3 °C 58 % 90 % 1026,0 hPa 0,0 l/m² 0,0 km/h (0 Bft) W-SW 240 ° 0 min 0 W/m² 3,8 °C 5,3 °C 0,0 km/h (0 Bft)
29.09.2024 02:47 20,4 °C 5,2 °C 58 % 91 % 1026,0 hPa 0,0 l/m² 0,0 km/h (0 Bft) W-SW 240 ° 0 min 0 W/m² 3,9 °C 5,2 °C 0,0 km/h (0 Bft)
29.09.2024 02:48 20,4 °C 5,2 °C 58 % 91 % 1026,0 hPa 0,0 l/m² 0,0 km/h (0 Bft) W-SW 240 ° 0 min 0 W/m² 3,9 °C 5,2 °C 0,0 km/h (0 Bft)
29.09.2024 02:50 20,4 °C 5,2 °C 58 % 91 % 1025,9 hPa 0,0 l/m² 0,0 km/h (0 Bft) W-SW 240 ° 0 min 0 W/m² 3,9 °C 5,2 °C 0,0 km/h (0 Bft)
29.09.2024 02:51 20,4 °C 5,2 °C 58 % 91 % 1025,9 hPa 0,0 l/m² 0,0 km/h (0 Bft) W-SW 240 ° 0 min 0 W/m² 3,9 °C 5,2 °C 0,0 km/h (0 Bft)
29.09.2024 02:53 20,4 °C 5,2 °C 58 % 91 % 1026,0 hPa 0,0 l/m² 0,0 km/h (0 Bft) W-SW 240 ° 0 min 0 W/m² 3,9 °C 5,2 °C 0,0 km/h (0 Bft)
29.09.2024 02:54 20,4 °C 5,3 °C 58 % 91 % 1026,0 hPa 0,0 l/m² 0,0 km/h (0 Bft) W-SW 240 ° 0 min 0 W/m² 4,0 °C 5,3 °C 0,0 km/h (0 Bft)
29.09.2024 02:56 20,4 °C 5,3 °C 58 % 91 % 1026,1 hPa 0,0 l/m² 0,0 km/h (0 Bft) W-SW 240 ° 0 min 0 W/m² 4,0 °C 5,3 °C 1,6 km/h (1 Bft)
29.09.2024 02:58 20,4 °C 5,3 °C 58 % 91 % 1026,0 hPa 0,0 l/m² 0,1 km/h (0 Bft) W-SW 240 ° 0 min 0 W/m² 4,0 °C 5,3 °C 1,6 km/h (1 Bft)
29.09.2024 03:00 20,4 °C 5,3 °C 58 % 91 % 1026,1 hPa 0,0 l/m² 0,0 km/h (0 Bft) W-SW 240 ° 0 min 0 W/m² 4,0 °C 5,3 °C 0,0 km/h (0 Bft)
29.09.2024 03:01 20,4 °C 5,3 °C 58 % 91 % 1026,1 hPa 0,0 l/m² 0,0 km/h (0 Bft) N 0 ° 0 min 0 W/m² 4,0 °C 5,3 °C 0,0 km/h (0 Bft)
29.09.2024 03:07 20,4 °C 5,6 °C 58 % 91 % 1026,1 hPa 0,0 l/m² 1,5 km/h (1 Bft) W-SW 240 ° 0 min 0 W/m² 4,2 °C 5,6 °C 3,2 km/h (1 Bft)
29.09.2024 03:09 20,4 °C 5,7 °C 58 % 91 % 1026,1 hPa 0,0 l/m² 2,3 km/h (1 Bft) W-SW 240 ° 0 min 0 W/m² 4,3 °C 5,7 °C 3,2 km/h (1 Bft)
29.09.2024 03:10 20,4 °C 5,7 °C 58 % 91 % 1026,1 hPa 0,0 l/m² 1,7 km/h (1 Bft) W-SW 240 ° 0 min 0 W/m² 4,3 °C 5,7 °C 3,2 km/h (1 Bft)
29.09.2024 03:12 20,4 °C 5,8 °C 58 % 91 % 1026,1 hPa 0,0 l/m² 1,4 km/h (1 Bft) W-SW 240 ° 0 min 0 W/m² 4,4 °C 5,8 °C 3,2 km/h (1 Bft)
29.09.2024 03:13 20,4 °C 5,8 °C 58 % 91 % 1026,1 hPa 0,0 l/m² 1,5 km/h (1 Bft) W-SW 240 ° 0 min 0 W/m² 4,4 °C 5,8 °C 3,2 km/h (1 Bft)
29.09.2024 03:14 20,4 °C 5,8 °C 58 % 91 % 1026,1 hPa 0,0 l/m² 0,8 km/h (0 Bft) W-SW 240 ° 0 min 0 W/m² 4,4 °C 5,8 °C 1,6 km/h (1 Bft)
29.09.2024 03:16 20,4 °C 5,8 °C 58 % 91 % 1026,1 hPa 0,0 l/m² 0,5 km/h (0 Bft) W-SW 240 ° 0 min 0 W/m² 4,4 °C 5,8 °C 1,6 km/h (1 Bft)
29.09.2024 03:18 20,4 °C 5,8 °C 58 % 91 % 1026,1 hPa 0,0 l/m² 0,0 km/h (0 Bft) W-SW 240 ° 0 min 0 W/m² 4,4 °C 5,8 °C 0,0 km/h (0 Bft)
29.09.2024 03:20 20,4 °C 5,6 °C 58 % 91 % 1026,1 hPa 0,0 l/m² 0,0 km/h (0 Bft) W-SW 240 ° 0 min 0 W/m² 4,2 °C 5,6 °C 0,0 km/h (0 Bft)
29.09.2024 03:21 20,4 °C 5,6 °C 58 % 91 % 1026,1 hPa 0,0 l/m² 0,0 km/h (0 Bft) W-SW 240 ° 0 min 0 W/m² 4,2 °C 5,6 °C 0,0 km/h (0 Bft)
29.09.2024 03:22 20,3 °C 5,6 °C 58 % 91 % 1026,0 hPa 0,0 l/m² 0,1 km/h (0 Bft) W-SW 240 ° 0 min 0 W/m² 4,2 °C 5,6 °C 1,6 km/h (1 Bft)
29.09.2024 03:24 20,4 °C 5,4 °C 58 % 90 % 1026,0 hPa 0,0 l/m² 0,0 km/h (0 Bft) W-SW 240 ° 0 min 0 W/m² 3,9 °C 5,4 °C 0,0 km/h (0 Bft)
29.09.2024 03:26 20,4 °C 5,4 °C 58 % 91 % 1026,0 hPa 0,0 l/m² 0,0 km/h (0 Bft) W-SW 240 ° 0 min 0 W/m² 4,1 °C 5,4 °C 0,0 km/h (0 Bft)
29.09.2024 03:28 20,4 °C 5,4 °C 58 % 91 % 1026,0 hPa 0,0 l/m² 0,0 km/h (0 Bft) W-SW 240 ° 0 min 0 W/m² 4,1 °C 5,4 °C 0,0 km/h (0 Bft)
29.09.2024 03:30 20,3 °C 5,4 °C 58 % 91 % 1026,0 hPa 0,0 l/m² 0,0 km/h (0 Bft) W-SW 240 ° 0 min 0 W/m² 4,1 °C 5,4 °C 0,0 km/h (0 Bft)
29.09.2024 03:31 20,3 °C 5,4 °C 58 % 91 % 1026,0 hPa 0,0 l/m² 0,0 km/h (0 Bft) W-SW 240 ° 0 min 0 W/m² 4,1 °C 5,4 °C 0,0 km/h (0 Bft)
29.09.2024 03:32 20,3 °C 5,4 °C 58 % 91 % 1026,0 hPa 0,0 l/m² 0,0 km/h (0 Bft) W-SW 240 ° 0 min 0 W/m² 4,1 °C 5,4 °C 0,0 km/h (0 Bft)
29.09.2024 03:34 20,4 °C 5,3 °C 58 % 91 % 1026,0 hPa 0,0 l/m² 0,0 km/h (0 Bft) W-SW 240 ° 0 min 0 W/m² 4,0 °C 5,3 °C 0,0 km/h (0 Bft)
29.09.2024 03:36 20,3 °C 5,3 °C 58 % 91 % 1026,1 hPa 0,0 l/m² 0,0 km/h (0 Bft) W-SW 240 ° 0 min 0 W/m² 4,0 °C 5,3 °C 0,0 km/h (0 Bft)
29.09.2024 03:38 20,4 °C 5,3 °C 58 % 91 % 1026,1 hPa 0,0 l/m² 0,0 km/h (0 Bft) W-SW 240 ° 0 min 0 W/m² 4,0 °C 5,3 °C 0,0 km/h (0 Bft)
29.09.2024 03:40 20,4 °C 5,2 °C 58 % 91 % 1026,1 hPa 0,0 l/m² 0,0 km/h (0 Bft) W-SW 240 ° 0 min 0 W/m² 3,9 °C 5,2 °C 0,0 km/h (0 Bft)
29.09.2024 03:41 20,3 °C 5,2 °C 58 % 91 % 1026,1 hPa 0,0 l/m² 0,0 km/h (0 Bft) W-SW 240 ° 0 min 0 W/m² 3,9 °C 5,2 °C 0,0 km/h (0 Bft)
29.09.2024 03:42 20,3 °C 5,1 °C 58 % 91 % 1026,1 hPa 0,0 l/m² 0,0 km/h (0 Bft) W-SW 240 ° 0 min 0 W/m² 3,8 °C 5,1 °C 0,0 km/h (0 Bft)
29.09.2024 03:44 20,4 °C 5,1 °C 58 % 90 % 1026,2 hPa 0,0 l/m² 0,0 km/h (0 Bft) W-SW 240 ° 0 min 0 W/m² 3,6 °C 5,1 °C 0,0 km/h (0 Bft)
29.09.2024 03:46 20,3 °C 4,9 °C 58 % 91 % 1026,1 hPa 0,0 l/m² 0,0 km/h (0 Bft) W-SW 240 ° 0 min 0 W/m² 3,6 °C 4,9 °C 0,0 km/h (0 Bft)
29.09.2024 03:47 20,3 °C 4,9 °C 58 % 91 % 1026,1 hPa 0,0 l/m² 0,0 km/h (0 Bft) W-SW 240 ° 0 min 0 W/m² 3,6 °C 4,9 °C 0,0 km/h (0 Bft)
29.09.2024 03:49 20,3 °C 4,9 °C 58 % 91 % 1026,2 hPa 0,0 l/m² 0,0 km/h (0 Bft) W-SW 240 ° 0 min 0 W/m² 3,6 °C 4,9 °C 0,0 km/h (0 Bft)
29.09.2024 03:50 20,3 °C 4,9 °C 58 % 91 % 1026,1 hPa 0,0 l/m² 0,0 km/h (0 Bft) W-SW 240 ° 0 min 0 W/m² 3,6 °C 4,9 °C 0,0 km/h (0 Bft)
29.09.2024 03:52 20,3 °C 4,9 °C 58 % 91 % 1026,1 hPa 0,0 l/m² 0,0 km/h (0 Bft) W-SW 240 ° 0 min 0 W/m² 3,6 °C 4,9 °C 0,0 km/h (0 Bft)
29.09.2024 03:53 20,3 °C 4,9 °C 58 % 91 % 1026,2 hPa 0,0 l/m² 0,0 km/h (0 Bft) W-SW 240 ° 0 min 0 W/m² 3,6 °C 4,9 °C 0,0 km/h (0 Bft)
29.09.2024 03:55 20,3 °C 5,0 °C 58 % 91 % 1026,2 hPa 0,0 l/m² 0,0 km/h (0 Bft) W-SW 240 ° 0 min 0 W/m² 3,7 °C 5,0 °C 0,0 km/h (0 Bft)
29.09.2024 03:57 20,3 °C 4,9 °C 58 % 91 % 1026,2 hPa 0,0 l/m² 0,0 km/h (0 Bft) W-SW 240 ° 0 min 0 W/m² 3,6 °C 4,9 °C 0,0 km/h (0 Bft)
29.09.2024 03:59 20,3 °C 4,9 °C 58 % 91 % 1026,1 hPa 0,0 l/m² 0,0 km/h (0 Bft) W-SW 240 ° 0 min 0 W/m² 3,6 °C 4,9 °C 0,0 km/h (0 Bft)
29.09.2024 04:00 20,3 °C 4,9 °C 58 % 91 % 1026,2 hPa 0,0 l/m² 0,0 km/h (0 Bft) W-SW 240 ° 0 min 0 W/m² 3,6 °C 4,9 °C 0,0 km/h (0 Bft)
29.09.2024 04:02 20,3 °C 4,9 °C 58 % 91 % 1026,1 hPa 0,0 l/m² 0,0 km/h (0 Bft) W-SW 240 ° 0 min 0 W/m² 3,6 °C 4,9 °C 0,0 km/h (0 Bft)
29.09.2024 04:03 20,3 °C 4,9 °C 58 % 91 % 1026,2 hPa 0,0 l/m² 0,0 km/h (0 Bft) W-SW 240 ° 0 min 0 W/m² 3,6 °C 4,9 °C 0,0 km/h (0 Bft)
29.09.2024 04:05 20,3 °C 4,8 °C 58 % 91 % 1026,3 hPa 0,0 l/m² 0,0 km/h (0 Bft) W-SW 240 ° 0 min 0 W/m² 3,5 °C 4,8 °C 0,0 km/h (0 Bft)
29.09.2024 04:07 20,3 °C 4,9 °C 58 % 91 % 1026,3 hPa 0,0 l/m² 0,0 km/h (0 Bft) W-SW 240 ° 0 min 0 W/m² 3,6 °C 4,9 °C 0,0 km/h (0 Bft)
29.09.2024 04:09 20,3 °C 4,9 °C 58 % 91 % 1026,3 hPa 0,0 l/m² 0,0 km/h (0 Bft) W-SW 240 ° 0 min 0 W/m² 3,6 °C 4,9 °C 0,0 km/h (0 Bft)
29.09.2024 04:10 20,3 °C 4,9 °C 58 % 91 % 1026,3 hPa 0,0 l/m² 0,0 km/h (0 Bft) W-SW 240 ° 0 min 0 W/m² 3,6 °C 4,9 °C 0,0 km/h (0 Bft)
29.09.2024 04:11 20,3 °C 4,8 °C 58 % 91 % 1026,3 hPa 0,0 l/m² 0,0 km/h (0 Bft) W-SW 240 ° 0 min 0 W/m² 3,5 °C 4,8 °C 0,0 km/h (0 Bft)
29.09.2024 04:12 20,3 °C 4,9 °C 58 % 91 % 1026,3 hPa 0,0 l/m² 0,0 km/h (0 Bft) W-SW 240 ° 0 min 0 W/m² 3,6 °C 4,9 °C 0,0 km/h (0 Bft)
29.09.2024 04:14 20,3 °C 4,9 °C 58 % 91 % 1026,3 hPa 0,0 l/m² 0,0 km/h (0 Bft) W-SW 240 ° 0 min 0 W/m² 3,6 °C 4,9 °C 0,0 km/h (0 Bft)
29.09.2024 04:16 20,3 °C 4,8 °C 58 % 91 % 1026,3 hPa 0,0 l/m² 0,0 km/h (0 Bft) W-SW 240 ° 0 min 0 W/m² 3,5 °C 4,8 °C 1,6 km/h (1 Bft)
29.09.2024 04:18 20,3 °C 4,9 °C 58 % 91 % 1026,3 hPa 0,0 l/m² 0,0 km/h (0 Bft) W-SW 240 ° 0 min 0 W/m² 3,6 °C 4,9 °C 0,0 km/h (0 Bft)
29.09.2024 04:20 20,3 °C 4,9 °C 58 % 92 % 1026,4 hPa 0,0 l/m² 0,0 km/h (0 Bft) W-SW 240 ° 0 min 0 W/m² 3,7 °C 4,9 °C 0,0 km/h (0 Bft)
29.09.2024 04:21 20,3 °C 5,0 °C 58 % 92 % 1026,3 hPa 0,0 l/m² 0,0 km/h (0 Bft) W-SW 240 ° 0 min 0 W/m² 3,8 °C 5,0 °C 0,0 km/h (0 Bft)
29.09.2024 04:22 20,3 °C 5,0 °C 58 % 92 % 1026,3 hPa 0,0 l/m² 0,0 km/h (0 Bft) W-SW 240 ° 0 min 0 W/m² 3,8 °C 5,0 °C 0,0 km/h (0 Bft)
29.09.2024 04:24 20,3 °C 5,1 °C 58 % 91 % 1026,4 hPa 0,0 l/m² 0,0 km/h (0 Bft) W-SW 240 ° 0 min 0 W/m² 3,8 °C 5,1 °C 0,0 km/h (0 Bft)
29.09.2024 04:26 20,3 °C 4,9 °C 58 % 91 % 1026,3 hPa 0,0 l/m² 0,0 km/h (0 Bft) W-SW 240 ° 0 min 0 W/m² 3,6 °C 4,9 °C 0,0 km/h (0 Bft)
29.09.2024 04:28 20,3 °C 4,8 °C 58 % 91 % 1026,4 hPa 0,0 l/m² 0,0 km/h (0 Bft) W-SW 240 ° 0 min 0 W/m² 3,5 °C 4,8 °C 0,0 km/h (0 Bft)
29.09.2024 04:30 20,3 °C 4,7 °C 58 % 91 % 1026,5 hPa 0,0 l/m² 0,0 km/h (0 Bft) W-SW 240 ° 0 min 0 W/m² 3,4 °C 4,7 °C 0,0 km/h (0 Bft)
29.09.2024 04:31 20,3 °C 4,7 °C 58 % 91 % 1026,4 hPa 0,0 l/m² 0,0 km/h (0 Bft) W-SW 240 ° 0 min 0 W/m² 3,4 °C 4,7 °C 0,0 km/h (0 Bft)
29.09.2024 04:32 20,3 °C 4,7 °C 58 % 91 % 1026,4 hPa 0,0 l/m² 0,0 km/h (0 Bft) W-SW 240 ° 0 min 0 W/m² 3,4 °C 4,7 °C 0,0 km/h (0 Bft)
29.09.2024 04:34 20,3 °C 4,7 °C 58 % 91 % 1026,4 hPa 0,0 l/m² 0,0 km/h (0 Bft) W-SW 240 ° 0 min 0 W/m² 3,4 °C 4,7 °C 0,0 km/h (0 Bft)
29.09.2024 04:36 20,3 °C 4,8 °C 58 % 92 % 1026,5 hPa 0,0 l/m² 0,0 km/h (0 Bft) W-SW 240 ° 0 min 0 W/m² 3,6 °C 4,8 °C 0,0 km/h (0 Bft)
29.09.2024 04:38 20,3 °C 4,7 °C 58 % 91 % 1026,5 hPa 0,0 l/m² 0,0 km/h (0 Bft) W-SW 240 ° 0 min 0 W/m² 3,4 °C 4,7 °C 0,0 km/h (0 Bft)
29.09.2024 04:40 20,3 °C 4,7 °C 58 % 91 % 1026,5 hPa 0,0 l/m² 0,0 km/h (0 Bft) W-SW 240 ° 0 min 0 W/m² 3,4 °C 4,7 °C 0,0 km/h (0 Bft)
29.09.2024 04:41 20,3 °C 4,7 °C 58 % 91 % 1026,4 hPa 0,0 l/m² 0,0 km/h (0 Bft) W-SW 240 ° 0 min 0 W/m² 3,4 °C 4,7 °C 0,0 km/h (0 Bft)
29.09.2024 04:42 20,3 °C 4,7 °C 58 % 92 % 1026,4 hPa 0,0 l/m² 0,0 km/h (0 Bft) W-SW 240 ° 0 min 0 W/m² 3,5 °C 4,7 °C 0,0 km/h (0 Bft)
29.09.2024 04:44 20,3 °C 4,6 °C 58 % 91 % 1026,5 hPa 0,0 l/m² 0,0 km/h (0 Bft) W-SW 240 ° 0 min 0 W/m² 3,3 °C 4,6 °C 0,0 km/h (0 Bft)
29.09.2024 04:46 20,3 °C 4,6 °C 58 % 91 % 1026,5 hPa 0,0 l/m² 0,0 km/h (0 Bft) W-SW 240 ° 0 min 0 W/m² 3,3 °C 4,6 °C 0,0 km/h (0 Bft)
29.09.2024 04:48 20,3 °C 4,5 °C 58 % 91 % 1026,4 hPa 0,0 l/m² 0,1 km/h (0 Bft) W-SW 240 ° 0 min 0 W/m² 3,2 °C 4,5 °C 1,6 km/h (1 Bft)
29.09.2024 04:50 20,3 °C 4,4 °C 58 % 91 % 1026,6 hPa 0,0 l/m² 0,3 km/h (0 Bft) W-SW 240 ° 0 min 0 W/m² 3,1 °C 4,4 °C 1,6 km/h (1 Bft)
29.09.2024 04:51 20,3 °C 4,4 °C 58 % 91 % 1026,5 hPa 0,0 l/m² 0,0 km/h (0 Bft) W-SW 240 ° 0 min 0 W/m² 3,1 °C 4,4 °C 0,0 km/h (0 Bft)
29.09.2024 04:52 20,3 °C 4,5 °C 58 % 92 % 1026,5 hPa 0,0 l/m² 0,0 km/h (0 Bft) W-SW 240 ° 0 min 0 W/m² 3,3 °C 4,5 °C 0,0 km/h (0 Bft)
29.09.2024 04:54 20,3 °C 4,5 °C 58 % 92 % 1026,6 hPa 0,0 l/m² 0,0 km/h (0 Bft) W-SW 240 ° 0 min 0 W/m² 3,3 °C 4,5 °C 0,0 km/h (0 Bft)
29.09.2024 04:56 20,3 °C 4,4 °C 58 % 92 % 1026,6 hPa 0,0 l/m² 0,0 km/h (0 Bft) W-SW 240 ° 0 min 0 W/m² 3,2 °C 4,4 °C 0,0 km/h (0 Bft)
29.09.2024 04:58 20,3 °C 4,4 °C 58 % 92 % 1026,7 hPa 0,0 l/m² 0,0 km/h (0 Bft) W-SW 240 ° 0 min 0 W/m² 3,2 °C 4,4 °C 0,0 km/h (0 Bft)
29.09.2024 05:00 20,2 °C 4,3 °C 58 % 92 % 1026,7 hPa 0,0 l/m² 0,0 km/h (0 Bft) W-SW 240 ° 0 min 0 W/m² 3,1 °C 4,3 °C 0,0 km/h (0 Bft)
29.09.2024 05:01 20,3 °C 4,3 °C 58 % 91 % 1026,7 hPa 0,0 l/m² 0,0 km/h (0 Bft) W-SW 240 ° 0 min 0 W/m² 3,0 °C 4,3 °C 0,0 km/h (0 Bft)
29.09.2024 05:02 20,3 °C 4,3 °C 58 % 91 % 1026,7 hPa 0,0 l/m² 0,0 km/h (0 Bft) W-SW 240 ° 0 min 0 W/m² 3,0 °C 4,3 °C 0,0 km/h (0 Bft)
29.09.2024 05:04 20,2 °C 4,2 °C 58 % 92 % 1026,7 hPa 0,0 l/m² 0,5 km/h (0 Bft) W-SW 240 ° 0 min 0 W/m² 3,0 °C 4,2 °C 1,6 km/h (1 Bft)
29.09.2024 05:06 20,3 °C 4,2 °C 58 % 92 % 1026,8 hPa 0,0 l/m² 0,4 km/h (0 Bft) W-SW 240 ° 0 min 0 W/m² 3,0 °C 4,2 °C 1,6 km/h (1 Bft)
29.09.2024 05:08 20,3 °C 4,2 °C 58 % 92 % 1026,7 hPa 0,0 l/m² 0,0 km/h (0 Bft) W-SW 240 ° 0 min 0 W/m² 3,0 °C 4,2 °C 0,0 km/h (0 Bft)
29.09.2024 05:10 20,3 °C 4,2 °C 58 % 92 % 1026,7 hPa 0,0 l/m² 0,5 km/h (0 Bft) W-SW 240 ° 0 min 0 W/m² 3,0 °C 4,2 °C 3,2 km/h (1 Bft)
29.09.2024 05:11 20,2 °C 4,2 °C 58 % 92 % 1026,8 hPa 0,0 l/m² 1,9 km/h (1 Bft) W-SW 240 ° 0 min 0 W/m² 3,0 °C 4,2 °C 3,2 km/h (1 Bft)
29.09.2024 05:12 20,2 °C 4,2 °C 58 % 92 % 1026,8 hPa 0,0 l/m² 1,6 km/h (1 Bft) W-SW 240 ° 0 min 0 W/m² 3,0 °C 4,2 °C 3,2 km/h (1 Bft)
29.09.2024 05:14 20,3 °C 4,3 °C 58 % 92 % 1026,8 hPa 0,0 l/m² 0,8 km/h (0 Bft) W-SW 240 ° 0 min 0 W/m² 3,1 °C 4,3 °C 1,6 km/h (1 Bft)
29.09.2024 05:16 20,2 °C 4,3 °C 58 % 92 % 1026,9 hPa 0,0 l/m² 1,1 km/h (1 Bft) W-SW 240 ° 0 min 0 W/m² 3,1 °C 4,3 °C 1,6 km/h (1 Bft)
29.09.2024 05:18 20,3 °C 4,3 °C 58 % 92 % 1027,0 hPa 0,0 l/m² 1,2 km/h (1 Bft) W-SW 240 ° 0 min 0 W/m² 3,1 °C 4,3 °C 3,2 km/h (1 Bft)
29.09.2024 05:20 20,2 °C 4,2 °C 58 % 92 % 1026,9 hPa 0,0 l/m² 1,8 km/h (1 Bft) W-SW 240 ° 0 min 0 W/m² 3,0 °C 4,2 °C 3,2 km/h (1 Bft)
29.09.2024 05:21 20,2 °C 4,3 °C 58 % 92 % 1026,9 hPa 0,0 l/m² 1,4 km/h (1 Bft) W-SW 240 ° 0 min 0 W/m² 3,1 °C 4,3 °C 1,6 km/h (1 Bft)
29.09.2024 05:22 20,2 °C 4,3 °C 58 % 92 % 1026,9 hPa 0,0 l/m² 0,3 km/h (0 Bft) W-SW 240 ° 0 min 0 W/m² 3,1 °C 4,3 °C 1,6 km/h (1 Bft)
29.09.2024 05:24 20,2 °C 4,2 °C 58 % 92 % 1027,1 hPa 0,0 l/m² 0,3 km/h (0 Bft) W-SW 240 ° 0 min 0 W/m² 3,0 °C 4,2 °C 1,6 km/h (1 Bft)
29.09.2024 05:26 20,2 °C 4,2 °C 58 % 92 % 1027,0 hPa 0,0 l/m² 1,4 km/h (1 Bft) S 191 ° 0 min 0 W/m² 3,0 °C 4,2 °C 3,2 km/h (1 Bft)
29.09.2024 05:28 20,2 °C 4,2 °C 58 % 92 % 1027,0 hPa 0,0 l/m² 0,0 km/h (0 Bft) S 191 ° 0 min 0 W/m² 3,0 °C 4,2 °C 0,0 km/h (0 Bft)
29.09.2024 05:30 20,2 °C 4,2 °C 58 % 92 % 1027,0 hPa 0,0 l/m² 0,0 km/h (0 Bft) S 191 ° 0 min 0 W/m² 3,0 °C 4,2 °C 0,0 km/h (0 Bft)
29.09.2024 05:32 20,2 °C 4,2 °C 58 % 92 % 1027,1 hPa 0,0 l/m² 0,0 km/h (0 Bft) S 191 ° 0 min 0 W/m² 3,0 °C 4,2 °C 0,0 km/h (0 Bft)
29.09.2024 05:33 20,2 °C 4,2 °C 58 % 92 % 1027,1 hPa 0,0 l/m² 0,0 km/h (0 Bft) S 191 ° 0 min 0 W/m² 3,0 °C 4,2 °C 0,0 km/h (0 Bft)
29.09.2024 05:35 20,2 °C 4,2 °C 58 % 92 % 1027,1 hPa 0,0 l/m² 0,0 km/h (0 Bft) S 191 ° 0 min 0 W/m² 3,0 °C 4,2 °C 0,0 km/h (0 Bft)
29.09.2024 05:37 20,2 °C 4,2 °C 58 % 92 % 1027,1 hPa 0,0 l/m² 0,0 km/h (0 Bft) S 191 ° 0 min 0 W/m² 3,0 °C 4,2 °C 0,0 km/h (0 Bft)
29.09.2024 05:39 20,2 °C 4,1 °C 58 % 92 % 1027,1 hPa 0,0 l/m² 0,0 km/h (0 Bft) S 191 ° 0 min 0 W/m² 2,9 °C 4,1 °C 0,0 km/h (0 Bft)
29.09.2024 05:40 20,2 °C 4,1 °C 58 % 92 % 1027,1 hPa 0,0 l/m² 0,0 km/h (0 Bft) S 191 ° 0 min 0 W/m² 2,9 °C 4,1 °C 0,0 km/h (0 Bft)
29.09.2024 05:41 20,2 °C 4,1 °C 58 % 92 % 1027,2 hPa 0,0 l/m² 0,0 km/h (0 Bft) S 191 ° 0 min 0 W/m² 2,9 °C 4,1 °C 0,0 km/h (0 Bft)
29.09.2024 05:42 20,2 °C 4,1 °C 58 % 92 % 1027,2 hPa 0,0 l/m² 0,0 km/h (0 Bft) S 191 ° 0 min 0 W/m² 2,9 °C 4,1 °C 0,0 km/h (0 Bft)
29.09.2024 05:44 20,2 °C 4,0 °C 58 % 92 % 1027,2 hPa 0,0 l/m² 0,0 km/h (0 Bft) S 191 ° 0 min 0 W/m² 2,8 °C 4,0 °C 0,0 km/h (0 Bft)
29.09.2024 05:46 20,2 °C 4,0 °C 58 % 92 % 1027,1 hPa 0,0 l/m² 0,0 km/h (0 Bft) S 191 ° 0 min 0 W/m² 2,8 °C 4,0 °C 0,0 km/h (0 Bft)
29.09.2024 05:48 20,2 °C 4,0 °C 58 % 92 % 1027,2 hPa 0,0 l/m² 0,0 km/h (0 Bft) S 191 ° 0 min 0 W/m² 2,8 °C 4,0 °C 1,6 km/h (1 Bft)
29.09.2024 05:50 20,2 °C 3,9 °C 58 % 92 % 1027,2 hPa 0,0 l/m² 0,0 km/h (0 Bft) S 191 ° 0 min 0 W/m² 2,7 °C 3,9 °C 0,0 km/h (0 Bft)
29.09.2024 05:51 20,2 °C 3,9 °C 58 % 92 % 1027,2 hPa 0,0 l/m² 0,0 km/h (0 Bft) S 191 ° 0 min 0 W/m² 2,7 °C 3,9 °C 0,0 km/h (0 Bft)
29.09.2024 05:53 20,2 °C 3,8 °C 58 % 92 % 1027,2 hPa 0,0 l/m² 0,0 km/h (0 Bft) S 191 ° 0 min 0 W/m² 2,6 °C 3,8 °C 0,0 km/h (0 Bft)
29.09.2024 05:54 20,2 °C 3,8 °C 58 % 92 % 1027,2 hPa 0,0 l/m² 0,0 km/h (0 Bft) S 191 ° 0 min 0 W/m² 2,6 °C 3,8 °C 0,0 km/h (0 Bft)
29.09.2024 05:56 20,2 °C 3,9 °C 58 % 92 % 1027,3 hPa 0,0 l/m² 0,0 km/h (0 Bft) S 191 ° 0 min 0 W/m² 2,7 °C 3,9 °C 0,0 km/h (0 Bft)
29.09.2024 05:58 20,2 °C 3,9 °C 58 % 92 % 1027,3 hPa 0,0 l/m² 0,0 km/h (0 Bft) S 191 ° 0 min 0 W/m² 2,7 °C 3,9 °C 0,0 km/h (0 Bft)
29.09.2024 06:00 20,2 °C 3,9 °C 58 % 92 % 1027,3 hPa 0,0 l/m² 0,0 km/h (0 Bft) S 191 ° 0 min 0 W/m² 2,7 °C 3,9 °C 0,0 km/h (0 Bft)
29.09.2024 06:01 20,2 °C 3,8 °C 58 % 92 % 1027,3 hPa 0,0 l/m² 0,0 km/h (0 Bft) S 191 ° 0 min 0 W/m² 2,6 °C 3,8 °C 0,0 km/h (0 Bft)
29.09.2024 06:02 20,2 °C 3,8 °C 58 % 92 % 1027,3 hPa 0,0 l/m² 0,0 km/h (0 Bft) S 191 ° 0 min 0 W/m² 2,6 °C 3,8 °C 0,0 km/h (0 Bft)
29.09.2024 06:04 20,2 °C 3,8 °C 58 % 92 % 1027,3 hPa 0,0 l/m² 0,0 km/h (0 Bft) S 191 ° 0 min 0 W/m² 2,6 °C 3,8 °C 0,0 km/h (0 Bft)
29.09.2024 06:06 20,2 °C 3,8 °C 58 % 92 % 1027,3 hPa 0,0 l/m² 0,0 km/h (0 Bft) S 191 ° 0 min 0 W/m² 2,6 °C 3,8 °C 0,0 km/h (0 Bft)
29.09.2024 06:08 20,2 °C 3,8 °C 58 % 92 % 1027,3 hPa 0,0 l/m² 0,0 km/h (0 Bft) S 191 ° 0 min 0 W/m² 2,6 °C 3,8 °C 0,0 km/h (0 Bft)
29.09.2024 06:10 20,2 °C 3,8 °C 58 % 92 % 1027,2 hPa 0,0 l/m² 0,0 km/h (0 Bft) S 191 ° 0 min 0 W/m² 2,6 °C 3,8 °C 0,0 km/h (0 Bft)
29.09.2024 06:11 20,2 °C 3,8 °C 58 % 92 % 1027,3 hPa 0,0 l/m² 0,0 km/h (0 Bft) S 191 ° 0 min 0 W/m² 2,6 °C 3,8 °C 0,0 km/h (0 Bft)
29.09.2024 06:12 20,2 °C 3,9 °C 58 % 92 % 1027,3 hPa 0,0 l/m² 0,0 km/h (0 Bft) S 191 ° 0 min 0 W/m² 2,7 °C 3,9 °C 0,0 km/h (0 Bft)
29.09.2024 06:14 20,2 °C 3,9 °C 58 % 93 % 1027,3 hPa 0,0 l/m² 0,0 km/h (0 Bft) S 191 ° 0 min 0 W/m² 2,9 °C 3,9 °C 0,0 km/h (0 Bft)
29.09.2024 06:16 20,2 °C 4,1 °C 58 % 93 % 1027,3 hPa 0,0 l/m² 0,0 km/h (0 Bft) S 191 ° 0 min 0 W/m² 3,1 °C 4,1 °C 0,0 km/h (0 Bft)
29.09.2024 06:18 20,2 °C 4,1 °C 58 % 93 % 1027,3 hPa 0,0 l/m² 0,0 km/h (0 Bft) S 191 ° 0 min 0 W/m² 3,1 °C 4,1 °C 0,0 km/h (0 Bft)
29.09.2024 06:20 20,2 °C 4,2 °C 58 % 93 % 1027,3 hPa 0,0 l/m² 0,0 km/h (0 Bft) S 191 ° 0 min 0 W/m² 3,2 °C 4,2 °C 0,0 km/h (0 Bft)
29.09.2024 06:21 20,2 °C 4,3 °C 58 % 93 % 1027,2 hPa 0,0 l/m² 0,0 km/h (0 Bft) S 191 ° 0 min 0 W/m² 3,3 °C 4,3 °C 0,0 km/h (0 Bft)
29.09.2024 06:23 20,2 °C 4,4 °C 58 % 93 % 1027,3 hPa 0,0 l/m² 0,0 km/h (0 Bft) S 191 ° 0 min 0 W/m² 3,4 °C 4,4 °C 0,0 km/h (0 Bft)
29.09.2024 06:24 20,2 °C 4,4 °C 58 % 93 % 1027,3 hPa 0,0 l/m² 0,0 km/h (0 Bft) S 191 ° 0 min 0 W/m² 3,4 °C 4,4 °C 0,0 km/h (0 Bft)
29.09.2024 06:25 20,1 °C 4,4 °C 58 % 93 % 1027,3 hPa 0,0 l/m² 0,0 km/h (0 Bft) S 191 ° 0 min 0 W/m² 3,4 °C 4,4 °C 0,0 km/h (0 Bft)
29.09.2024 06:27 20,2 °C 4,6 °C 58 % 93 % 1027,3 hPa 0,0 l/m² 0,0 km/h (0 Bft) S 191 ° 0 min 0 W/m² 3,6 °C 4,6 °C 0,0 km/h (0 Bft)
29.09.2024 06:29 20,2 °C 4,7 °C 58 % 93 % 1027,3 hPa 0,0 l/m² 0,2 km/h (0 Bft) S 191 ° 0 min 0 W/m² 3,7 °C 4,7 °C 1,6 km/h (1 Bft)
29.09.2024 06:31 20,1 °C 4,7 °C 58 % 93 % 1027,3 hPa 0,0 l/m² 0,1 km/h (0 Bft) S 191 ° 0 min 0 W/m² 3,7 °C 4,7 °C 1,6 km/h (1 Bft)
29.09.2024 06:32 20,1 °C 4,8 °C 58 % 93 % 1027,4 hPa 0,0 l/m² 0,7 km/h (0 Bft) S 191 ° 0 min 0 W/m² 3,8 °C 4,8 °C 1,6 km/h (1 Bft)
29.09.2024 06:33 20,1 °C 4,8 °C 58 % 93 % 1027,4 hPa 0,0 l/m² 2,4 km/h (1 Bft) S-SW 193 ° 0 min 0 W/m² 3,8 °C 4,8 °C 3,2 km/h (1 Bft)
29.09.2024 06:35 20,1 °C 4,9 °C 58 % 93 % 1027,3 hPa 0,0 l/m² 0,0 km/h (0 Bft) S-SW 193 ° 0 min 0 W/m² 3,9 °C 4,9 °C 1,6 km/h (1 Bft)
29.09.2024 06:37 20,1 °C 4,9 °C 58 % 93 % 1027,3 hPa 0,0 l/m² 0,0 km/h (0 Bft) S-SW 193 ° 0 min 0 W/m² 3,9 °C 4,9 °C 0,0 km/h (0 Bft)
29.09.2024 06:39 20,2 °C 4,9 °C 58 % 93 % 1027,4 hPa 0,0 l/m² 0,0 km/h (0 Bft) S-SW 193 ° 0 min 0 W/m² 3,9 °C 4,9 °C 0,0 km/h (0 Bft)
29.09.2024 06:41 20,1 °C 4,9 °C 58 % 93 % 1027,3 hPa 0,0 l/m² 0,0 km/h (0 Bft) S-SW 193 ° 0 min 0 W/m² 3,9 °C 4,9 °C 0,0 km/h (0 Bft)
29.09.2024 06:42 20,1 °C 4,9 °C 58 % 93 % 1027,4 hPa 0,0 l/m² 0,0 km/h (0 Bft) S-SW 193 ° 0 min 0 W/m² 3,9 °C 4,9 °C 0,0 km/h (0 Bft)
29.09.2024 06:43 20,1 °C 4,9 °C 58 % 93 % 1027,4 hPa 0,0 l/m² 0,0 km/h (0 Bft) S-SW 193 ° 0 min 0 W/m² 3,9 °C 4,9 °C 0,0 km/h (0 Bft)
29.09.2024 06:45 20,1 °C 4,9 °C 58 % 93 % 1027,3 hPa 0,0 l/m² 0,0 km/h (0 Bft) S-SW 193 ° 0 min 0 W/m² 3,9 °C 4,9 °C 0,0 km/h (0 Bft)
29.09.2024 06:47 20,1 °C 4,9 °C 58 % 93 % 1027,4 hPa 0,0 l/m² 0,0 km/h (0 Bft) S-SW 193 ° 0 min 0 W/m² 3,9 °C 4,9 °C 0,0 km/h (0 Bft)
29.09.2024 06:48 20,1 °C 4,9 °C 58 % 93 % 1027,4 hPa 0,0 l/m² 0,0 km/h (0 Bft) S-SW 193 ° 0 min 0 W/m² 3,9 °C 4,9 °C 0,0 km/h (0 Bft)
29.09.2024 06:50 20,1 °C 4,9 °C 58 % 92 % 1027,4 hPa 0,0 l/m² 0,0 km/h (0 Bft) S-SW 193 ° 0 min 0 W/m² 3,7 °C 4,9 °C 0,0 km/h (0 Bft)
29.09.2024 06:51 20,1 °C 4,8 °C 58 % 92 % 1027,3 hPa 0,0 l/m² 0,0 km/h (0 Bft) S-SW 193 ° 0 min 0 W/m² 3,6 °C 4,8 °C 0,0 km/h (0 Bft)
29.09.2024 06:53 20,1 °C 4,8 °C 58 % 93 % 1027,4 hPa 0,0 l/m² 0,0 km/h (0 Bft) S-SW 193 ° 0 min 0 W/m² 3,8 °C 4,8 °C 0,0 km/h (0 Bft)
29.09.2024 06:54 20,1 °C 4,7 °C 58 % 92 % 1027,5 hPa 0,0 l/m² 0,0 km/h (0 Bft) S-SW 193 ° 0 min 0 W/m² 3,5 °C 4,7 °C 0,0 km/h (0 Bft)
29.09.2024 06:56 20,1 °C 4,7 °C 58 % 92 % 1027,4 hPa 0,0 l/m² 0,0 km/h (0 Bft) S-SW 193 ° 0 min 0 W/m² 3,5 °C 4,7 °C 0,0 km/h (0 Bft)
29.09.2024 06:58 20,1 °C 4,7 °C 58 % 93 % 1027,4 hPa 0,0 l/m² 0,0 km/h (0 Bft) S-SW 193 ° 0 min 0 W/m² 3,7 °C 4,7 °C 0,0 km/h (0 Bft)
29.09.2024 07:00 20,1 °C 4,7 °C 58 % 93 % 1027,4 hPa 0,0 l/m² 0,0 km/h (0 Bft) S-SW 193 ° 0 min 0 W/m² 3,7 °C 4,7 °C 0,0 km/h (0 Bft)
29.09.2024 07:01 20,1 °C 4,7 °C 58 % 93 % 1027,5 hPa 0,0 l/m² 0,0 km/h (0 Bft) S-SW 193 ° 0 min 0 W/m² 3,7 °C 4,7 °C 0,0 km/h (0 Bft)
29.09.2024 07:03 20,1 °C 4,7 °C 58 % 93 % 1027,5 hPa 0,0 l/m² 0,0 km/h (0 Bft) S-SW 193 ° 0 min 0 W/m² 3,7 °C 4,7 °C 1,6 km/h (1 Bft)
29.09.2024 07:06 20,1 °C 4,7 °C 58 % 93 % 1027,5 hPa 0,0 l/m² 0,2 km/h (0 Bft) S-SW 193 ° 0 min 0 W/m² 3,7 °C 4,7 °C 1,6 km/h (1 Bft)
29.09.2024 07:08 20,1 °C 4,8 °C 58 % 93 % 1027,5 hPa 0,0 l/m² 0,6 km/h (0 Bft) S-SW 193 ° 0 min 0 W/m² 3,8 °C 4,8 °C 3,2 km/h (1 Bft)
29.09.2024 07:10 20,1 °C 4,7 °C 58 % 93 % 1027,5 hPa 0,0 l/m² 0,9 km/h (0 Bft) S-SW 193 ° 0 min 5 W/m² 3,7 °C 4,7 °C 3,2 km/h (1 Bft)
29.09.2024 07:11 20,1 °C 4,7 °C 58 % 93 % 1027,6 hPa 0,0 l/m² 0,2 km/h (0 Bft) S-SW 193 ° 0 min 5 W/m² 3,7 °C 4,7 °C 1,6 km/h (1 Bft)
29.09.2024 07:13 20,1 °C 4,8 °C 58 % 93 % 1027,6 hPa 0,0 l/m² 1,1 km/h (1 Bft) S-SW 193 ° 0 min 5 W/m² 3,8 °C 4,8 °C 3,2 km/h (1 Bft)
29.09.2024 07:15 20,1 °C 4,8 °C 58 % 93 % 1027,6 hPa 0,0 l/m² 3,1 km/h (1 Bft) S-SW 193 ° 0 min 7 W/m² 3,8 °C 4,8 °C 6,4 km/h (2 Bft)
29.09.2024 07:17 20,1 °C 4,9 °C 58 % 93 % 1027,6 hPa 0,0 l/m² 3,8 km/h (1 Bft) S-SW 193 ° 0 min 7 W/m² 3,9 °C 4,9 °C 4,8 km/h (1 Bft)
29.09.2024 07:19 20,1 °C 4,9 °C 58 % 93 % 1027,7 hPa 0,0 l/m² 2,6 km/h (1 Bft) S-SW 193 ° 0 min 9 W/m² 3,9 °C 4,9 °C 3,2 km/h (1 Bft)
29.09.2024 07:21 20,1 °C 4,9 °C 58 % 93 % 1027,8 hPa 0,0 l/m² 1,1 km/h (1 Bft) S-SW 193 ° 0 min 11 W/m² 3,9 °C 4,9 °C 3,2 km/h (1 Bft)
29.09.2024 07:22 20,1 °C 5,0 °C 58 % 93 % 1027,7 hPa 0,0 l/m² 1,9 km/h (1 Bft) S-SW 193 ° 0 min 11 W/m² 4,0 °C 5,0 °C 3,2 km/h (1 Bft)
29.09.2024 07:23 20,1 °C 5,0 °C 58 % 93 % 1027,7 hPa 0,0 l/m² 2,1 km/h (1 Bft) S-SW 193 ° 0 min 11 W/m² 4,0 °C 5,0 °C 3,2 km/h (1 Bft)
29.09.2024 07:24 20,1 °C 5,1 °C 58 % 93 % 1027,8 hPa 0,0 l/m² 3,2 km/h (1 Bft) S-SW 193 ° 0 min 12 W/m² 4,1 °C 5,1 °C 4,8 km/h (1 Bft)
29.09.2024 07:25 20,1 °C 5,1 °C 58 % 93 % 1027,8 hPa 0,0 l/m² 2,2 km/h (1 Bft) S-SW 193 ° 0 min 12 W/m² 4,1 °C 5,1 °C 3,2 km/h (1 Bft)
29.09.2024 07:27 20,1 °C 5,1 °C 58 % 93 % 1027,9 hPa 0,0 l/m² 2,5 km/h (1 Bft) S-SW 194 ° 0 min 14 W/m² 4,1 °C 5,1 °C 4,8 km/h (1 Bft)
29.09.2024 07:29 20,1 °C 5,1 °C 58 % 93 % 1027,8 hPa 0,0 l/m² 2,6 km/h (1 Bft) S-SW 194 ° 0 min 16 W/m² 4,1 °C 5,1 °C 4,8 km/h (1 Bft)
29.09.2024 07:31 20,1 °C 5,1 °C 58 % 93 % 1027,8 hPa 0,0 l/m² 2,0 km/h (1 Bft) S-SW 194 ° 0 min 18 W/m² 4,1 °C 5,1 °C 3,2 km/h (1 Bft)
29.09.2024 07:32 20,1 °C 5,1 °C 58 % 93 % 1027,9 hPa 0,0 l/m² 1,8 km/h (1 Bft) S-SW 194 ° 0 min 19 W/m² 4,1 °C 5,1 °C 3,2 km/h (1 Bft)
29.09.2024 07:33 20,1 °C 5,1 °C 58 % 93 % 1027,9 hPa 0,0 l/m² 2,6 km/h (1 Bft) S-SW 194 ° 0 min 19 W/m² 4,1 °C 5,1 °C 3,2 km/h (1 Bft)
29.09.2024 07:35 20,1 °C 5,1 °C 58 % 93 % 1027,9 hPa 0,0 l/m² 2,7 km/h (1 Bft) S-SW 194 ° 0 min 21 W/m² 4,1 °C 5,1 °C 4,8 km/h (1 Bft)
29.09.2024 07:37 20,1 °C 5,2 °C 58 % 93 % 1027,9 hPa 0,0 l/m² 2,6 km/h (1 Bft) S-SW 194 ° 0 min 23 W/m² 4,2 °C 5,2 °C 4,8 km/h (1 Bft)
29.09.2024 07:39 20,1 °C 5,2 °C 58 % 93 % 1027,9 hPa 0,0 l/m² 3,3 km/h (1 Bft) S-SW 194 ° 0 min 26 W/m² 4,2 °C 5,2 °C 4,8 km/h (1 Bft)
29.09.2024 07:41 20,1 °C 5,3 °C 58 % 93 % 1028,0 hPa 0,0 l/m² 2,1 km/h (1 Bft) S-SW 194 ° 0 min 28 W/m² 4,3 °C 5,3 °C 4,8 km/h (1 Bft)
29.09.2024 07:42 20,1 °C 5,3 °C 58 % 93 % 1028,0 hPa 0,0 l/m² 1,1 km/h (1 Bft) S-SW 194 ° 0 min 30 W/m² 4,3 °C 5,3 °C 3,2 km/h (1 Bft)
29.09.2024 07:43 20,1 °C 5,3 °C 58 % 93 % 1028,0 hPa 0,0 l/m² 1,7 km/h (1 Bft) S-SW 196 ° 0 min 32 W/m² 4,3 °C 5,3 °C 3,2 km/h (1 Bft)
29.09.2024 07:45 20,1 °C 5,3 °C 58 % 93 % 1027,9 hPa 0,0 l/m² 1,6 km/h (1 Bft) S-SW 198 ° 0 min 35 W/m² 4,3 °C 5,3 °C 3,2 km/h (1 Bft)
29.09.2024 07:47 20,1 °C 5,4 °C 58 % 93 % 1027,9 hPa 0,0 l/m² 0,5 km/h (0 Bft) S-SW 198 ° 0 min 39 W/m² 4,4 °C 5,4 °C 3,2 km/h (1 Bft)
29.09.2024 07:49 20,1 °C 5,3 °C 58 % 93 % 1028,1 hPa 0,0 l/m² 0,0 km/h (0 Bft) S-SW 198 ° 0 min 42 W/m² 4,3 °C 5,3 °C 0,0 km/h (0 Bft)
29.09.2024 07:51 20,1 °C 5,3 °C 58 % 93 % 1028,0 hPa 0,0 l/m² 0,0 km/h (0 Bft) S-SW 198 ° 0 min 47 W/m² 4,3 °C 5,3 °C 0,0 km/h (0 Bft)
29.09.2024 07:52 20,1 °C 5,2 °C 58 % 93 % 1028,0 hPa 0,0 l/m² 0,0 km/h (0 Bft) S-SW 198 ° 0 min 47 W/m² 4,2 °C 5,2 °C 0,0 km/h (0 Bft)
29.09.2024 07:53 20,1 °C 5,2 °C 58 % 93 % 1028,0 hPa 0,0 l/m² 0,0 km/h (0 Bft) S-SW 198 ° 0 min 49 W/m² 4,2 °C 5,2 °C 0,0 km/h (0 Bft)
29.09.2024 07:55 20,1 °C 5,2 °C 58 % 93 % 1028,0 hPa 0,0 l/m² 0,0 km/h (0 Bft) S-SW 198 ° 2 min 53 W/m² 4,2 °C 5,2 °C 0,0 km/h (0 Bft)
29.09.2024 07:57 20,1 °C 5,3 °C 58 % 93 % 1028,1 hPa 0,0 l/m² 0,0 km/h (0 Bft) S-SW 198 ° 2 min 60 W/m² 4,3 °C 5,3 °C 0,0 km/h (0 Bft)
29.09.2024 07:58 20,1 °C 5,3 °C 58 % 93 % 1028,0 hPa 0,0 l/m² 0,0 km/h (0 Bft) S-SW 198 ° 1 min 62 W/m² 4,3 °C 5,3 °C 0,0 km/h (0 Bft)
29.09.2024 07:59 20,1 °C 5,3 °C 58 % 93 % 1028,0 hPa 0,0 l/m² 0,0 km/h (0 Bft) S-SW 198 ° 1 min 63 W/m² 4,3 °C 5,3 °C 0,0 km/h (0 Bft)
29.09.2024 08:00 20,1 °C 5,3 °C 58 % 93 % 1028,0 hPa 0,0 l/m² 0,0 km/h (0 Bft) S-SW 198 ° 1 min 65 W/m² 4,3 °C 5,3 °C 0,0 km/h (0 Bft)
29.09.2024 08:02 20,1 °C 5,3 °C 58 % 93 % 1028,2 hPa 0,0 l/m² 0,0 km/h (0 Bft) S-SW 198 ° 2 min 70 W/m² 4,3 °C 5,3 °C 0,0 km/h (0 Bft)
29.09.2024 08:03 20,1 °C 5,3 °C 58 % 93 % 1028,2 hPa 0,0 l/m² 0,0 km/h (0 Bft) S-SW 198 ° 1 min 72 W/m² 4,3 °C 5,3 °C 0,0 km/h (0 Bft)
29.09.2024 08:05 20,1 °C 5,4 °C 58 % 93 % 1028,2 hPa 0,0 l/m² 0,0 km/h (0 Bft) S-SW 198 ° 2 min 77 W/m² 4,4 °C 5,4 °C 0,0 km/h (0 Bft)
29.09.2024 08:07 20,1 °C 5,6 °C 58 % 93 % 1028,3 hPa 0,0 l/m² 0,0 km/h (0 Bft) S-SW 198 ° 2 min 81 W/m² 4,6 °C 5,6 °C 0,0 km/h (0 Bft)
29.09.2024 08:09 20,1 °C 5,7 °C 58 % 93 % 1028,2 hPa 0,0 l/m² 0,0 km/h (0 Bft) S-SW 198 ° 2 min 88 W/m² 4,7 °C 5,7 °C 0,0 km/h (0 Bft)
29.09.2024 08:11 20,1 °C 5,8 °C 58 % 93 % 1028,2 hPa 0,0 l/m² 0,0 km/h (0 Bft) S-SW 198 ° 2 min 91 W/m² 4,8 °C 5,8 °C 0,0 km/h (0 Bft)
29.09.2024 08:12 20,1 °C 5,9 °C 58 % 93 % 1028,2 hPa 0,0 l/m² 0,0 km/h (0 Bft) S-SW 198 ° 1 min 95 W/m² 4,9 °C 5,9 °C 0,0 km/h (0 Bft)
29.09.2024 08:13 20,1 °C 5,9 °C 58 % 93 % 1028,2 hPa 0,0 l/m² 0,0 km/h (0 Bft) S-SW 198 ° 1 min 97 W/m² 4,9 °C 5,9 °C 0,0 km/h (0 Bft)
29.09.2024 08:15 20,1 °C 5,9 °C 58 % 93 % 1028,3 hPa 0,0 l/m² 0,0 km/h (0 Bft) S-SW 198 ° 2 min 104 W/m² 4,9 °C 5,9 °C 0,0 km/h (0 Bft)
29.09.2024 08:17 20,0 °C 6,1 °C 58 % 93 % 1028,3 hPa 0,0 l/m² 0,0 km/h (0 Bft) S-SW 198 ° 2 min 109 W/m² 5,1 °C 6,1 °C 0,0 km/h (0 Bft)
29.09.2024 08:19 20,0 °C 6,1 °C 58 % 93 % 1028,2 hPa 0,0 l/m² 0,0 km/h (0 Bft) S-SW 198 ° 2 min 113 W/m² 5,1 °C 6,1 °C 0,0 km/h (0 Bft)
29.09.2024 08:21 20,0 °C 6,2 °C 58 % 93 % 1028,2 hPa 0,0 l/m² 0,0 km/h (0 Bft) S-SW 198 ° 2 min 121 W/m² 5,2 °C 6,2 °C 0,0 km/h (0 Bft)
29.09.2024 08:22 20,1 °C 6,2 °C 58 % 93 % 1028,4 hPa 0,0 l/m² 0,0 km/h (0 Bft) S-SW 198 ° 1 min 123 W/m² 5,2 °C 6,2 °C 0,0 km/h (0 Bft)
29.09.2024 08:23 20,1 °C 6,2 °C 58 % 93 % 1028,4 hPa 0,0 l/m² 0,0 km/h (0 Bft) S-SW 198 ° 1 min 125 W/m² 5,2 °C 6,2 °C 0,0 km/h (0 Bft)
29.09.2024 08:26 20,0 °C 6,4 °C 58 % 93 % 1028,4 hPa 0,0 l/m² 0,0 km/h (0 Bft) S-SW 198 ° 3 min 135 W/m² 5,4 °C 6,4 °C 0,0 km/h (0 Bft)
29.09.2024 08:28 20,0 °C 6,6 °C 58 % 93 % 1028,4 hPa 0,0 l/m² 0,0 km/h (0 Bft) S-SW 198 ° 2 min 141 W/m² 5,6 °C 6,6 °C 0,0 km/h (0 Bft)
29.09.2024 08:30 20,0 °C 6,7 °C 58 % 92 % 1028,4 hPa 0,0 l/m² 0,0 km/h (0 Bft) S-SW 198 ° 2 min 146 W/m² 5,5 °C 6,7 °C 0,0 km/h (0 Bft)
29.09.2024 08:31 20,0 °C 6,6 °C 58 % 92 % 1028,4 hPa 0,0 l/m² 0,0 km/h (0 Bft) S-SW 198 ° 1 min 151 W/m² 5,4 °C 6,6 °C 0,0 km/h (0 Bft)
29.09.2024 08:33 20,0 °C 6,6 °C 58 % 92 % 1028,5 hPa 0,0 l/m² 0,3 km/h (0 Bft) S-SW 198 ° 2 min 156 W/m² 5,4 °C 6,6 °C 1,6 km/h (1 Bft)
29.09.2024 08:35 20,0 °C 6,7 °C 57 % 92 % 1028,5 hPa 0,0 l/m² 0,0 km/h (0 Bft) S-SW 198 ° 2 min 162 W/m² 5,5 °C 6,7 °C 0,0 km/h (0 Bft)
29.09.2024 08:37 20,0 °C 6,7 °C 57 % 92 % 1028,5 hPa 0,0 l/m² 0,0 km/h (0 Bft) S-SW 198 ° 2 min 167 W/m² 5,5 °C 6,7 °C 0,0 km/h (0 Bft)
29.09.2024 08:39 20,0 °C 6,8 °C 58 % 92 % 1028,4 hPa 0,0 l/m² 0,0 km/h (0 Bft) S-SW 198 ° 2 min 172 W/m² 5,6 °C 6,8 °C 0,0 km/h (0 Bft)
29.09.2024 08:41 20,0 °C 6,9 °C 58 % 92 % 1028,4 hPa 0,0 l/m² 0,2 km/h (0 Bft) S-SW 198 ° 2 min 178 W/m² 5,7 °C 6,9 °C 1,6 km/h (1 Bft)
29.09.2024 08:42 20,0 °C 6,9 °C 57 % 92 % 1028,4 hPa 0,0 l/m² 0,0 km/h (0 Bft) S-SW 198 ° 1 min 183 W/m² 5,7 °C 6,9 °C 0,0 km/h (0 Bft)
29.09.2024 08:43 20,0 °C 7,1 °C 57 % 92 % 1028,4 hPa 0,0 l/m² 1,2 km/h (1 Bft) S-SW 198 ° 1 min 185 W/m² 5,9 °C 7,1 °C 3,2 km/h (1 Bft)
29.09.2024 08:44 20,0 °C 7,0 °C 57 % 92 % 1028,5 hPa 0,0 l/m² 2,8 km/h (1 Bft) S-SW 198 ° 1 min 188 W/m² 5,8 °C 7,0 °C 4,8 km/h (1 Bft)
29.09.2024 08:45 20,0 °C 7,1 °C 58 % 92 % 1028,5 hPa 0,0 l/m² 2,7 km/h (1 Bft) S-SW 209 ° 1 min 192 W/m² 5,9 °C 7,1 °C 4,8 km/h (1 Bft)
29.09.2024 08:47 20,0 °C 7,3 °C 57 % 92 % 1028,5 hPa 0,0 l/m² 2,1 km/h (1 Bft) S-SW 208 ° 2 min 197 W/m² 6,1 °C 7,3 °C 4,8 km/h (1 Bft)
29.09.2024 08:49 20,0 °C 7,4 °C 58 % 92 % 1028,5 hPa 0,0 l/m² 4,0 km/h (1 Bft) SW 226 ° 2 min 204 W/m² 6,2 °C 7,4 °C 8,0 km/h (2 Bft)
29.09.2024 08:51 20,0 °C 7,7 °C 58 % 92 % 1028,5 hPa 0,0 l/m² 5,5 km/h (2 Bft) SW 226 ° 2 min 209 W/m² 6,5 °C 7,7 °C 8,0 km/h (2 Bft)
29.09.2024 08:52 20,0 °C 7,7 °C 58 % 92 % 1028,5 hPa 0,0 l/m² 6,4 km/h (2 Bft) SW 226 ° 1 min 213 W/m² 6,5 °C 7,7 °C 8,0 km/h (2 Bft)
29.09.2024 08:53 20,0 °C 7,8 °C 58 % 91 % 1028,5 hPa 0,0 l/m² 5,8 km/h (2 Bft) SW 214 ° 1 min 214 W/m² 6,4 °C 7,8 °C 8,0 km/h (2 Bft)
29.09.2024 08:55 20,0 °C 7,9 °C 58 % 91 % 1028,5 hPa 0,0 l/m² 5,3 km/h (1 Bft) SW 215 ° 2 min 223 W/m² 6,5 °C 7,9 °C 8,0 km/h (2 Bft)
29.09.2024 08:57 20,0 °C 8,0 °C 58 % 91 % 1028,5 hPa 0,0 l/m² 5,9 km/h (2 Bft) SW 223 ° 2 min 227 W/m² 6,6 °C 8,0 °C 8,0 km/h (2 Bft)
29.09.2024 08:59 19,9 °C 8,1 °C 57 % 91 % 1028,5 hPa 0,0 l/m² 6,7 km/h (2 Bft) SW 219 ° 2 min 232 W/m² 6,7 °C 7,9 °C 9,7 km/h (2 Bft)
29.09.2024 09:00 20,0 °C 8,1 °C 57 % 90 % 1028,4 hPa 0,0 l/m² 5,0 km/h (1 Bft) SW 219 ° 1 min 236 W/m² 6,6 °C 8,1 °C 6,4 km/h (2 Bft)
29.09.2024 09:01 20,0 °C 8,2 °C 57 % 90 % 1028,5 hPa 0,0 l/m² 6,2 km/h (2 Bft) SW 220 ° 1 min 239 W/m² 6,7 °C 8,2 °C 8,0 km/h (2 Bft)
29.09.2024 09:02 20,0 °C 8,2 °C 57 % 90 % 1028,5 hPa 0,0 l/m² 5,9 km/h (2 Bft) SW 218 ° 1 min 241 W/m² 6,7 °C 8,2 °C 6,4 km/h (2 Bft)
29.09.2024 09:05 20,0 °C 8,4 °C 57 % 90 % 1028,5 hPa 0,0 l/m² 4,6 km/h (1 Bft) SW 219 ° 3 min 248 W/m² 6,9 °C 8,4 °C 6,4 km/h (2 Bft)
29.09.2024 09:06 19,9 °C 8,4 °C 58 % 90 % 1028,5 hPa 0,0 l/m² 5,4 km/h (2 Bft) SW 217 ° 1 min 253 W/m² 6,9 °C 8,4 °C 6,4 km/h (2 Bft)
29.09.2024 09:08 20,0 °C 8,6 °C 57 % 90 % 1028,5 hPa 0,0 l/m² 5,8 km/h (2 Bft) SW 217 ° 2 min 258 W/m² 7,1 °C 8,6 °C 8,0 km/h (2 Bft)
29.09.2024 09:10 20,0 °C 8,8 °C 58 % 91 % 1028,5 hPa 0,0 l/m² 4,8 km/h (1 Bft) SW 228 ° 2 min 264 W/m² 7,4 °C 8,8 °C 6,4 km/h (2 Bft)
29.09.2024 09:11 20,0 °C 8,9 °C 57 % 90 % 1028,6 hPa 0,0 l/m² 4,6 km/h (1 Bft) SW 229 ° 1 min 265 W/m² 7,4 °C 8,9 °C 6,4 km/h (2 Bft)
29.09.2024 09:12 20,0 °C 9,0 °C 57 % 90 % 1028,6 hPa 0,0 l/m² 4,4 km/h (1 Bft) SW 234 ° 1 min 267 W/m² 7,4 °C 9,0 °C 6,4 km/h (2 Bft)
29.09.2024 09:14 20,0 °C 9,3 °C 57 % 90 % 1028,6 hPa 0,0 l/m² 4,7 km/h (1 Bft) SW 229 ° 2 min 276 W/m² 7,7 °C 9,3 °C 6,4 km/h (2 Bft)
29.09.2024 09:16 20,1 °C 9,3 °C 58 % 88 % 1028,7 hPa 0,0 l/m² 4,9 km/h (1 Bft) SW 225 ° 2 min 281 W/m² 7,4 °C 9,3 °C 6,4 km/h (2 Bft)
29.09.2024 09:18 20,0 °C 9,3 °C 57 % 89 % 1028,6 hPa 0,0 l/m² 4,0 km/h (1 Bft) SW 225 ° 2 min 287 W/m² 7,6 °C 9,3 °C 4,8 km/h (1 Bft)
29.09.2024 09:20 20,0 °C 9,5 °C 57 % 89 % 1028,6 hPa 0,0 l/m² 4,2 km/h (1 Bft) SW 236 ° 2 min 294 W/m² 7,8 °C 9,5 °C 6,4 km/h (2 Bft)
29.09.2024 09:21 20,0 °C 9,6 °C 57 % 89 % 1028,7 hPa 0,0 l/m² 5,4 km/h (2 Bft) SW 234 ° 1 min 297 W/m² 7,9 °C 9,6 °C 8,0 km/h (2 Bft)
29.09.2024 09:22 20,0 °C 9,7 °C 57 % 88 % 1028,7 hPa 0,0 l/m² 7,6 km/h (2 Bft) W-SW 247 ° 1 min 299 W/m² 7,8 °C 8,8 °C 12,9 km/h (3 Bft)
29.09.2024 09:25 20,0 °C 9,8 °C 57 % 86 % 1028,7 hPa 0,0 l/m² 6,0 km/h (2 Bft) SW 220 ° 3 min 308 W/m² 7,6 °C 9,8 °C 9,7 km/h (2 Bft)
29.09.2024 09:27 20,0 °C 9,8 °C 57 % 87 % 1028,7 hPa 0,0 l/m² 6,4 km/h (2 Bft) S-SW 200 ° 2 min 313 W/m² 7,7 °C 9,8 °C 8,0 km/h (2 Bft)
29.09.2024 09:29 20,0 °C 9,7 °C 57 % 87 % 1028,7 hPa 0,0 l/m² 5,6 km/h (2 Bft) S-SW 204 ° 2 min 316 W/m² 7,6 °C 9,7 °C 9,7 km/h (2 Bft)
29.09.2024 09:30 20,0 °C 9,7 °C 57 % 87 % 1028,7 hPa 0,0 l/m² 5,9 km/h (2 Bft) S-SW 203 ° 1 min 322 W/m² 7,6 °C 9,7 °C 8,0 km/h (2 Bft)
29.09.2024 09:31 20,0 °C 9,7 °C 57 % 88 % 1028,7 hPa 0,0 l/m² 6,4 km/h (2 Bft) S-SW 207 ° 1 min 323 W/m² 7,8 °C 9,7 °C 8,0 km/h (2 Bft)
29.09.2024 09:32 20,0 °C 9,7 °C 57 % 88 % 1028,7 hPa 0,0 l/m² 3,8 km/h (1 Bft) S-SW 207 ° 1 min 327 W/m² 7,8 °C 9,7 °C 6,4 km/h (2 Bft)
29.09.2024 09:35 20,0 °C 9,8 °C 57 % 89 % 1028,7 hPa 0,0 l/m² 5,2 km/h (1 Bft) S-SW 207 ° 3 min 332 W/m² 8,1 °C 9,8 °C 8,0 km/h (2 Bft)
29.09.2024 09:37 20,1 °C 9,8 °C 57 % 87 % 1028,6 hPa 0,0 l/m² 7,5 km/h (2 Bft) S-SW 213 ° 2 min 339 W/m² 7,7 °C 9,0 °C 9,7 km/h (2 Bft)
29.09.2024 09:39 20,1 °C 9,8 °C 57 % 87 % 1028,7 hPa 0,0 l/m² 5,4 km/h (2 Bft) S-SW 211 ° 2 min 345 W/m² 7,7 °C 9,8 °C 8,0 km/h (2 Bft)
29.09.2024 09:40 20,0 °C 9,9 °C 57 % 87 % 1028,8 hPa 0,0 l/m² 6,2 km/h (2 Bft) S-SW 212 ° 1 min 346 W/m² 7,8 °C 9,9 °C 8,0 km/h (2 Bft)
29.09.2024 09:41 20,1 °C 10,0 °C 57 % 87 % 1028,8 hPa 0,0 l/m² 3,2 km/h (1 Bft) S-SW 213 ° 1 min 352 W/m² 7,9 °C 10,0 °C 6,4 km/h (2 Bft)
29.09.2024 09:42 20,1 °C 10,0 °C 57 % 87 % 1028,8 hPa 0,0 l/m² 3,1 km/h (1 Bft) SW 215 ° 1 min 353 W/m² 7,9 °C 10,0 °C 4,8 km/h (1 Bft)
29.09.2024 09:45 20,1 °C 10,2 °C 57 % 86 % 1028,8 hPa 0,0 l/m² 4,3 km/h (1 Bft) SW 219 ° 3 min 359 W/m² 8,0 °C 10,2 °C 6,4 km/h (2 Bft)
29.09.2024 09:47 20,1 °C 10,4 °C 57 % 87 % 1028,8 hPa 0,0 l/m² 7,0 km/h (2 Bft) SW 228 ° 2 min 366 W/m² 8,3 °C 10,0 °C 12,9 km/h (3 Bft)
29.09.2024 09:48 20,1 °C 10,4 °C 57 % 86 % 1028,8 hPa 0,0 l/m² 6,4 km/h (2 Bft) W-SW 237 ° 1 min 367 W/m² 8,2 °C 10,4 °C 9,7 km/h (2 Bft)
29.09.2024 09:50 20,1 °C 10,4 °C 57 % 84 % 1028,8 hPa 0,0 l/m² 6,7 km/h (2 Bft) SW 230 ° 2 min 373 W/m² 7,8 °C 10,2 °C 9,7 km/h (2 Bft)
29.09.2024 09:51 20,1 °C 10,6 °C 57 % 84 % 1028,9 hPa 0,0 l/m² 6,7 km/h (2 Bft) W-SW 246 ° 1 min 374 W/m² 8,0 °C 10,4 °C 11,3 km/h (2 Bft)
29.09.2024 09:52 20,1 °C 10,6 °C 57 % 84 % 1028,9 hPa 0,0 l/m² 7,1 km/h (2 Bft) S-SW 205 ° 1 min 376 W/m² 8,0 °C 10,1 °C 8,0 km/h (2 Bft)
29.09.2024 09:53 20,1 °C 10,7 °C 57 % 84 % 1028,9 hPa 0,0 l/m² 7,7 km/h (2 Bft) SW 215 ° 1 min 378 W/m² 8,1 °C 9,8 °C 9,7 km/h (2 Bft)
29.09.2024 09:54 20,1 °C 10,7 °C 57 % 83 % 1028,8 hPa 0,0 l/m² 9,5 km/h (2 Bft) SW 230 ° 1 min 383 W/m² 7,9 °C 8,7 °C 12,9 km/h (3 Bft)
29.09.2024 09:56 20,1 °C 10,8 °C 57 % 83 % 1028,9 hPa 0,0 l/m² 7,1 km/h (2 Bft) SW 217 ° 2 min 387 W/m² 8,0 °C 10,3 °C 11,3 km/h (2 Bft)
29.09.2024 09:58 20,1 °C 10,9 °C 57 % 82 % 1028,9 hPa 0,0 l/m² 7,7 km/h (2 Bft) SW 230 ° 2 min 390 W/m² 7,9 °C 10,0 °C 11,3 km/h (2 Bft)
29.09.2024 10:00 20,1 °C 11,1 °C 57 % 82 % 1028,9 hPa 0,0 l/m² 7,9 km/h (2 Bft) W-SW 239 ° 2 min 397 W/m² 8,1 °C 10,1 °C 11,3 km/h (2 Bft)
29.09.2024 10:01 20,1 °C 11,1 °C 57 % 80 % 1028,9 hPa 0,0 l/m² 6,8 km/h (2 Bft) SW 220 ° 1 min 399 W/m² 7,8 °C 10,8 °C 9,7 km/h (2 Bft)
29.09.2024 10:02 20,1 °C 11,1 °C 57 % 80 % 1028,9 hPa 0,0 l/m² 7,6 km/h (2 Bft) SW 222 ° 1 min 401 W/m² 7,8 °C 10,3 °C 9,7 km/h (2 Bft)
29.09.2024 10:05 20,1 °C 11,2 °C 57 % 80 % 1028,9 hPa 0,0 l/m² 9,4 km/h (2 Bft) W-SW 238 ° 3 min 408 W/m² 7,9 °C 9,3 °C 12,9 km/h (3 Bft)
29.09.2024 10:07 20,1 °C 11,2 °C 57 % 81 % 1028,9 hPa 0,0 l/m² 7,3 km/h (2 Bft) S-SW 205 ° 2 min 413 W/m² 8,1 °C 10,6 °C 9,7 km/h (2 Bft)
29.09.2024 10:09 20,1 °C 11,3 °C 57 % 80 % 1029,0 hPa 0,0 l/m² 6,3 km/h (2 Bft) SW 217 ° 2 min 417 W/m² 8,0 °C 11,3 °C 8,0 km/h (2 Bft)
29.09.2024 10:10 20,1 °C 11,2 °C 57 % 80 % 1028,9 hPa 0,0 l/m² 6,7 km/h (2 Bft) W-SW 249 ° 1 min 418 W/m² 7,9 °C 11,0 °C 8,0 km/h (2 Bft)
29.09.2024 10:11 20,1 °C 11,3 °C 57 % 81 % 1029,0 hPa 0,0 l/m² 6,6 km/h (2 Bft) SW 224 ° 1 min 424 W/m² 8,2 °C 11,2 °C 9,7 km/h (2 Bft)
29.09.2024 10:12 20,1 °C 11,4 °C 57 % 81 % 1029,0 hPa 0,0 l/m² 9,3 km/h (2 Bft) SW 215 ° 1 min 425 W/m² 8,3 °C 9,5 °C 9,7 km/h (2 Bft)
29.09.2024 10:15 20,1 °C 11,4 °C 57 % 79 % 1028,8 hPa 0,0 l/m² 8,4 km/h (2 Bft) W-SW 248 ° 3 min 431 W/m² 7,9 °C 10,1 °C 11,3 km/h (2 Bft)
29.09.2024 10:17 20,1 °C 11,6 °C 57 % 79 % 1028,9 hPa 0,0 l/m² 7,2 km/h (2 Bft) SW 225 ° 2 min 438 W/m² 8,1 °C 11,1 °C 12,9 km/h (3 Bft)
29.09.2024 10:19 20,1 °C 11,8 °C 57 % 79 % 1028,9 hPa 0,0 l/m² 7,9 km/h (2 Bft) SW 228 ° 2 min 441 W/m² 8,3 °C 10,8 °C 12,9 km/h (3 Bft)
29.09.2024 10:20 20,1 °C 11,8 °C 57 % 77 % 1028,9 hPa 0,0 l/m² 5,6 km/h (2 Bft) SW 227 ° 1 min 443 W/m² 7,9 °C 11,8 °C 8,0 km/h (2 Bft)
29.09.2024 10:21 20,1 °C 11,7 °C 57 % 77 % 1028,9 hPa 0,0 l/m² 7,0 km/h (2 Bft) W-SW 238 ° 1 min 443 W/m² 7,8 °C 11,3 °C 9,7 km/h (2 Bft)
29.09.2024 10:22 20,1 °C 11,8 °C 57 % 78 % 1028,9 hPa 0,0 l/m² 7,8 km/h (2 Bft) W-SW 251 ° 1 min 446 W/m² 8,1 °C 10,9 °C 11,3 km/h (2 Bft)
29.09.2024 10:25 20,1 °C 11,9 °C 57 % 76 % 1028,9 hPa 0,0 l/m² 6,6 km/h (2 Bft) W-SW 245 ° 3 min 454 W/m² 7,8 °C 11,8 °C 12,9 km/h (3 Bft)
29.09.2024 10:27 20,1 °C 12,1 °C 57 % 77 % 1028,9 hPa 0,0 l/m² 3,9 km/h (1 Bft) SW 236 ° 2 min 457 W/m² 8,2 °C 12,1 °C 9,7 km/h (2 Bft)
29.09.2024 10:29 20,1 °C 12,2 °C 57 % 76 % 1028,9 hPa 0,0 l/m² 7,3 km/h (2 Bft) W-SW 243 ° 2 min 462 W/m² 8,1 °C 11,6 °C 9,7 km/h (2 Bft)
29.09.2024 10:30 20,1 °C 12,3 °C 57 % 76 % 1028,9 hPa 0,0 l/m² 8,0 km/h (2 Bft) W-SW 239 ° 1 min 464 W/m² 8,2 °C 11,3 °C 11,3 km/h (2 Bft)
29.09.2024 10:31 20,1 °C 12,3 °C 57 % 76 % 1029,0 hPa 0,0 l/m² 3,5 km/h (1 Bft) W-SW 248 ° 1 min 466 W/m² 8,2 °C 12,3 °C 4,8 km/h (1 Bft)
29.09.2024 10:32 20,1 °C 12,4 °C 57 % 76 % 1029,0 hPa 0,0 l/m² 5,5 km/h (2 Bft) W 270 ° 1 min 468 W/m² 8,3 °C 12,4 °C 11,3 km/h (2 Bft)
29.09.2024 10:35 20,1 °C 12,4 °C 57 % 75 % 1028,9 hPa 0,0 l/m² 3,3 km/h (1 Bft) W-SW 256 ° 3 min 476 W/m² 8,1 °C 12,4 °C 9,7 km/h (2 Bft)
29.09.2024 10:37 20,1 °C 12,5 °C 57 % 74 % 1028,9 hPa 0,0 l/m² 3,0 km/h (1 Bft) W-SW 244 ° 2 min 480 W/m² 8,0 °C 12,5 °C 11,3 km/h (2 Bft)
29.09.2024 10:39 20,1 °C 12,6 °C 57 % 73 % 1029,0 hPa 0,0 l/m² 7,5 km/h (2 Bft) W 265 ° 2 min 483 W/m² 7,9 °C 11,9 °C 14,5 km/h (3 Bft)
29.09.2024 10:40 20,1 °C 12,4 °C 57 % 72 % 1029,0 hPa 0,0 l/m² 6,9 km/h (2 Bft) W 272 ° 1 min 483 W/m² 7,5 °C 12,1 °C 9,7 km/h (2 Bft)
29.09.2024 10:41 20,1 °C 12,3 °C 57 % 72 % 1029,0 hPa 0,0 l/m² 4,5 km/h (1 Bft) W 279 ° 1 min 485 W/m² 7,4 °C 12,3 °C 11,3 km/h (2 Bft)
29.09.2024 10:42 20,1 °C 12,3 °C 57 % 73 % 1029,0 hPa 0,0 l/m² 6,5 km/h (2 Bft) W 278 ° 1 min 487 W/m² 7,6 °C 12,3 °C 11,3 km/h (2 Bft)
29.09.2024 10:45 20,1 °C 12,4 °C 57 % 73 % 1029,0 hPa 0,0 l/m² 6,7 km/h (2 Bft) W-NW 284 ° 3 min 492 W/m² 7,7 °C 12,2 °C 14,5 km/h (3 Bft)
29.09.2024 10:47 20,1 °C 12,5 °C 57 % 74 % 1029,0 hPa 0,0 l/m² 4,5 km/h (1 Bft) W-SW 257 ° 2 min 501 W/m² 8,0 °C 12,5 °C 11,3 km/h (2 Bft)
29.09.2024 10:49 20,1 °C 12,7 °C 57 % 73 % 1029,0 hPa 0,0 l/m² 3,5 km/h (1 Bft) W 263 ° 2 min 503 W/m² 8,0 °C 12,7 °C 9,7 km/h (2 Bft)
29.09.2024 10:50 20,1 °C 12,8 °C 57 % 73 % 1028,9 hPa 0,0 l/m² 3,7 km/h (1 Bft) W-NW 284 ° 1 min 504 W/m² 8,1 °C 12,8 °C 9,7 km/h (2 Bft)
29.09.2024 10:51 20,1 °C 12,8 °C 57 % 72 % 1029,0 hPa 0,0 l/m² 3,0 km/h (1 Bft) W-NW 287 ° 1 min 504 W/m² 7,9 °C 12,8 °C 9,7 km/h (2 Bft)
29.09.2024 10:52 20,1 °C 12,9 °C 57 % 73 % 1029,0 hPa 0,0 l/m² 0,2 km/h (0 Bft) W-NW 287 ° 1 min 506 W/m² 8,2 °C 12,9 °C 1,6 km/h (1 Bft)
29.09.2024 10:55 20,1 °C 13,2 °C 57 % 72 % 1029,0 hPa 0,0 l/m² 2,8 km/h (1 Bft) W 273 ° 3 min 524 W/m² 8,3 °C 13,2 °C 12,9 km/h (3 Bft)
29.09.2024 10:57 20,1 °C 13,1 °C 57 % 72 % 1028,9 hPa 0,0 l/m² 3,4 km/h (1 Bft) W-SW 251 ° 2 min 533 W/m² 8,2 °C 13,1 °C 6,4 km/h (2 Bft)
29.09.2024 10:59 20,1 °C 12,9 °C 57 % 73 % 1029,0 hPa 0,0 l/m² 2,7 km/h (1 Bft) W-SW 252 ° 2 min 534 W/m² 8,2 °C 12,9 °C 4,8 km/h (1 Bft)
29.09.2024 11:00 20,1 °C 12,9 °C 57 % 72 % 1028,9 hPa 0,0 l/m² 4,3 km/h (1 Bft) W 269 ° 1 min 533 W/m² 8,0 °C 12,9 °C 8,0 km/h (2 Bft)
29.09.2024 11:01 20,1 °C 12,9 °C 57 % 73 % 1028,9 hPa 0,0 l/m² 3,8 km/h (1 Bft) W 271 ° 1 min 533 W/m² 8,2 °C 12,9 °C 6,4 km/h (2 Bft)
29.09.2024 11:02 20,1 °C 13,1 °C 57 % 73 % 1028,9 hPa 0,0 l/m² 3,9 km/h (1 Bft) W 271 ° 1 min 533 W/m² 8,4 °C 13,1 °C 6,4 km/h (2 Bft)
29.09.2024 11:05 20,1 °C 12,9 °C 57 % 71 % 1029,0 hPa 0,0 l/m² 6,0 km/h (2 Bft) W 277 ° 3 min 540 W/m² 7,8 °C 12,9 °C 11,3 km/h (2 Bft)
29.09.2024 11:07 20,1 °C 12,8 °C 57 % 71 % 1029,0 hPa 0,0 l/m² 4,1 km/h (1 Bft) W 279 ° 2 min 541 W/m² 7,7 °C 12,8 °C 11,3 km/h (2 Bft)
29.09.2024 11:09 20,1 °C 12,9 °C 57 % 73 % 1029,0 hPa 0,0 l/m² 8,8 km/h (2 Bft) W-SW 239 ° 2 min 547 W/m² 8,2 °C 11,4 °C 14,5 km/h (3 Bft)
29.09.2024 11:10 20,1 °C 12,9 °C 57 % 73 % 1029,0 hPa 0,0 l/m² 9,2 km/h (2 Bft) W-SW 252 ° 1 min 548 W/m² 8,2 °C 11,2 °C 14,5 km/h (3 Bft)
29.09.2024 11:11 20,1 °C 13,1 °C 57 % 73 % 1029,0 hPa 0,0 l/m² 3,6 km/h (1 Bft) W 259 ° 1 min 552 W/m² 8,4 °C 13,1 °C 9,7 km/h (2 Bft)
29.09.2024 11:12 20,1 °C 13,2 °C 57 % 73 % 1029,0 hPa 0,0 l/m² 4,1 km/h (1 Bft) W 275 ° 1 min 554 W/m² 8,5 °C 13,2 °C 9,7 km/h (2 Bft)
29.09.2024 11:14 20,1 °C 13,2 °C 57 % 71 % 1028,9 hPa 0,0 l/m² 5,9 km/h (2 Bft) W 265 ° 2 min 557 W/m² 8,1 °C 13,2 °C 9,7 km/h (2 Bft)
29.09.2024 11:15 20,1 °C 13,2 °C 57 % 72 % 1029,0 hPa 0,0 l/m² 1,5 km/h (1 Bft) W 269 ° 1 min 563 W/m² 8,3 °C 13,2 °C 4,8 km/h (1 Bft)
29.09.2024 11:17 20,1 °C 13,3 °C 57 % 73 % 1029,0 hPa 0,0 l/m² 1,2 km/h (1 Bft) W 275 ° 2 min 561 W/m² 8,6 °C 13,3 °C 4,8 km/h (1 Bft)
29.09.2024 11:19 20,1 °C 13,7 °C 57 % 73 % 1029,0 hPa 0,0 l/m² 0,0 km/h (0 Bft) W 275 ° 2 min 570 W/m² 8,9 °C 13,7 °C 1,6 km/h (1 Bft)
29.09.2024 11:20 20,1 °C 13,7 °C 57 % 72 % 1028,9 hPa 0,0 l/m² 0,2 km/h (0 Bft) W-SW 244 ° 1 min 573 W/m² 8,7 °C 13,7 °C 4,8 km/h (1 Bft)
29.09.2024 11:21 20,1 °C 13,7 °C 57 % 70 % 1028,9 hPa 0,0 l/m² 7,2 km/h (2 Bft) W 272 ° 1 min 585 W/m² 8,3 °C 13,2 °C 12,9 km/h (3 Bft)
29.09.2024 11:22 20,1 °C 13,7 °C 57 % 70 % 1028,9 hPa 0,0 l/m² 7,7 km/h (2 Bft) W 275 ° 1 min 599 W/m² 8,3 °C 12,9 °C 11,3 km/h (2 Bft)
29.09.2024 11:25 20,1 °C 13,5 °C 57 % 70 % 1028,9 hPa 0,0 l/m² 3,3 km/h (1 Bft) W 266 ° 3 min 621 W/m² 8,1 °C 13,5 °C 9,7 km/h (2 Bft)
29.09.2024 11:27 20,1 °C 13,3 °C 57 % 71 % 1028,9 hPa 0,0 l/m² 3,8 km/h (1 Bft) W-SW 249 ° 2 min 642 W/m² 8,2 °C 13,3 °C 6,4 km/h (2 Bft)
29.09.2024 11:29 20,1 °C 13,4 °C 57 % 71 % 1028,9 hPa 0,0 l/m² 3,3 km/h (1 Bft) W-SW 249 ° 2 min 659 W/m² 8,3 °C 13,4 °C 4,8 km/h (1 Bft)
29.09.2024 11:30 20,1 °C 13,5 °C 57 % 73 % 1028,9 hPa 0,0 l/m² 1,5 km/h (1 Bft) W 265 ° 1 min 663 W/m² 8,8 °C 13,5 °C 4,8 km/h (1 Bft)
29.09.2024 11:31 20,1 °C 13,6 °C 57 % 71 % 1028,8 hPa 0,0 l/m² 2,3 km/h (1 Bft) W 266 ° 1 min 663 W/m² 8,4 °C 13,6 °C 6,4 km/h (2 Bft)
29.09.2024 11:32 20,1 °C 13,6 °C 57 % 72 % 1028,8 hPa 0,0 l/m² 3,1 km/h (1 Bft) W 264 ° 1 min 663 W/m² 8,6 °C 13,6 °C 6,4 km/h (2 Bft)
29.09.2024 11:35 20,1 °C 13,2 °C 57 % 70 % 1028,9 hPa 0,0 l/m² 1,1 km/h (1 Bft) W 262 ° 3 min 181 W/m² 7,9 °C 13,2 °C 9,7 km/h (2 Bft)
29.09.2024 11:37 20,1 °C 13,0 °C 57 % 72 % 1028,8 hPa 0,0 l/m² 2,9 km/h (1 Bft) W-SW 246 ° 2 min 680 W/m² 8,1 °C 13,0 °C 9,7 km/h (2 Bft)
29.09.2024 11:39 20,1 °C 13,1 °C 57 % 69 % 1028,8 hPa 0,0 l/m² 5,8 km/h (2 Bft) W 262 ° 2 min 680 W/m² 7,5 °C 13,1 °C 12,9 km/h (3 Bft)
29.09.2024 11:40 20,1 °C 13,1 °C 57 % 69 % 1028,8 hPa 0,0 l/m² 2,4 km/h (1 Bft) W 262 ° 1 min 680 W/m² 7,5 °C 13,1 °C 6,4 km/h (2 Bft)
29.09.2024 11:41 20,1 °C 13,2 °C 57 % 70 % 1028,8 hPa 0,0 l/m² 4,9 km/h (1 Bft) W-SW 257 ° 1 min 698 W/m² 7,9 °C 13,2 °C 6,4 km/h (2 Bft)
29.09.2024 11:42 20,1 °C 13,2 °C 57 % 70 % 1028,8 hPa 0,0 l/m² 6,3 km/h (2 Bft) W 277 ° 1 min 698 W/m² 7,9 °C 13,2 °C 11,3 km/h (2 Bft)
29.09.2024 11:45 20,1 °C 13,4 °C 57 % 69 % 1028,8 hPa 0,0 l/m² 3,7 km/h (1 Bft) W-SW 255 ° 3 min 671 W/m² 7,8 °C 13,4 °C 9,7 km/h (2 Bft)
29.09.2024 11:47 20,1 °C 13,7 °C 57 % 69 % 1028,8 hPa 0,0 l/m² 6,6 km/h (2 Bft) W 269 ° 2 min 680 W/m² 8,1 °C 13,6 °C 11,3 km/h (2 Bft)
29.09.2024 11:49 20,1 °C 14,1 °C 57 % 69 % 1028,8 hPa 0,0 l/m² 3,8 km/h (1 Bft) W 281 ° 2 min 680 W/m² 8,5 °C 14,1 °C 9,7 km/h (2 Bft)
29.09.2024 11:50 20,1 °C 14,2 °C 57 % 68 % 1028,8 hPa 0,0 l/m² 4,5 km/h (1 Bft) W 277 ° 1 min 694 W/m² 8,4 °C 14,2 °C 8,0 km/h (2 Bft)
29.09.2024 11:51 20,1 °C 14,2 °C 57 % 66 % 1028,8 hPa 0,0 l/m² 3,0 km/h (1 Bft) W 272 ° 1 min 680 W/m² 7,9 °C 14,2 °C 9,7 km/h (2 Bft)
29.09.2024 11:52 20,1 °C 14,3 °C 57 % 66 % 1028,8 hPa 0,0 l/m² 3,3 km/h (1 Bft) W-NW 290 ° 1 min 700 W/m² 8,0 °C 14,3 °C 6,4 km/h (2 Bft)
29.09.2024 11:55 20,1 °C 14,3 °C 57 % 65 % 1028,9 hPa 0,0 l/m² 2,6 km/h (1 Bft) W 267 ° 3 min 708 W/m² 7,8 °C 14,3 °C 9,7 km/h (2 Bft)
29.09.2024 11:57 20,1 °C 13,8 °C 57 % 64 % 1028,9 hPa 0,0 l/m² 4,9 km/h (1 Bft) W 261 ° 2 min 192 W/m² 7,1 °C 13,8 °C 9,7 km/h (2 Bft)
29.09.2024 11:59 20,1 °C 13,5 °C 57 % 65 % 1028,9 hPa 0,0 l/m² 1,9 km/h (1 Bft) W 261 ° 2 min 642 W/m² 7,1 °C 13,5 °C 4,8 km/h (1 Bft)
29.09.2024 12:00 20,1 °C 13,6 °C 57 % 68 % 1028,8 hPa 0,0 l/m² 1,1 km/h (1 Bft) W 261 ° 1 min 642 W/m² 7,8 °C 13,6 °C 3,2 km/h (1 Bft)
29.09.2024 12:01 20,1 °C 13,6 °C 57 % 67 % 1028,9 hPa 0,0 l/m² 1,3 km/h (1 Bft) W 261 ° 1 min 480 W/m² 7,6 °C 13,6 °C 3,2 km/h (1 Bft)
29.09.2024 12:02 20,1 °C 13,6 °C 57 % 68 % 1028,9 hPa 0,0 l/m² 7,4 km/h (2 Bft) W-SW 246 ° 1 min 480 W/m² 7,8 °C 13,0 °C 9,7 km/h (2 Bft)
29.09.2024 12:05 20,1 °C 13,8 °C 57 % 67 % 1028,9 hPa 0,0 l/m² 5,3 km/h (1 Bft) SW 225 ° 3 min 721 W/m² 7,8 °C 13,8 °C 8,0 km/h (2 Bft)
29.09.2024 12:07 20,1 °C 13,7 °C 57 % 68 % 1028,8 hPa 0,0 l/m² 4,1 km/h (1 Bft) SW 228 ° 2 min 719 W/m² 7,9 °C 13,7 °C 6,4 km/h (2 Bft)
29.09.2024 12:09 20,1 °C 14,0 °C 57 % 66 % 1028,8 hPa 0,0 l/m² 5,4 km/h (2 Bft) W 266 ° 2 min 710 W/m² 7,7 °C 14,0 °C 11,3 km/h (2 Bft)
29.09.2024 12:10 20,1 °C 14,2 °C 57 % 67 % 1028,9 hPa 0,0 l/m² 7,5 km/h (2 Bft) W-SW 252 ° 1 min 714 W/m² 8,2 °C 13,5 °C 12,9 km/h (3 Bft)
29.09.2024 12:11 20,1 °C 14,3 °C 57 % 65 % 1028,8 hPa 0,0 l/m² 6,1 km/h (2 Bft) W 261 ° 1 min 719 W/m² 7,8 °C 14,3 °C 11,3 km/h (2 Bft)
29.09.2024 12:12 20,1 °C 14,4 °C 57 % 64 % 1028,8 hPa 0,0 l/m² 5,4 km/h (2 Bft) W 269 ° 1 min 722 W/m² 7,7 °C 14,4 °C 11,3 km/h (2 Bft)
29.09.2024 12:14 20,1 °C 14,6 °C 57 % 65 % 1028,8 hPa 0,0 l/m² 5,2 km/h (1 Bft) W 260 ° 2 min 722 W/m² 8,1 °C 14,6 °C 12,9 km/h (3 Bft)
29.09.2024 12:15 20,1 °C 14,6 °C 57 % 64 % 1028,8 hPa 0,0 l/m² 12,5 km/h (2 Bft) SW 236 ° 1 min 722 W/m² 7,9 °C 11,6 °C 14,5 km/h (3 Bft)
29.09.2024 12:17 20,1 °C 14,5 °C 57 % 63 % 1028,9 hPa 0,0 l/m² 5,3 km/h (1 Bft) W 265 ° 2 min 671 W/m² 7,5 °C 14,5 °C 14,5 km/h (3 Bft)
29.09.2024 12:19 20,1 °C 14,6 °C 57 % 64 % 1028,8 hPa 0,0 l/m² 5,3 km/h (1 Bft) W-SW 248 ° 2 min 691 W/m² 7,9 °C 14,6 °C 11,3 km/h (2 Bft)
29.09.2024 12:20 20,1 °C 14,7 °C 57 % 64 % 1028,8 hPa 0,0 l/m² 4,7 km/h (1 Bft) W 262 ° 1 min 691 W/m² 8,0 °C 14,7 °C 11,3 km/h (2 Bft)
29.09.2024 12:21 20,1 °C 14,8 °C 57 % 65 % 1028,8 hPa 0,0 l/m² 8,6 km/h (2 Bft) W-SW 252 ° 1 min 691 W/m² 8,3 °C 13,6 °C 12,9 km/h (3 Bft)
29.09.2024 12:22 20,1 °C 14,8 °C 57 % 65 % 1028,8 hPa 0,0 l/m² 4,0 km/h (1 Bft) W-SW 242 ° 1 min 694 W/m² 8,3 °C 14,8 °C 6,4 km/h (2 Bft)
29.09.2024 12:24 20,1 °C 14,9 °C 57 % 62 % 1028,8 hPa 0,0 l/m² 7,8 km/h (2 Bft) W 263 ° 2 min 703 W/m² 7,7 °C 14,1 °C 12,9 km/h (3 Bft)
29.09.2024 12:25 20,1 °C 14,9 °C 57 % 62 % 1028,8 hPa 0,0 l/m² 6,6 km/h (2 Bft) W 263 ° 1 min 708 W/m² 7,7 °C 14,8 °C 11,3 km/h (2 Bft)
29.09.2024 12:27 20,1 °C 15,1 °C 57 % 63 % 1028,8 hPa 0,0 l/m² 3,4 km/h (1 Bft) W 264 ° 2 min 742 W/m² 8,1 °C 15,1 °C 6,4 km/h (2 Bft)
29.09.2024 12:29 20,1 °C 15,1 °C 57 % 62 % 1028,8 hPa 0,0 l/m² 2,9 km/h (1 Bft) W 263 ° 2 min 766 W/m² 7,9 °C 15,1 °C 6,4 km/h (2 Bft)
29.09.2024 12:30 20,1 °C 15,2 °C 57 % 64 % 1028,7 hPa 0,0 l/m² 5,1 km/h (1 Bft) SW 224 ° 1 min 777 W/m² 8,4 °C 15,2 °C 9,7 km/h (2 Bft)
29.09.2024 12:31 20,1 °C 15,1 °C 57 % 62 % 1028,8 hPa 0,0 l/m² 6,0 km/h (2 Bft) SW 220 ° 1 min 793 W/m² 7,9 °C 15,1 °C 8,0 km/h (2 Bft)
29.09.2024 12:32 20,1 °C 15,0 °C 57 % 63 % 1028,8 hPa 0,0 l/m² 4,3 km/h (1 Bft) SW 221 ° 1 min 800 W/m² 8,0 °C 15,0 °C 6,4 km/h (2 Bft)
29.09.2024 12:34 20,1 °C 15,2 °C 57 % 63 % 1028,8 hPa 0,0 l/m² 2,2 km/h (1 Bft) W 265 ° 2 min 809 W/m² 8,2 °C 15,2 °C 8,0 km/h (2 Bft)
29.09.2024 12:35 20,1 °C 15,3 °C 57 % 63 % 1028,8 hPa 0,0 l/m² 2,2 km/h (1 Bft) SW 221 ° 1 min 812 W/m² 8,3 °C 15,3 °C 6,4 km/h (2 Bft)
29.09.2024 12:37 20,1 °C 15,4 °C 57 % 61 % 1028,8 hPa 0,0 l/m² 2,7 km/h (1 Bft) W-NW 301 ° 2 min 591 W/m² 7,9 °C 15,4 °C 9,7 km/h (2 Bft)
29.09.2024 12:38 20,1 °C 15,5 °C 57 % 61 % 1028,8 hPa 0,0 l/m² 5,5 km/h (2 Bft) NW 313 ° 1 min 591 W/m² 8,0 °C 15,5 °C 8,0 km/h (2 Bft)
29.09.2024 12:39 20,1 °C 15,7 °C 57 % 59 % 1028,8 hPa 0,0 l/m² 3,4 km/h (1 Bft) NW 309 ° 1 min 591 W/m² 7,7 °C 15,7 °C 6,4 km/h (2 Bft)
29.09.2024 12:40 20,1 °C 15,9 °C 57 % 61 % 1028,8 hPa 0,0 l/m² 4,6 km/h (1 Bft) N-NW 327 ° 1 min 592 W/m² 8,4 °C 15,9 °C 8,0 km/h (2 Bft)
29.09.2024 12:41 20,1 °C 16,1 °C 57 % 62 % 1028,8 hPa 0,0 l/m² 4,4 km/h (1 Bft) NW 309 ° 1 min 592 W/m² 8,8 °C 16,1 °C 6,4 km/h (2 Bft)
29.09.2024 12:42 20,1 °C 16,1 °C 57 % 61 % 1028,8 hPa 0,0 l/m² 1,4 km/h (1 Bft) NW 307 ° 1 min 592 W/m² 8,6 °C 16,1 °C 4,8 km/h (1 Bft)
29.09.2024 12:43 20,1 °C 15,9 °C 57 % 59 % 1028,9 hPa 0,0 l/m² 4,4 km/h (1 Bft) NW 315 ° 1 min 276 W/m² 7,9 °C 15,9 °C 8,0 km/h (2 Bft)
29.09.2024 12:44 20,1 °C 15,7 °C 57 % 60 % 1028,8 hPa 0,0 l/m² 6,4 km/h (2 Bft) NW 323 ° 1 min 359 W/m² 8,0 °C 15,7 °C 11,3 km/h (2 Bft)
29.09.2024 12:46 20,1 °C 15,2 °C 57 % 59 % 1028,7 hPa 0,0 l/m² 2,5 km/h (1 Bft) W-NW 301 ° 2 min 404 W/m² 7,2 °C 15,2 °C 6,4 km/h (2 Bft)
29.09.2024 12:47 20,1 °C 14,9 °C 57 % 61 % 1028,8 hPa 0,0 l/m² 4,6 km/h (1 Bft) NW 309 ° 1 min 348 W/m² 7,4 °C 14,9 °C 11,3 km/h (2 Bft)
29.09.2024 12:48 20,1 °C 14,9 °C 57 % 61 % 1028,8 hPa 0,0 l/m² 4,6 km/h (1 Bft) N-NW 340 ° 1 min 283 W/m² 7,4 °C 14,9 °C 8,0 km/h (2 Bft)
29.09.2024 12:49 20,1 °C 14,8 °C 57 % 62 % 1028,7 hPa 0,0 l/m² 5,0 km/h (1 Bft) NW 319 ° 1 min 264 W/m² 7,6 °C 14,8 °C 9,7 km/h (2 Bft)
29.09.2024 12:50 20,1 °C 14,7 °C 57 % 62 % 1028,8 hPa 0,0 l/m² 3,4 km/h (1 Bft) NW 307 ° 1 min 276 W/m² 7,5 °C 14,7 °C 6,4 km/h (2 Bft)
29.09.2024 12:51 20,1 °C 14,7 °C 57 % 63 % 1028,8 hPa 0,0 l/m² 0,2 km/h (0 Bft) NW 311 ° 1 min 313 W/m² 7,7 °C 14,7 °C 1,6 km/h (1 Bft)
29.09.2024 12:52 20,1 °C 14,6 °C 57 % 64 % 1028,8 hPa 0,0 l/m² 4,3 km/h (1 Bft) W-NW 290 ° 1 min 306 W/m² 7,9 °C 14,6 °C 6,4 km/h (2 Bft)
29.09.2024 12:53 20,1 °C 14,5 °C 57 % 62 % 1028,8 hPa 0,0 l/m² 4,2 km/h (1 Bft) W-NW 285 ° 1 min 350 W/m² 7,3 °C 14,5 °C 6,4 km/h (2 Bft)
29.09.2024 12:54 20,1 °C 14,4 °C 57 % 63 % 1028,8 hPa 0,0 l/m² 5,4 km/h (2 Bft) N 355 ° 1 min 350 W/m² 7,4 °C 14,4 °C 11,3 km/h (2 Bft)
29.09.2024 12:55 20,1 °C 14,6 °C 57 % 64 % 1028,8 hPa 0,0 l/m² 4,0 km/h (1 Bft) W-NW 290 ° 1 min 594 W/m² 7,9 °C 14,6 °C 4,8 km/h (1 Bft)
29.09.2024 12:56 20,1 °C 14,8 °C 57 % 65 % 1028,8 hPa 0,0 l/m² 4,4 km/h (1 Bft) NW 313 ° 1 min 594 W/m² 8,3 °C 14,8 °C 8,0 km/h (2 Bft)
29.09.2024 12:57 20,1 °C 14,8 °C 57 % 61 % 1028,8 hPa 0,0 l/m² 4,3 km/h (1 Bft) N-NW 342 ° 1 min 595 W/m² 7,4 °C 14,8 °C 6,4 km/h (2 Bft)
29.09.2024 12:58 20,1 °C 14,9 °C 57 % 63 % 1028,8 hPa 0,0 l/m² 2,4 km/h (1 Bft) N 350 ° 1 min 595 W/m² 7,9 °C 14,9 °C 6,4 km/h (2 Bft)
29.09.2024 12:59 20,1 °C 14,9 °C 57 % 62 % 1028,8 hPa 0,0 l/m² 0,9 km/h (0 Bft) N 350 ° 1 min 595 W/m² 7,7 °C 14,9 °C 3,2 km/h (1 Bft)
29.09.2024 13:02 20,1 °C 15,4 °C 57 % 62 % 1028,7 hPa 0,0 l/m² 2,7 km/h (1 Bft) W 267 ° 3 min 791 W/m² 8,2 °C 15,4 °C 8,0 km/h (2 Bft)
29.09.2024 13:03 20,1 °C 15,5 °C 57 % 60 % 1028,7 hPa 0,0 l/m² 3,3 km/h (1 Bft) W-NW 295 ° 1 min 791 W/m² 7,8 °C 15,5 °C 9,7 km/h (2 Bft)
29.09.2024 13:04 20,1 °C 15,5 °C 57 % 60 % 1028,7 hPa 0,0 l/m² 1,0 km/h (0 Bft) W-NW 295 ° 1 min 595 W/m² 7,8 °C 15,5 °C 4,8 km/h (1 Bft)
29.09.2024 13:05 20,1 °C 15,6 °C 57 % 60 % 1028,7 hPa 0,0 l/m² 5,1 km/h (1 Bft) W 259 ° 1 min 595 W/m² 7,9 °C 15,6 °C 11,3 km/h (2 Bft)
29.09.2024 13:06 20,1 °C 15,7 °C 57 % 59 % 1028,7 hPa 0,0 l/m² 6,5 km/h (2 Bft) W 278 ° 1 min 595 W/m² 7,7 °C 15,7 °C 11,3 km/h (2 Bft)
29.09.2024 13:07 20,1 °C 15,7 °C 57 % 60 % 1028,8 hPa 0,0 l/m² 3,7 km/h (1 Bft) W 266 ° 1 min 595 W/m² 8,0 °C 15,7 °C 4,8 km/h (1 Bft)
29.09.2024 13:08 20,1 °C 15,6 °C 57 % 59 % 1028,7 hPa 0,0 l/m² 5,7 km/h (2 Bft) W-SW 245 ° 1 min 594 W/m² 7,6 °C 15,6 °C 8,0 km/h (2 Bft)
29.09.2024 13:09 20,1 °C 15,6 °C 57 % 60 % 1028,7 hPa 0,0 l/m² 5,8 km/h (2 Bft) W-SW 252 ° 1 min 824 W/m² 7,9 °C 15,6 °C 8,0 km/h (2 Bft)
29.09.2024 13:10 20,1 °C 15,6 °C 57 % 61 % 1028,6 hPa 0,0 l/m² 2,9 km/h (1 Bft) W-SW 248 ° 1 min 807 W/m² 8,1 °C 15,6 °C 6,4 km/h (2 Bft)
29.09.2024 13:11 20,1 °C 15,7 °C 57 % 59 % 1028,6 hPa 0,0 l/m² 0,0 km/h (0 Bft) W-SW 248 ° 1 min 786 W/m² 7,7 °C 15,7 °C 0,0 km/h (0 Bft)
29.09.2024 13:12 20,1 °C 15,7 °C 57 % 58 % 1028,6 hPa 0,0 l/m² 3,6 km/h (1 Bft) W-SW 254 ° 1 min 772 W/m² 7,5 °C 15,7 °C 6,4 km/h (2 Bft)
29.09.2024 13:13 20,1 °C 15,5 °C 57 % 56 % 1028,7 hPa 0,0 l/m² 0,9 km/h (0 Bft) W-SW 254 ° 1 min 761 W/m² 6,8 °C 15,5 °C 3,2 km/h (1 Bft)
29.09.2024 13:14 20,1 °C 15,3 °C 57 % 57 % 1028,6 hPa 0,0 l/m² 1,2 km/h (1 Bft) W-SW 252 ° 1 min 744 W/m² 6,8 °C 15,3 °C 6,4 km/h (2 Bft)
29.09.2024 13:15 20,1 °C 15,2 °C 57 % 58 % 1028,6 hPa 0,0 l/m² 2,9 km/h (1 Bft) W-SW 254 ° 1 min 740 W/m² 7,0 °C 15,2 °C 4,8 km/h (1 Bft)
29.09.2024 13:16 20,1 °C 15,4 °C 57 % 61 % 1028,6 hPa 0,0 l/m² 3,9 km/h (1 Bft) W-NW 298 ° 1 min 729 W/m² 7,9 °C 15,4 °C 12,9 km/h (3 Bft)
29.09.2024 13:17 20,1 °C 15,7 °C 57 % 59 % 1028,6 hPa 0,0 l/m² 7,3 km/h (2 Bft) NW 322 ° 1 min 721 W/m² 7,7 °C 15,2 °C 11,3 km/h (2 Bft)
29.09.2024 13:18 20,1 °C 15,8 °C 57 % 60 % 1028,5 hPa 0,0 l/m² 6,2 km/h (2 Bft) W 275 ° 1 min 710 W/m² 8,1 °C 15,8 °C 12,9 km/h (3 Bft)
29.09.2024 13:19 20,1 °C 15,8 °C 57 % 59 % 1028,6 hPa 0,0 l/m² 5,6 km/h (2 Bft) NW 315 ° 1 min 696 W/m² 7,8 °C 15,8 °C 8,0 km/h (2 Bft)
29.09.2024 13:20 20,1 °C 15,8 °C 57 % 58 % 1028,6 hPa 0,0 l/m² 4,0 km/h (1 Bft) N 355 ° 1 min 691 W/m² 7,6 °C 15,8 °C 8,0 km/h (2 Bft)
29.09.2024 13:23 20,1 °C 15,8 °C 57 % 60 % 1028,5 hPa 0,0 l/m² 4,6 km/h (1 Bft) NW 321 ° 3 min 693 W/m² 8,1 °C 15,8 °C 8,0 km/h (2 Bft)
29.09.2024 13:24 20,1 °C 15,8 °C 57 % 58 % 1028,5 hPa 0,0 l/m² 4,4 km/h (1 Bft) NW 323 ° 1 min 700 W/m² 7,6 °C 15,8 °C 8,0 km/h (2 Bft)
29.09.2024 13:25 20,1 °C 15,9 °C 57 % 58 % 1028,5 hPa 0,0 l/m² 1,9 km/h (1 Bft) N-NO 12 ° 1 min 701 W/m² 7,6 °C 15,9 °C 4,8 km/h (1 Bft)
29.09.2024 13:26 20,1 °C 15,8 °C 57 % 58 % 1028,5 hPa 0,0 l/m² 0,2 km/h (0 Bft) N-NO 25 ° 1 min 700 W/m² 7,6 °C 15,8 °C 1,6 km/h (1 Bft)
29.09.2024 13:27 20,1 °C 15,6 °C 57 % 57 % 1028,5 hPa 0,0 l/m² 1,7 km/h (1 Bft) O-NO 71 ° 1 min 696 W/m² 7,1 °C 15,6 °C 3,2 km/h (1 Bft)
29.09.2024 13:28 20,1 °C 15,7 °C 57 % 60 % 1028,4 hPa 0,0 l/m² 1,7 km/h (1 Bft) W 271 ° 1 min 693 W/m² 8,0 °C 15,7 °C 3,2 km/h (1 Bft)
29.09.2024 13:29 20,1 °C 15,8 °C 57 % 58 % 1028,5 hPa 0,0 l/m² 3,8 km/h (1 Bft) N 5 ° 1 min 687 W/m² 7,6 °C 15,8 °C 12,9 km/h (3 Bft)
29.09.2024 13:30 20,1 °C 15,7 °C 57 % 55 % 1028,5 hPa 0,0 l/m² 7,9 km/h (2 Bft) N-NW 348 ° 1 min 684 W/m² 6,7 °C 14,9 °C 16,1 km/h (3 Bft)
29.09.2024 13:31 20,1 °C 15,5 °C 57 % 56 % 1028,5 hPa 0,0 l/m² 5,6 km/h (2 Bft) N-NO 15 ° 1 min 680 W/m² 6,8 °C 15,5 °C 9,7 km/h (2 Bft)
29.09.2024 13:32 20,1 °C 15,4 °C 57 % 58 % 1028,5 hPa 0,0 l/m² 6,4 km/h (2 Bft) N-NO 33 ° 1 min 687 W/m² 7,2 °C 15,4 °C 8,0 km/h (2 Bft)
29.09.2024 13:33 20,1 °C 15,4 °C 57 % 57 % 1028,4 hPa 0,0 l/m² 3,2 km/h (1 Bft) N-NW 337 ° 1 min 599 W/m² 6,9 °C 15,4 °C 8,0 km/h (2 Bft)
29.09.2024 13:34 20,1 °C 15,3 °C 57 % 55 % 1028,4 hPa 0,0 l/m² 4,8 km/h (1 Bft) N 349 ° 1 min 689 W/m² 6,3 °C 15,3 °C 6,4 km/h (2 Bft)
29.09.2024 13:35 20,1 °C 15,1 °C 57 % 56 % 1028,4 hPa 0,0 l/m² 2,5 km/h (1 Bft) N-NO 13 ° 1 min 701 W/m² 6,4 °C 15,1 °C 4,8 km/h (1 Bft)
29.09.2024 13:36 20,1 °C 15,1 °C 57 % 57 % 1028,3 hPa 0,0 l/m² 2,4 km/h (1 Bft) O-NO 67 ° 1 min 701 W/m² 6,6 °C 15,1 °C 4,8 km/h (1 Bft)
29.09.2024 13:37 20,1 °C 15,3 °C 57 % 59 % 1028,4 hPa 0,0 l/m² 3,2 km/h (1 Bft) O-NO 67 ° 1 min 710 W/m² 7,3 °C 15,3 °C 6,4 km/h (2 Bft)
29.09.2024 13:38 20,1 °C 15,3 °C 57 % 56 % 1028,4 hPa 0,0 l/m² 3,9 km/h (1 Bft) O-SO 102 ° 1 min 714 W/m² 6,6 °C 15,3 °C 6,4 km/h (2 Bft)
29.09.2024 13:39 20,1 °C 15,2 °C 57 % 55 % 1028,4 hPa 0,0 l/m² 3,5 km/h (1 Bft) O-SO 102 ° 1 min 721 W/m² 6,2 °C 15,2 °C 4,8 km/h (1 Bft)
29.09.2024 13:40 20,1 °C 15,2 °C 57 % 56 % 1028,3 hPa 0,0 l/m² 2,3 km/h (1 Bft) O 98 ° 1 min 728 W/m² 6,5 °C 15,2 °C 4,8 km/h (1 Bft)
29.09.2024 13:41 20,1 °C 15,3 °C 57 % 57 % 1028,3 hPa 0,0 l/m² 1,4 km/h (1 Bft) O 99 ° 1 min 751 W/m² 6,8 °C 15,3 °C 3,2 km/h (1 Bft)
29.09.2024 13:42 20,1 °C 15,2 °C 57 % 58 % 1028,3 hPa 0,0 l/m² 1,8 km/h (1 Bft) S 186 ° 1 min 766 W/m² 7,0 °C 15,2 °C 3,2 km/h (1 Bft)
29.09.2024 13:43 20,1 °C 15,1 °C 57 % 55 % 1028,3 hPa 0,0 l/m² 0,3 km/h (0 Bft) S 186 ° 1 min 786 W/m² 6,1 °C 15,1 °C 1,6 km/h (1 Bft)
29.09.2024 13:44 20,1 °C 15,2 °C 57 % 57 % 1028,4 hPa 0,0 l/m² 4,8 km/h (1 Bft) W 271 ° 1 min 584 W/m² 6,7 °C 15,2 °C 6,4 km/h (2 Bft)
29.09.2024 13:45 20,1 °C 15,3 °C 57 % 58 % 1028,4 hPa 0,0 l/m² 1,5 km/h (1 Bft) W 278 ° 1 min 584 W/m² 7,1 °C 15,3 °C 4,8 km/h (1 Bft)
29.09.2024 13:46 20,1 °C 15,6 °C 57 % 58 % 1028,3 hPa 0,0 l/m² 5,3 km/h (1 Bft) W 281 ° 1 min 583 W/m² 7,4 °C 15,6 °C 11,3 km/h (2 Bft)
29.09.2024 13:47 20,1 °C 15,8 °C 57 % 57 % 1028,4 hPa 0,0 l/m² 4,7 km/h (1 Bft) W 269 ° 1 min 583 W/m² 7,3 °C 15,8 °C 8,0 km/h (2 Bft)
29.09.2024 13:48 20,1 °C 15,9 °C 57 % 57 % 1028,3 hPa 0,0 l/m² 5,9 km/h (2 Bft) W 279 ° 1 min 582 W/m² 7,4 °C 15,9 °C 11,3 km/h (2 Bft)
29.09.2024 13:49 20,1 °C 15,9 °C 57 % 56 % 1028,3 hPa 0,0 l/m² 5,0 km/h (1 Bft) W 273 ° 1 min 582 W/m² 7,1 °C 15,9 °C 8,0 km/h (2 Bft)
29.09.2024 13:50 20,1 °C 15,9 °C 57 % 55 % 1028,3 hPa 0,0 l/m² 4,1 km/h (1 Bft) W 271 ° 1 min 581 W/m² 6,9 °C 15,9 °C 6,4 km/h (2 Bft)
29.09.2024 13:51 20,1 °C 15,9 °C 57 % 55 % 1028,4 hPa 0,0 l/m² 1,4 km/h (1 Bft) W 271 ° 1 min 779 W/m² 6,9 °C 15,9 °C 3,2 km/h (1 Bft)
29.09.2024 13:52 20,1 °C 15,9 °C 57 % 56 % 1028,4 hPa 0,0 l/m² 0,2 km/h (0 Bft) W 271 ° 1 min 580 W/m² 7,1 °C 15,9 °C 1,6 km/h (1 Bft)
29.09.2024 13:53 20,1 °C 16,1 °C 57 % 58 % 1028,3 hPa 0,0 l/m² 1,3 km/h (1 Bft) W 267 ° 1 min 579 W/m² 7,8 °C 16,1 °C 3,2 km/h (1 Bft)
29.09.2024 13:54 20,1 °C 16,2 °C 57 % 56 % 1028,4 hPa 0,0 l/m² 3,8 km/h (1 Bft) W-NW 295 ° 1 min 579 W/m² 7,4 °C 16,2 °C 11,3 km/h (2 Bft)
29.09.2024 13:55 20,1 °C 16,3 °C 57 % 56 % 1028,3 hPa 0,0 l/m² 5,0 km/h (1 Bft) W 270 ° 1 min 578 W/m² 7,5 °C 16,3 °C 11,3 km/h (2 Bft)
29.09.2024 13:56 20,1 °C 16,4 °C 57 % 56 % 1028,3 hPa 0,0 l/m² 4,0 km/h (1 Bft) W-SW 254 ° 1 min 577 W/m² 7,6 °C 16,4 °C 8,0 km/h (2 Bft)
29.09.2024 13:57 20,1 °C 16,4 °C 57 % 54 % 1028,3 hPa 0,0 l/m² 5,2 km/h (1 Bft) W-SW 248 ° 1 min 329 W/m² 7,1 °C 16,4 °C 11,3 km/h (2 Bft)
29.09.2024 13:58 20,1 °C 16,2 °C 57 % 54 % 1028,4 hPa 0,0 l/m² 4,9 km/h (1 Bft) W 268 ° 1 min 301 W/m² 6,9 °C 16,2 °C 8,0 km/h (2 Bft)
29.09.2024 13:59 20,2 °C 15,9 °C 57 % 54 % 1028,3 hPa 0,0 l/m² 4,0 km/h (1 Bft) W-SW 257 ° 1 min 301 W/m² 6,6 °C 15,9 °C 6,4 km/h (2 Bft)
29.09.2024 14:00 20,2 °C 15,7 °C 57 % 56 % 1028,3 hPa 0,0 l/m² 3,6 km/h (1 Bft) W-SW 252 ° 1 min 494 W/m² 6,9 °C 15,7 °C 6,4 km/h (2 Bft)
29.09.2024 14:01 20,2 °C 15,4 °C 57 % 55 % 1028,3 hPa 0,0 l/m² 4,0 km/h (1 Bft) SW 223 ° 1 min 494 W/m² 6,4 °C 15,4 °C 6,4 km/h (2 Bft)
29.09.2024 14:02 20,1 °C 15,3 °C 57 % 55 % 1028,2 hPa 0,0 l/m² 6,9 km/h (2 Bft) W-SW 238 ° 1 min 573 W/m² 6,3 °C 15,0 °C 9,7 km/h (2 Bft)
29.09.2024 14:03 20,1 °C 15,3 °C 57 % 58 % 1028,3 hPa 0,0 l/m² 6,7 km/h (2 Bft) W-SW 248 ° 1 min 573 W/m² 7,1 °C 15,1 °C 8,0 km/h (2 Bft)
29.09.2024 14:04 20,1 °C 15,4 °C 57 % 58 % 1028,3 hPa 0,0 l/m² 5,6 km/h (2 Bft) W-NW 291 ° 1 min 572 W/m² 7,2 °C 15,4 °C 8,0 km/h (2 Bft)
29.09.2024 14:05 20,1 °C 15,7 °C 57 % 57 % 1028,3 hPa 0,0 l/m² 0,9 km/h (0 Bft) W-NW 289 ° 1 min 571 W/m² 7,2 °C 15,7 °C 4,8 km/h (1 Bft)
29.09.2024 14:06 20,2 °C 15,8 °C 57 % 56 % 1028,2 hPa 0,0 l/m² 1,9 km/h (1 Bft) W 259 ° 1 min 577 W/m² 7,0 °C 15,8 °C 6,4 km/h (2 Bft)
29.09.2024 14:07 20,2 °C 15,8 °C 57 % 56 % 1028,3 hPa 0,0 l/m² 6,4 km/h (2 Bft) W 261 ° 1 min 577 W/m² 7,0 °C 15,8 °C 12,9 km/h (3 Bft)
29.09.2024 14:08 20,1 °C 15,7 °C 57 % 55 % 1028,3 hPa 0,0 l/m² 2,7 km/h (1 Bft) W-SW 244 ° 1 min 244 W/m² 6,7 °C 15,7 °C 8,0 km/h (2 Bft)
29.09.2024 14:09 20,1 °C 15,5 °C 57 % 56 % 1028,3 hPa 0,0 l/m² 6,3 km/h (2 Bft) SW 236 ° 1 min 237 W/m² 6,8 °C 15,5 °C 8,0 km/h (2 Bft)
29.09.2024 14:10 20,1 °C 15,3 °C 57 % 57 % 1028,2 hPa 0,0 l/m² 5,1 km/h (1 Bft) W-SW 253 ° 1 min 236 W/m² 6,8 °C 15,3 °C 8,0 km/h (2 Bft)
29.09.2024 14:11 20,1 °C 15,2 °C 57 % 56 % 1028,3 hPa 0,0 l/m² 8,2 km/h (2 Bft) W-SW 254 ° 1 min 223 W/m² 6,5 °C 14,2 °C 11,3 km/h (2 Bft)
29.09.2024 14:12 20,1 °C 15,1 °C 57 % 57 % 1028,3 hPa 0,0 l/m² 6,6 km/h (2 Bft) W 273 ° 1 min 218 W/m² 6,6 °C 15,0 °C 8,0 km/h (2 Bft)
29.09.2024 14:13 20,2 °C 14,9 °C 57 % 55 % 1028,3 hPa 0,0 l/m² 4,4 km/h (1 Bft) W 271 ° 1 min 216 W/m² 5,9 °C 14,9 °C 6,4 km/h (2 Bft)
29.09.2024 14:14 20,1 °C 14,8 °C 57 % 56 % 1028,2 hPa 0,0 l/m² 5,1 km/h (1 Bft) W 271 ° 1 min 220 W/m² 6,1 °C 14,8 °C 6,4 km/h (2 Bft)
29.09.2024 14:15 20,2 °C 14,7 °C 57 % 57 % 1028,2 hPa 0,0 l/m² 5,8 km/h (2 Bft) W-SW 250 ° 1 min 227 W/m² 6,3 °C 14,7 °C 11,3 km/h (2 Bft)
29.09.2024 14:16 20,1 °C 14,7 °C 57 % 57 % 1028,2 hPa 0,0 l/m² 6,7 km/h (2 Bft) W-SW 246 ° 1 min 237 W/m² 6,3 °C 14,5 °C 8,0 km/h (2 Bft)
29.09.2024 14:17 20,1 °C 14,6 °C 57 % 57 % 1028,2 hPa 0,0 l/m² 5,1 km/h (1 Bft) SW 225 ° 1 min 253 W/m² 6,2 °C 14,6 °C 8,0 km/h (2 Bft)
29.09.2024 14:18 20,1 °C 14,6 °C 57 % 57 % 1028,2 hPa 0,0 l/m² 6,2 km/h (2 Bft) W-SW 244 ° 1 min 260 W/m² 6,2 °C 14,6 °C 8,0 km/h (2 Bft)
29.09.2024 14:19 20,1 °C 14,6 °C 57 % 57 % 1028,2 hPa 0,0 l/m² 5,7 km/h (2 Bft) SW 232 ° 1 min 265 W/m² 6,2 °C 14,6 °C 8,0 km/h (2 Bft)
29.09.2024 14:20 20,1 °C 14,5 °C 57 % 58 % 1028,2 hPa 0,0 l/m² 4,2 km/h (1 Bft) SW 232 ° 1 min 269 W/m² 6,3 °C 14,5 °C 4,8 km/h (1 Bft)
29.09.2024 14:21 20,1 °C 14,4 °C 57 % 59 % 1028,1 hPa 0,0 l/m² 5,3 km/h (1 Bft) S-SW 213 ° 1 min 272 W/m² 6,5 °C 14,4 °C 9,7 km/h (2 Bft)
29.09.2024 14:23 20,1 °C 14,6 °C 57 % 58 % 1028,1 hPa 0,0 l/m² 6,9 km/h (2 Bft) SW 219 ° 2 min 299 W/m² 6,4 °C 14,3 °C 9,7 km/h (2 Bft)
29.09.2024 14:24 20,1 °C 14,5 °C 57 % 57 % 1028,0 hPa 0,0 l/m² 6,9 km/h (2 Bft) S-SW 212 ° 1 min 320 W/m² 6,1 °C 14,2 °C 8,0 km/h (2 Bft)
29.09.2024 14:25 20,1 °C 14,5 °C 57 % 57 % 1028,0 hPa 0,0 l/m² 7,2 km/h (2 Bft) SW 219 ° 1 min 320 W/m² 6,1 °C 14,0 °C 8,0 km/h (2 Bft)
29.09.2024 14:26 20,1 °C 14,6 °C 57 % 58 % 1028,0 hPa 0,0 l/m² 7,6 km/h (2 Bft) S-SW 198 ° 1 min 320 W/m² 6,4 °C 13,9 °C 8,0 km/h (2 Bft)
29.09.2024 14:27 20,1 °C 14,6 °C 57 % 56 % 1028,1 hPa 0,0 l/m² 7,2 km/h (2 Bft) S-SW 202 ° 1 min 552 W/m² 5,9 °C 14,1 °C 9,7 km/h (2 Bft)
29.09.2024 14:28 20,1 °C 14,7 °C 57 % 58 % 1028,1 hPa 0,0 l/m² 6,7 km/h (2 Bft) S-SW 200 ° 1 min 551 W/m² 6,5 °C 14,5 °C 9,7 km/h (2 Bft)
29.09.2024 14:29 20,1 °C 14,8 °C 57 % 59 % 1028,2 hPa 0,0 l/m² 5,9 km/h (2 Bft) S-SW 202 ° 1 min 550 W/m² 6,9 °C 14,8 °C 6,4 km/h (2 Bft)
29.09.2024 14:30 20,1 °C 14,9 °C 57 % 58 % 1028,1 hPa 0,0 l/m² 4,6 km/h (1 Bft) S-SW 207 ° 1 min 549 W/m² 6,7 °C 14,9 °C 6,4 km/h (2 Bft)
29.09.2024 14:31 20,1 °C 15,1 °C 57 % 58 % 1028,2 hPa 0,0 l/m² 5,2 km/h (1 Bft) SW 217 ° 1 min 548 W/m² 6,9 °C 15,1 °C 6,4 km/h (2 Bft)
29.09.2024 14:32 20,1 °C 15,3 °C 57 % 58 % 1028,2 hPa 0,0 l/m² 4,1 km/h (1 Bft) W 281 ° 1 min 547 W/m² 7,1 °C 15,3 °C 9,7 km/h (2 Bft)
29.09.2024 14:33 20,1 °C 15,5 °C 57 % 57 % 1028,1 hPa 0,0 l/m² 3,5 km/h (1 Bft) W-SW 258 ° 1 min 752 W/m² 7,0 °C 15,5 °C 6,4 km/h (2 Bft)
29.09.2024 14:34 20,1 °C 15,6 °C 57 % 57 % 1028,1 hPa 0,0 l/m² 5,2 km/h (1 Bft) W 261 ° 1 min 752 W/m² 7,1 °C 15,6 °C 9,7 km/h (2 Bft)
29.09.2024 14:35 20,2 °C 15,6 °C 57 % 57 % 1028,1 hPa 0,0 l/m² 4,7 km/h (1 Bft) W-SW 258 ° 1 min 221 W/m² 7,1 °C 15,6 °C 9,7 km/h (2 Bft)
29.09.2024 14:36 20,1 °C 15,4 °C 57 % 57 % 1028,2 hPa 0,0 l/m² 2,7 km/h (1 Bft) W 275 ° 1 min 213 W/m² 6,9 °C 15,4 °C 4,8 km/h (1 Bft)
29.09.2024 14:37 20,2 °C 15,3 °C 57 % 59 % 1028,1 hPa 0,0 l/m² 5,0 km/h (1 Bft) N 350 ° 1 min 204 W/m² 7,3 °C 15,3 °C 6,4 km/h (2 Bft)
29.09.2024 14:38 20,1 °C 15,1 °C 57 % 58 % 1028,1 hPa 0,0 l/m² 3,9 km/h (1 Bft) N-NW 340 ° 1 min 197 W/m² 6,9 °C 15,1 °C 6,4 km/h (2 Bft)
29.09.2024 14:39 20,1 °C 14,9 °C 57 % 59 % 1028,1 hPa 0,0 l/m² 6,2 km/h (2 Bft) N-NW 327 ° 1 min 190 W/m² 7,0 °C 14,9 °C 8,0 km/h (2 Bft)
29.09.2024 14:40 20,1 °C 14,8 °C 57 % 59 % 1028,2 hPa 0,0 l/m² 5,6 km/h (2 Bft) N-NW 333 ° 1 min 186 W/m² 6,9 °C 14,8 °C 6,4 km/h (2 Bft)
29.09.2024 14:41 20,1 °C 14,7 °C 57 % 58 % 1028,2 hPa 0,0 l/m² 3,6 km/h (1 Bft) N-NW 340 ° 1 min 176 W/m² 6,5 °C 14,7 °C 6,4 km/h (2 Bft)
29.09.2024 14:42 20,1 °C 14,6 °C 57 % 58 % 1028,2 hPa 0,0 l/m² 5,1 km/h (1 Bft) N 349 ° 1 min 171 W/m² 6,4 °C 14,6 °C 6,4 km/h (2 Bft)
29.09.2024 14:43 20,2 °C 14,4 °C 57 % 58 % 1028,2 hPa 0,0 l/m² 3,6 km/h (1 Bft) N-NO 18 ° 1 min 167 W/m² 6,2 °C 14,4 °C 6,4 km/h (2 Bft)
29.09.2024 14:44 20,1 °C 14,4 °C 57 % 59 % 1028,2 hPa 0,0 l/m² 3,0 km/h (1 Bft) N-NW 342 ° 1 min 167 W/m² 6,5 °C 14,4 °C 6,4 km/h (2 Bft)
29.09.2024 14:45 20,2 °C 14,3 °C 57 % 60 % 1028,2 hPa 0,0 l/m² 5,2 km/h (1 Bft) N-NW 336 ° 1 min 167 W/m² 6,6 °C 14,3 °C 9,7 km/h (2 Bft)
29.09.2024 14:46 20,1 °C 14,3 °C 57 % 60 % 1028,3 hPa 0,0 l/m² 3,6 km/h (1 Bft) N-NO 13 ° 1 min 167 W/m² 6,6 °C 14,3 °C 6,4 km/h (2 Bft)
29.09.2024 14:47 20,1 °C 14,3 °C 57 % 60 % 1028,3 hPa 0,0 l/m² 5,8 km/h (2 Bft) N 5 ° 1 min 167 W/m² 6,6 °C 14,3 °C 8,0 km/h (2 Bft)
29.09.2024 14:48 20,1 °C 14,3 °C 57 % 59 % 1028,2 hPa 0,0 l/m² 5,3 km/h (1 Bft) N-NO 17 ° 1 min 169 W/m² 6,4 °C 14,3 °C 8,0 km/h (2 Bft)
29.09.2024 14:49 20,1 °C 14,2 °C 57 % 59 % 1028,2 hPa 0,0 l/m² 6,0 km/h (2 Bft) N 355 ° 1 min 169 W/m² 6,3 °C 14,2 °C 9,7 km/h (2 Bft)
29.09.2024 14:50 20,1 °C 14,3 °C 57 % 60 % 1028,2 hPa 0,0 l/m² 6,2 km/h (2 Bft) N-NW 344 ° 1 min 171 W/m² 6,6 °C 14,3 °C 9,7 km/h (2 Bft)
29.09.2024 14:51 20,1 °C 14,2 °C 57 % 60 % 1028,3 hPa 0,0 l/m² 4,1 km/h (1 Bft) N-NW 347 ° 1 min 172 W/m² 6,5 °C 14,2 °C 6,4 km/h (2 Bft)
29.09.2024 14:52 20,1 °C 14,2 °C 57 % 60 % 1028,2 hPa 0,0 l/m² 3,1 km/h (1 Bft) N 360 ° 1 min 176 W/m² 6,5 °C 14,2 °C 6,4 km/h (2 Bft)
29.09.2024 14:53 20,1 °C 14,3 °C 57 % 61 % 1028,2 hPa 0,0 l/m² 2,1 km/h (1 Bft) N 9 ° 1 min 185 W/m² 6,9 °C 14,3 °C 3,2 km/h (1 Bft)
29.09.2024 14:54 20,1 °C 14,3 °C 57 % 61 % 1028,2 hPa 0,0 l/m² 5,1 km/h (1 Bft) N-NW 335 ° 1 min 188 W/m² 6,9 °C 14,3 °C 8,0 km/h (2 Bft)
29.09.2024 14:55 20,2 °C 14,3 °C 57 % 60 % 1028,2 hPa 0,0 l/m² 6,0 km/h (2 Bft) N-NW 327 ° 1 min 192 W/m² 6,6 °C 14,3 °C 9,7 km/h (2 Bft)
29.09.2024 14:56 20,1 °C 14,3 °C 57 % 59 % 1028,2 hPa 0,0 l/m² 5,6 km/h (2 Bft) N 355 ° 1 min 195 W/m² 6,4 °C 14,3 °C 11,3 km/h (2 Bft)
29.09.2024 14:57 20,1 °C 14,3 °C 57 % 60 % 1028,2 hPa 0,0 l/m² 5,7 km/h (2 Bft) N 355 ° 1 min 197 W/m² 6,6 °C 14,3 °C 6,4 km/h (2 Bft)
29.09.2024 14:58 20,1 °C 14,3 °C 57 % 60 % 1028,2 hPa 0,0 l/m² 4,7 km/h (1 Bft) N-NW 345 ° 1 min 200 W/m² 6,6 °C 14,3 °C 6,4 km/h (2 Bft)
29.09.2024 14:59 20,1 °C 14,3 °C 57 % 60 % 1028,2 hPa 0,0 l/m² 6,6 km/h (2 Bft) N-NW 344 ° 1 min 200 W/m² 6,6 °C 14,2 °C 9,7 km/h (2 Bft)
29.09.2024 15:00 20,1 °C 14,3 °C 57 % 60 % 1028,2 hPa 0,0 l/m² 5,2 km/h (1 Bft) N-NW 338 ° 1 min 200 W/m² 6,6 °C 14,3 °C 8,0 km/h (2 Bft)
29.09.2024 15:01 20,2 °C 14,4 °C 57 % 62 % 1028,2 hPa 0,0 l/m² 5,3 km/h (1 Bft) NW 305 ° 1 min 200 W/m² 7,2 °C 14,4 °C 8,0 km/h (2 Bft)
29.09.2024 15:02 20,2 °C 14,5 °C 57 % 61 % 1028,2 hPa 0,0 l/m² 4,4 km/h (1 Bft) W-NW 302 ° 1 min 200 W/m² 7,1 °C 14,5 °C 8,0 km/h (2 Bft)
29.09.2024 15:03 20,2 °C 14,5 °C 57 % 60 % 1028,2 hPa 0,0 l/m² 3,1 km/h (1 Bft) NW 315 ° 1 min 202 W/m² 6,8 °C 14,5 °C 6,4 km/h (2 Bft)
29.09.2024 15:04 20,1 °C 14,6 °C 57 % 60 % 1028,1 hPa 0,0 l/m² 5,2 km/h (1 Bft) NW 322 ° 1 min 206 W/m² 6,9 °C 14,6 °C 8,0 km/h (2 Bft)
29.09.2024 15:05 20,1 °C 14,6 °C 57 % 60 % 1028,2 hPa 0,0 l/m² 4,4 km/h (1 Bft) NW 326 ° 1 min 206 W/m² 6,9 °C 14,6 °C 6,4 km/h (2 Bft)
29.09.2024 15:06 20,2 °C 14,6 °C 57 % 59 % 1028,1 hPa 0,0 l/m² 5,2 km/h (1 Bft) NW 324 ° 1 min 207 W/m² 6,7 °C 14,6 °C 6,4 km/h (2 Bft)
29.09.2024 15:07 20,1 °C 14,4 °C 57 % 59 % 1028,1 hPa 0,0 l/m² 2,1 km/h (1 Bft) NW 324 ° 1 min 207 W/m² 6,5 °C 14,4 °C 4,8 km/h (1 Bft)
29.09.2024 15:08 20,2 °C 14,4 °C 57 % 60 % 1028,1 hPa 0,0 l/m² 0,7 km/h (0 Bft) N-NW 327 ° 1 min 207 W/m² 6,7 °C 14,4 °C 3,2 km/h (1 Bft)
29.09.2024 15:09 20,2 °C 14,3 °C 57 % 59 % 1028,1 hPa 0,0 l/m² 0,1 km/h (0 Bft) N-NW 327 ° 1 min 206 W/m² 6,4 °C 14,3 °C 1,6 km/h (1 Bft)
29.09.2024 15:11 20,1 °C 14,2 °C 57 % 58 % 1028,1 hPa 0,0 l/m² 1,3 km/h (1 Bft) NW 324 ° 2 min 204 W/m² 6,1 °C 14,2 °C 3,2 km/h (1 Bft)
29.09.2024 15:12 20,1 °C 14,2 °C 57 % 59 % 1028,1 hPa 0,0 l/m² 0,1 km/h (0 Bft) NW 324 ° 1 min 202 W/m² 6,3 °C 14,2 °C 1,6 km/h (1 Bft)
29.09.2024 15:13 20,1 °C 14,3 °C 57 % 61 % 1028,1 hPa 0,0 l/m² 0,0 km/h (0 Bft) N-NW 327 ° 1 min 204 W/m² 6,9 °C 14,3 °C 0,0 km/h (0 Bft)
29.09.2024 15:14 20,1 °C 14,4 °C 57 % 60 % 1028,1 hPa 0,0 l/m² 1,1 km/h (1 Bft) N 355 ° 1 min 206 W/m² 6,7 °C 14,4 °C 3,2 km/h (1 Bft)
29.09.2024 15:15 20,2 °C 14,4 °C 57 % 61 % 1028,1 hPa 0,0 l/m² 1,4 km/h (1 Bft) W 271 ° 1 min 209 W/m² 7,0 °C 14,4 °C 3,2 km/h (1 Bft)
29.09.2024 15:16 20,2 °C 14,5 °C 57 % 61 % 1028,1 hPa 0,0 l/m² 2,0 km/h (1 Bft) W-SW 238 ° 1 min 213 W/m² 7,1 °C 14,5 °C 4,8 km/h (1 Bft)
29.09.2024 15:17 20,1 °C 14,6 °C 57 % 61 % 1028,0 hPa 0,0 l/m² 0,1 km/h (0 Bft) W-SW 242 ° 1 min 218 W/m² 7,2 °C 14,6 °C 1,6 km/h (1 Bft)
29.09.2024 15:18 20,2 °C 14,6 °C 57 % 60 % 1028,2 hPa 0,0 l/m² 1,7 km/h (1 Bft) W-SW 258 ° 1 min 230 W/m² 6,9 °C 14,6 °C 3,2 km/h (1 Bft)
29.09.2024 15:19 20,2 °C 14,6 °C 57 % 59 % 1028,1 hPa 0,0 l/m² 1,5 km/h (1 Bft) W-SW 258 ° 1 min 272 W/m² 6,7 °C 14,6 °C 4,8 km/h (1 Bft)
29.09.2024 15:20 20,2 °C 14,7 °C 57 % 61 % 1028,0 hPa 0,0 l/m² 3,6 km/h (1 Bft) W 259 ° 1 min 272 W/m² 7,3 °C 14,7 °C 9,7 km/h (2 Bft)
29.09.2024 15:21 20,1 °C 14,8 °C 57 % 59 % 1028,0 hPa 0,0 l/m² 8,4 km/h (2 Bft) N-NW 337 ° 1 min 624 W/m² 6,9 °C 13,7 °C 11,3 km/h (2 Bft)
29.09.2024 15:22 20,2 °C 15,1 °C 57 % 60 % 1028,0 hPa 0,0 l/m² 7,1 km/h (2 Bft) N-NW 327 ° 1 min 589 W/m² 7,4 °C 14,7 °C 12,9 km/h (3 Bft)
29.09.2024 15:23 20,1 °C 15,2 °C 57 % 60 % 1028,1 hPa 0,0 l/m² 6,6 km/h (2 Bft) NW 319 ° 1 min 512 W/m² 7,5 °C 15,1 °C 9,7 km/h (2 Bft)
29.09.2024 15:24 20,1 °C 15,1 °C 57 % 58 % 1028,0 hPa 0,0 l/m² 5,0 km/h (1 Bft) N-NW 342 ° 1 min 512 W/m² 6,9 °C 15,1 °C 8,0 km/h (2 Bft)
29.09.2024 15:25 20,2 °C 14,9 °C 57 % 57 % 1028,0 hPa 0,0 l/m² 1,0 km/h (0 Bft) N-NW 342 ° 1 min 220 W/m² 6,5 °C 14,9 °C 3,2 km/h (1 Bft)
29.09.2024 15:26 20,2 °C 14,8 °C 57 % 59 % 1028,0 hPa 0,0 l/m² 1,9 km/h (1 Bft) NW 315 ° 1 min 213 W/m² 6,9 °C 14,8 °C 3,2 km/h (1 Bft)
29.09.2024 15:27 20,1 °C 14,8 °C 57 % 60 % 1027,9 hPa 0,0 l/m² 3,0 km/h (1 Bft) W-NW 282 ° 1 min 214 W/m² 7,1 °C 14,8 °C 4,8 km/h (1 Bft)
29.09.2024 15:28 20,1 °C 14,8 °C 57 % 60 % 1028,0 hPa 0,0 l/m² 4,8 km/h (1 Bft) NW 307 ° 1 min 232 W/m² 7,1 °C 14,8 °C 6,4 km/h (2 Bft)
29.09.2024 15:29 20,2 °C 14,8 °C 57 % 60 % 1028,0 hPa 0,0 l/m² 3,2 km/h (1 Bft) N-NW 338 ° 1 min 232 W/m² 7,1 °C 14,8 °C 8,0 km/h (2 Bft)
29.09.2024 15:30 20,1 °C 14,9 °C 57 % 60 % 1027,9 hPa 0,0 l/m² 3,0 km/h (1 Bft) N-NW 346 ° 1 min 232 W/m² 7,2 °C 14,9 °C 4,8 km/h (1 Bft)
29.09.2024 15:32 20,2 °C 14,8 °C 57 % 58 % 1028,0 hPa 0,0 l/m² 0,6 km/h (0 Bft) N-NW 346 ° 2 min 381 W/m² 6,6 °C 14,8 °C 3,2 km/h (1 Bft)
29.09.2024 15:33 20,2 °C 14,8 °C 57 % 61 % 1028,0 hPa 0,0 l/m² 0,5 km/h (0 Bft) N 5 ° 1 min 297 W/m² 7,4 °C 14,8 °C 3,2 km/h (1 Bft)
29.09.2024 15:34 20,2 °C 14,8 °C 57 % 59 % 1027,9 hPa 0,0 l/m² 0,5 km/h (0 Bft) N 5 ° 1 min 183 W/m² 6,9 °C 14,8 °C 3,2 km/h (1 Bft)
29.09.2024 15:35 20,2 °C 14,8 °C 57 % 61 % 1027,9 hPa 0,0 l/m² 1,3 km/h (1 Bft) NO 40 ° 1 min 178 W/m² 7,4 °C 14,8 °C 4,8 km/h (1 Bft)
29.09.2024 15:36 20,2 °C 14,8 °C 57 % 60 % 1028,0 hPa 0,0 l/m² 0,3 km/h (0 Bft) NO 40 ° 1 min 169 W/m² 7,1 °C 14,8 °C 3,2 km/h (1 Bft)
29.09.2024 15:37 20,1 °C 14,7 °C 57 % 59 % 1027,9 hPa 0,0 l/m² 3,0 km/h (1 Bft) N-NW 340 ° 1 min 165 W/m² 6,8 °C 14,7 °C 6,4 km/h (2 Bft)
29.09.2024 15:38 20,2 °C 14,6 °C 57 % 59 % 1027,9 hPa 0,0 l/m² 3,2 km/h (1 Bft) N-NW 334 ° 1 min 171 W/m² 6,7 °C 14,6 °C 4,8 km/h (1 Bft)
29.09.2024 15:39 20,2 °C 14,6 °C 57 % 59 % 1027,9 hPa 0,0 l/m² 0,3 km/h (0 Bft) N-NW 334 ° 1 min 195 W/m² 6,7 °C 14,6 °C 1,6 km/h (1 Bft)
29.09.2024 15:40 20,1 °C 14,6 °C 57 % 59 % 1027,8 hPa 0,0 l/m² 0,0 km/h (0 Bft) N-NW 335 ° 1 min 207 W/m² 6,7 °C 14,6 °C 0,0 km/h (0 Bft)
29.09.2024 15:41 20,1 °C 14,4 °C 57 % 59 % 1027,8 hPa 0,0 l/m² 0,0 km/h (0 Bft) N-NW 336 ° 1 min 251 W/m² 6,5 °C 14,4 °C 0,0 km/h (0 Bft)
29.09.2024 15:42 20,2 °C 14,4 °C 57 % 59 % 1027,9 hPa 0,0 l/m² 0,0 km/h (0 Bft) N-NW 334 ° 1 min 316 W/m² 6,5 °C 14,4 °C 0,0 km/h (0 Bft)
29.09.2024 15:43 20,2 °C 14,6 °C 57 % 60 % 1027,8 hPa 0,0 l/m² 0,0 km/h (0 Bft) W 281 ° 1 min 403 W/m² 6,9 °C 14,6 °C 0,0 km/h (0 Bft)
29.09.2024 15:45 20,1 °C 14,9 °C 57 % 60 % 1027,8 hPa 0,0 l/m² 0,5 km/h (0 Bft) W 265 ° 2 min 466 W/m² 7,2 °C 14,9 °C 4,8 km/h (1 Bft)
29.09.2024 15:46 20,2 °C 14,9 °C 57 % 57 % 1027,9 hPa 0,0 l/m² 0,0 km/h (0 Bft) W 267 ° 1 min 466 W/m² 6,5 °C 14,9 °C 0,0 km/h (0 Bft)
29.09.2024 15:47 20,2 °C 14,9 °C 57 % 57 % 1027,8 hPa 0,0 l/m² 0,0 km/h (0 Bft) W 275 ° 1 min 466 W/m² 6,5 °C 14,9 °C 0,0 km/h (0 Bft)
29.09.2024 15:48 20,2 °C 14,9 °C 57 % 59 % 1027,8 hPa 0,0 l/m² 0,0 km/h (0 Bft) W 275 ° 1 min 466 W/m² 7,0 °C 14,9 °C 0,0 km/h (0 Bft)
29.09.2024 15:49 20,1 °C 14,9 °C 57 % 58 % 1027,7 hPa 0,0 l/m² 0,0 km/h (0 Bft) W 275 ° 1 min 207 W/m² 6,7 °C 14,9 °C 0,0 km/h (0 Bft)
29.09.2024 15:50 20,2 °C 14,8 °C 57 % 59 % 1027,7 hPa 0,0 l/m² 0,4 km/h (0 Bft) N-NO 17 ° 1 min 301 W/m² 6,9 °C 14,8 °C 3,2 km/h (1 Bft)
29.09.2024 15:51 20,1 °C 14,8 °C 57 % 58 % 1027,7 hPa 0,0 l/m² 0,5 km/h (0 Bft) N-NO 17 ° 1 min 496 W/m² 6,6 °C 14,8 °C 1,6 km/h (1 Bft)
29.09.2024 15:52 20,2 °C 14,9 °C 57 % 58 % 1027,8 hPa 0,0 l/m² 2,5 km/h (1 Bft) N-NO 27 ° 1 min 490 W/m² 6,7 °C 14,9 °C 4,8 km/h (1 Bft)
29.09.2024 15:53 20,1 °C 15,0 °C 57 % 58 % 1027,7 hPa 0,0 l/m² 1,9 km/h (1 Bft) N-NO 24 ° 1 min 480 W/m² 6,8 °C 15,0 °C 3,2 km/h (1 Bft)
29.09.2024 15:54 20,1 °C 15,1 °C 57 % 59 % 1027,7 hPa 0,0 l/m² 0,9 km/h (0 Bft) N-NO 19 ° 1 min 471 W/m² 7,1 °C 15,1 °C 3,2 km/h (1 Bft)
29.09.2024 15:55 20,1 °C 15,2 °C 57 % 59 % 1027,7 hPa 0,0 l/m² 0,8 km/h (0 Bft) N-NO 20 ° 1 min 457 W/m² 7,2 °C 15,2 °C 1,6 km/h (1 Bft)
29.09.2024 15:56 20,1 °C 15,3 °C 57 % 56 % 1027,6 hPa 0,0 l/m² 0,4 km/h (0 Bft) N-NO 22 ° 1 min 452 W/m² 6,6 °C 15,3 °C 1,6 km/h (1 Bft)
29.09.2024 15:57 20,2 °C 15,5 °C 57 % 58 % 1027,6 hPa 0,0 l/m² 0,0 km/h (0 Bft) N-NO 22 ° 1 min 454 W/m² 7,3 °C 15,5 °C 0,0 km/h (0 Bft)
29.09.2024 15:58 20,1 °C 15,4 °C 57 % 56 % 1027,7 hPa 0,0 l/m² 0,0 km/h (0 Bft) N-NO 27 ° 1 min 420 W/m² 6,7 °C 15,4 °C 0,0 km/h (0 Bft)
29.09.2024 15:59 20,2 °C 15,2 °C 57 % 55 % 1027,6 hPa 0,0 l/m² 0,6 km/h (0 Bft) O 80 ° 1 min 413 W/m² 6,2 °C 15,2 °C 3,2 km/h (1 Bft)
29.09.2024 16:00 20,2 °C 15,2 °C 57 % 56 % 1027,6 hPa 0,0 l/m² 2,9 km/h (1 Bft) O-SO 113 ° 1 min 394 W/m² 6,5 °C 15,2 °C 4,8 km/h (1 Bft)
29.09.2024 16:01 20,1 °C 15,1 °C 57 % 56 % 1027,7 hPa 0,0 l/m² 3,0 km/h (1 Bft) SO 146 ° 1 min 432 W/m² 6,4 °C 15,1 °C 6,4 km/h (2 Bft)
29.09.2024 16:02 20,2 °C 14,9 °C 57 % 58 % 1027,7 hPa 0,0 l/m² 0,0 km/h (0 Bft) SO 146 ° 1 min 466 W/m² 6,7 °C 14,9 °C 0,0 km/h (0 Bft)
29.09.2024 16:03 20,1 °C 14,9 °C 57 % 57 % 1027,6 hPa 0,0 l/m² 0,1 km/h (0 Bft) S-SO 147 ° 1 min 466 W/m² 6,5 °C 14,9 °C 1,6 km/h (1 Bft)
29.09.2024 16:04 20,1 °C 14,9 °C 57 % 58 % 1027,7 hPa 0,0 l/m² 1,7 km/h (1 Bft) O-SO 121 ° 1 min 464 W/m² 6,7 °C 14,9 °C 8,0 km/h (2 Bft)
29.09.2024 16:05 20,1 °C 14,9 °C 57 % 58 % 1027,7 hPa 0,0 l/m² 2,1 km/h (1 Bft) O-SO 121 ° 1 min 464 W/m² 6,7 °C 14,9 °C 3,2 km/h (1 Bft)
29.09.2024 16:06 20,1 °C 14,9 °C 57 % 58 % 1027,6 hPa 0,0 l/m² 0,5 km/h (0 Bft) O-SO 121 ° 1 min 464 W/m² 6,7 °C 14,9 °C 1,6 km/h (1 Bft)
29.09.2024 16:07 20,1 °C 15,1 °C 57 % 60 % 1027,7 hPa 0,0 l/m² 0,1 km/h (0 Bft) O-SO 121 ° 1 min 434 W/m² 7,4 °C 15,1 °C 1,6 km/h (1 Bft)
29.09.2024 16:08 20,1 °C 15,1 °C 57 % 58 % 1027,7 hPa 0,0 l/m² 0,0 km/h (0 Bft) O-SO 121 ° 1 min 410 W/m² 6,9 °C 15,1 °C 0,0 km/h (0 Bft)
29.09.2024 16:09 20,2 °C 15,1 °C 57 % 57 % 1027,7 hPa 0,0 l/m² 0,0 km/h (0 Bft) O-SO 121 ° 1 min 316 W/m² 6,6 °C 15,1 °C 0,0 km/h (0 Bft)
29.09.2024 16:10 20,2 °C 15,1 °C 57 % 59 % 1027,7 hPa 0,0 l/m² 0,4 km/h (0 Bft) S-SO 153 ° 1 min 229 W/m² 7,1 °C 15,1 °C 1,6 km/h (1 Bft)
29.09.2024 16:11 20,1 °C 15,1 °C 57 % 59 % 1027,7 hPa 0,0 l/m² 0,3 km/h (0 Bft) S-SW 194 ° 1 min 179 W/m² 7,1 °C 15,1 °C 3,2 km/h (1 Bft)
29.09.2024 16:12 20,1 °C 15,1 °C 57 % 58 % 1027,7 hPa 0,0 l/m² 3,9 km/h (1 Bft) S-SW 208 ° 1 min 193 W/m² 6,9 °C 15,1 °C 6,4 km/h (2 Bft)
29.09.2024 16:13 20,1 °C 14,9 °C 57 % 59 % 1027,7 hPa 0,0 l/m² 4,8 km/h (1 Bft) SW 224 ° 1 min 183 W/m² 7,0 °C 14,9 °C 6,4 km/h (2 Bft)
29.09.2024 16:14 20,1 °C 14,9 °C 57 % 58 % 1027,7 hPa 0,0 l/m² 0,8 km/h (0 Bft) SW 225 ° 1 min 211 W/m² 6,7 °C 14,9 °C 3,2 km/h (1 Bft)
29.09.2024 16:15 20,2 °C 14,8 °C 57 % 58 % 1027,6 hPa 0,0 l/m² 4,7 km/h (1 Bft) SW 225 ° 1 min 304 W/m² 6,6 °C 14,8 °C 6,4 km/h (2 Bft)
29.09.2024 16:16 20,2 °C 14,8 °C 57 % 57 % 1027,7 hPa 0,0 l/m² 5,4 km/h (2 Bft) SW 227 ° 1 min 318 W/m² 6,4 °C 14,8 °C 8,0 km/h (2 Bft)
29.09.2024 16:17 20,2 °C 14,8 °C 57 % 59 % 1027,6 hPa 0,0 l/m² 3,8 km/h (1 Bft) SW 225 ° 1 min 279 W/m² 6,9 °C 14,8 °C 6,4 km/h (2 Bft)
29.09.2024 16:18 20,2 °C 14,8 °C 57 % 58 % 1027,7 hPa 0,0 l/m² 5,6 km/h (2 Bft) SW 225 ° 1 min 279 W/m² 6,6 °C 14,8 °C 6,4 km/h (2 Bft)
29.09.2024 16:19 20,1 °C 14,8 °C 57 % 59 % 1027,6 hPa 0,0 l/m² 4,4 km/h (1 Bft) SW 225 ° 1 min 265 W/m² 6,9 °C 14,8 °C 6,4 km/h (2 Bft)
29.09.2024 16:20 20,2 °C 14,8 °C 57 % 59 % 1027,6 hPa 0,0 l/m² 5,2 km/h (1 Bft) SW 226 ° 1 min 390 W/m² 6,9 °C 14,8 °C 6,4 km/h (2 Bft)
29.09.2024 16:21 20,1 °C 14,8 °C 57 % 58 % 1027,6 hPa 0,0 l/m² 4,2 km/h (1 Bft) SW 226 ° 1 min 438 W/m² 6,6 °C 14,8 °C 6,4 km/h (2 Bft)
29.09.2024 16:22 20,2 °C 14,9 °C 57 % 61 % 1027,6 hPa 0,0 l/m² 5,4 km/h (2 Bft) SW 228 ° 1 min 438 W/m² 7,4 °C 14,9 °C 6,4 km/h (2 Bft)
29.09.2024 16:23 20,1 °C 14,9 °C 57 % 58 % 1027,5 hPa 0,0 l/m² 5,4 km/h (2 Bft) SW 227 ° 1 min 411 W/m² 6,7 °C 14,9 °C 6,4 km/h (2 Bft)
29.09.2024 16:24 20,2 °C 14,9 °C 57 % 59 % 1027,6 hPa 0,0 l/m² 4,8 km/h (1 Bft) SW 228 ° 1 min 411 W/m² 7,0 °C 14,9 °C 6,4 km/h (2 Bft)
29.09.2024 16:25 20,2 °C 15,0 °C 57 % 60 % 1027,6 hPa 0,0 l/m² 2,2 km/h (1 Bft) SW 228 ° 1 min 411 W/m² 7,3 °C 15,0 °C 3,2 km/h (1 Bft)
29.09.2024 16:26 20,2 °C 14,9 °C 57 % 58 % 1027,6 hPa 0,0 l/m² 2,6 km/h (1 Bft) SW 228 ° 1 min 155 W/m² 6,7 °C 14,9 °C 4,8 km/h (1 Bft)
29.09.2024 16:27 20,2 °C 14,9 °C 57 % 57 % 1027,6 hPa 0,0 l/m² 0,8 km/h (0 Bft) SW 228 ° 1 min 155 W/m² 6,5 °C 14,9 °C 3,2 km/h (1 Bft)
29.09.2024 16:28 20,2 °C 14,8 °C 57 % 58 % 1027,6 hPa 0,0 l/m² 0,0 km/h (0 Bft) SW 228 ° 1 min 132 W/m² 6,6 °C 14,8 °C 0,0 km/h (0 Bft)
29.09.2024 16:29 20,1 °C 14,8 °C 57 % 58 % 1027,6 hPa 0,0 l/m² 0,9 km/h (0 Bft) SW 228 ° 1 min 123 W/m² 6,6 °C 14,8 °C 3,2 km/h (1 Bft)
29.09.2024 16:30 20,1 °C 14,7 °C 57 % 58 % 1027,6 hPa 0,0 l/m² 0,4 km/h (0 Bft) SW 228 ° 1 min 120 W/m² 6,5 °C 14,7 °C 3,2 km/h (1 Bft)
29.09.2024 16:31 20,1 °C 14,5 °C 57 % 57 % 1027,6 hPa 0,0 l/m² 0,0 km/h (0 Bft) SW 228 ° 1 min 118 W/m² 6,1 °C 14,5 °C 0,0 km/h (0 Bft)
29.09.2024 16:32 20,1 °C 14,5 °C 57 % 59 % 1027,5 hPa 0,0 l/m² 0,1 km/h (0 Bft) SW 228 ° 1 min 123 W/m² 6,6 °C 14,5 °C 1,6 km/h (1 Bft)
29.09.2024 16:33 20,1 °C 14,5 °C 57 % 60 % 1027,5 hPa 0,0 l/m² 0,1 km/h (0 Bft) SW 228 ° 1 min 139 W/m² 6,8 °C 14,5 °C 1,6 km/h (1 Bft)
29.09.2024 16:34 20,1 °C 14,6 °C 57 % 59 % 1027,5 hPa 0,0 l/m² 0,8 km/h (0 Bft) SW 228 ° 1 min 139 W/m² 6,7 °C 14,6 °C 3,2 km/h (1 Bft)
29.09.2024 16:35 20,2 °C 14,5 °C 57 % 59 % 1027,5 hPa 0,0 l/m² 0,5 km/h (0 Bft) SW 228 ° 1 min 142 W/m² 6,6 °C 14,5 °C 1,6 km/h (1 Bft)
29.09.2024 16:36 20,2 °C 14,5 °C 57 % 60 % 1027,5 hPa 0,0 l/m² 0,0 km/h (0 Bft) SW 228 ° 1 min 146 W/m² 6,8 °C 14,5 °C 0,0 km/h (0 Bft)
29.09.2024 16:37 20,1 °C 14,5 °C 57 % 61 % 1027,5 hPa 0,0 l/m² 0,0 km/h (0 Bft) SW 228 ° 1 min 148 W/m² 7,1 °C 14,5 °C 0,0 km/h (0 Bft)
29.09.2024 16:38 20,2 °C 14,4 °C 57 % 60 % 1027,5 hPa 0,0 l/m² 0,0 km/h (0 Bft) SW 228 ° 1 min 165 W/m² 6,7 °C 14,4 °C 0,0 km/h (0 Bft)
29.09.2024 16:39 20,2 °C 14,4 °C 57 % 59 % 1027,5 hPa 0,0 l/m² 0,0 km/h (0 Bft) SW 228 ° 1 min 156 W/m² 6,5 °C 14,4 °C 0,0 km/h (0 Bft)
29.09.2024 16:40 20,2 °C 14,4 °C 57 % 59 % 1027,4 hPa 0,0 l/m² 0,0 km/h (0 Bft) SW 228 ° 1 min 146 W/m² 6,5 °C 14,4 °C 0,0 km/h (0 Bft)
29.09.2024 16:41 20,1 °C 14,4 °C 57 % 60 % 1027,5 hPa 0,0 l/m² 0,0 km/h (0 Bft) SW 228 ° 1 min 144 W/m² 6,7 °C 14,4 °C 0,0 km/h (0 Bft)
29.09.2024 16:42 20,2 °C 14,4 °C 57 % 59 % 1027,4 hPa 0,0 l/m² 0,0 km/h (0 Bft) SW 228 ° 1 min 148 W/m² 6,5 °C 14,4 °C 0,0 km/h (0 Bft)
29.09.2024 16:43 20,2 °C 14,4 °C 57 % 59 % 1027,5 hPa 0,0 l/m² 0,0 km/h (0 Bft) SW 228 ° 1 min 160 W/m² 6,5 °C 14,4 °C 0,0 km/h (0 Bft)
29.09.2024 16:44 20,2 °C 14,4 °C 57 % 59 % 1027,4 hPa 0,0 l/m² 2,3 km/h (1 Bft) W-SW 242 ° 1 min 202 W/m² 6,5 °C 14,4 °C 4,8 km/h (1 Bft)
29.09.2024 16:45 20,1 °C 14,4 °C 57 % 60 % 1027,5 hPa 0,0 l/m² 1,7 km/h (1 Bft) W-SW 242 ° 1 min 195 W/m² 6,7 °C 14,4 °C 3,2 km/h (1 Bft)
29.09.2024 16:46 20,1 °C 14,4 °C 57 % 60 % 1027,4 hPa 0,0 l/m² 0,7 km/h (0 Bft) W-SW 242 ° 1 min 185 W/m² 6,7 °C 14,4 °C 3,2 km/h (1 Bft)
29.09.2024 16:47 20,1 °C 14,4 °C 57 % 59 % 1027,4 hPa 0,0 l/m² 2,6 km/h (1 Bft) W-SW 243 ° 1 min 176 W/m² 6,5 °C 14,4 °C 4,8 km/h (1 Bft)
29.09.2024 16:48 20,1 °C 14,3 °C 57 % 59 % 1027,4 hPa 0,0 l/m² 0,2 km/h (0 Bft) W-SW 243 ° 1 min 169 W/m² 6,4 °C 14,3 °C 1,6 km/h (1 Bft)
29.09.2024 16:49 20,2 °C 14,3 °C 57 % 59 % 1027,4 hPa 0,0 l/m² 0,0 km/h (0 Bft) W-SW 243 ° 1 min 148 W/m² 6,4 °C 14,3 °C 0,0 km/h (0 Bft)
29.09.2024 16:50 20,2 °C 14,3 °C 57 % 59 % 1027,4 hPa 0,0 l/m² 0,1 km/h (0 Bft) W-SW 243 ° 1 min 134 W/m² 6,4 °C 14,3 °C 1,6 km/h (1 Bft)
29.09.2024 16:51 20,1 °C 14,3 °C 57 % 60 % 1027,4 hPa 0,0 l/m² 0,0 km/h (0 Bft) W-SW 243 ° 1 min 132 W/m² 6,6 °C 14,3 °C 0,0 km/h (0 Bft)
29.09.2024 16:52 20,2 °C 14,3 °C 57 % 60 % 1027,4 hPa 0,0 l/m² 0,0 km/h (0 Bft) W-SW 243 ° 1 min 132 W/m² 6,6 °C 14,3 °C 0,0 km/h (0 Bft)
29.09.2024 16:53 20,2 °C 14,3 °C 57 % 60 % 1027,4 hPa 0,0 l/m² 0,1 km/h (0 Bft) W-SW 243 ° 1 min 134 W/m² 6,6 °C 14,3 °C 1,6 km/h (1 Bft)
29.09.2024 16:54 20,1 °C 14,3 °C 57 % 60 % 1027,4 hPa 0,0 l/m² 0,0 km/h (0 Bft) W-SW 243 ° 1 min 146 W/m² 6,6 °C 14,3 °C 0,0 km/h (0 Bft)
29.09.2024 16:55 20,2 °C 14,3 °C 57 % 60 % 1027,3 hPa 0,0 l/m² 0,0 km/h (0 Bft) W-SW 243 ° 1 min 174 W/m² 6,6 °C 14,3 °C 0,0 km/h (0 Bft)
29.09.2024 16:56 20,1 °C 14,3 °C 57 % 59 % 1027,3 hPa 0,0 l/m² 0,3 km/h (0 Bft) W-SW 243 ° 1 min 239 W/m² 6,4 °C 14,3 °C 1,6 km/h (1 Bft)
29.09.2024 16:57 20,1 °C 14,3 °C 57 % 60 % 1027,3 hPa 0,0 l/m² 0,3 km/h (0 Bft) W-SW 244 ° 1 min 269 W/m² 6,6 °C 14,3 °C 3,2 km/h (1 Bft)
29.09.2024 16:58 20,2 °C 14,4 °C 57 % 63 % 1027,3 hPa 0,0 l/m² 1,0 km/h (0 Bft) W-SW 250 ° 1 min 276 W/m² 7,4 °C 14,4 °C 3,2 km/h (1 Bft)
29.09.2024 16:59 20,1 °C 14,6 °C 57 % 60 % 1027,3 hPa 0,0 l/m² 1,7 km/h (1 Bft) W-SW 250 ° 1 min 299 W/m² 6,9 °C 14,6 °C 3,2 km/h (1 Bft)
29.09.2024 17:00 20,1 °C 14,7 °C 57 % 60 % 1027,3 hPa 0,0 l/m² 0,0 km/h (0 Bft) W-SW 250 ° 1 min 311 W/m² 7,0 °C 14,7 °C 0,0 km/h (0 Bft)
29.09.2024 17:01 20,2 °C 14,8 °C 57 % 59 % 1027,3 hPa 0,0 l/m² 1,5 km/h (1 Bft) W-SW 250 ° 1 min 338 W/m² 6,9 °C 14,8 °C 3,2 km/h (1 Bft)
29.09.2024 17:02 20,2 °C 15,0 °C 57 % 60 % 1027,3 hPa 0,0 l/m² 0,1 km/h (0 Bft) W-SW 250 ° 1 min 330 W/m² 7,3 °C 15,0 °C 1,6 km/h (1 Bft)
29.09.2024 17:03 20,1 °C 15,1 °C 57 % 58 % 1027,2 hPa 0,0 l/m² 0,0 km/h (0 Bft) W-SW 250 ° 1 min 341 W/m² 6,9 °C 15,1 °C 0,0 km/h (0 Bft)
29.09.2024 17:04 20,2 °C 15,1 °C 57 % 59 % 1027,3 hPa 0,0 l/m² 0,9 km/h (0 Bft) W-SW 250 ° 1 min 332 W/m² 7,1 °C 15,1 °C 3,2 km/h (1 Bft)
29.09.2024 17:05 20,2 °C 15,2 °C 57 % 58 % 1027,2 hPa 0,0 l/m² 1,1 km/h (1 Bft) W-SW 250 ° 1 min 316 W/m² 7,0 °C 15,2 °C 3,2 km/h (1 Bft)
29.09.2024 17:06 20,1 °C 15,3 °C 57 % 59 % 1027,2 hPa 0,0 l/m² 0,5 km/h (0 Bft) W-SW 250 ° 1 min 297 W/m² 7,3 °C 15,3 °C 3,2 km/h (1 Bft)
29.09.2024 17:07 20,2 °C 15,3 °C 57 % 58 % 1027,2 hPa 0,0 l/m² 3,8 km/h (1 Bft) W-SW 250 ° 1 min 250 W/m² 7,1 °C 15,3 °C 4,8 km/h (1 Bft)
29.09.2024 17:08 20,1 °C 15,3 °C 57 % 58 % 1027,3 hPa 0,0 l/m² 4,1 km/h (1 Bft) W-SW 250 ° 1 min 283 W/m² 7,1 °C 15,3 °C 6,4 km/h (2 Bft)
29.09.2024 17:09 20,2 °C 15,3 °C 57 % 58 % 1027,2 hPa 0,0 l/m² 3,4 km/h (1 Bft) W-SW 250 ° 1 min 294 W/m² 7,1 °C 15,3 °C 4,8 km/h (1 Bft)
29.09.2024 17:10 20,2 °C 15,2 °C 57 % 57 % 1027,2 hPa 0,0 l/m² 0,8 km/h (0 Bft) W-SW 250 ° 1 min 257 W/m² 6,7 °C 15,2 °C 3,2 km/h (1 Bft)
29.09.2024 17:11 20,2 °C 15,1 °C 57 % 57 % 1027,2 hPa 0,0 l/m² 0,0 km/h (0 Bft) W-SW 250 ° 1 min 269 W/m² 6,6 °C 15,1 °C 0,0 km/h (0 Bft)
29.09.2024 17:12 20,1 °C 14,9 °C 57 % 56 % 1027,2 hPa 0,0 l/m² 0,3 km/h (0 Bft) W-SW 250 ° 1 min 279 W/m² 6,2 °C 14,9 °C 1,6 km/h (1 Bft)
29.09.2024 17:13 20,1 °C 14,8 °C 57 % 57 % 1027,2 hPa 0,0 l/m² 0,0 km/h (0 Bft) W-SW 250 ° 1 min 290 W/m² 6,4 °C 14,8 °C 0,0 km/h (0 Bft)
29.09.2024 17:14 20,2 °C 14,8 °C 57 % 60 % 1027,2 hPa 0,0 l/m² 0,0 km/h (0 Bft) W-SW 250 ° 1 min 285 W/m² 7,1 °C 14,8 °C 0,0 km/h (0 Bft)
29.09.2024 17:15 20,1 °C 14,8 °C 57 % 58 % 1027,3 hPa 0,0 l/m² 0,0 km/h (0 Bft) W-SW 250 ° 1 min 281 W/m² 6,6 °C 14,8 °C 0,0 km/h (0 Bft)
29.09.2024 17:16 20,1 °C 14,9 °C 57 % 57 % 1027,2 hPa 0,0 l/m² 0,1 km/h (0 Bft) W-SW 250 ° 1 min 274 W/m² 6,5 °C 14,9 °C 1,6 km/h (1 Bft)
29.09.2024 17:17 20,2 °C 14,9 °C 57 % 58 % 1027,2 hPa 0,0 l/m² 1,5 km/h (1 Bft) W-SW 250 ° 1 min 244 W/m² 6,7 °C 14,9 °C 3,2 km/h (1 Bft)
29.09.2024 17:18 20,2 °C 14,9 °C 57 % 59 % 1027,2 hPa 0,0 l/m² 1,3 km/h (1 Bft) W-SW 250 ° 1 min 172 W/m² 7,0 °C 14,9 °C 4,8 km/h (1 Bft)
29.09.2024 17:19 20,2 °C 14,8 °C 57 % 57 % 1027,3 hPa 0,0 l/m² 0,4 km/h (0 Bft) W-SW 250 ° 1 min 174 W/m² 6,4 °C 14,8 °C 1,6 km/h (1 Bft)
29.09.2024 17:20 20,2 °C 14,7 °C 57 % 57 % 1027,3 hPa 0,0 l/m² 0,0 km/h (0 Bft) W-SW 250 ° 1 min 146 W/m² 6,3 °C 14,7 °C 0,0 km/h (0 Bft)
29.09.2024 17:22 20,1 °C 14,6 °C 57 % 57 % 1027,2 hPa 0,0 l/m² 0,5 km/h (0 Bft) W-SW 250 ° 2 min 162 W/m² 6,2 °C 14,6 °C 3,2 km/h (1 Bft)
29.09.2024 17:23 20,1 °C 14,6 °C 57 % 58 % 1027,2 hPa 0,0 l/m² 0,5 km/h (0 Bft) W-SW 250 ° 1 min 134 W/m² 6,4 °C 14,6 °C 3,2 km/h (1 Bft)
29.09.2024 17:24 20,1 °C 14,6 °C 57 % 59 % 1027,2 hPa 0,0 l/m² 1,8 km/h (1 Bft) W-SW 250 ° 1 min 135 W/m² 6,7 °C 14,6 °C 4,8 km/h (1 Bft)
29.09.2024 17:25 20,1 °C 14,6 °C 57 % 58 % 1027,2 hPa 0,0 l/m² 3,6 km/h (1 Bft) W-SW 250 ° 1 min 109 W/m² 6,4 °C 14,6 °C 4,8 km/h (1 Bft)
29.09.2024 17:26 20,2 °C 14,5 °C 57 % 58 % 1027,2 hPa 0,0 l/m² 0,3 km/h (0 Bft) W-SW 250 ° 1 min 105 W/m² 6,3 °C 14,5 °C 1,6 km/h (1 Bft)
29.09.2024 17:27 20,2 °C 14,5 °C 57 % 58 % 1027,3 hPa 0,0 l/m² 0,3 km/h (0 Bft) W-SW 250 ° 1 min 100 W/m² 6,3 °C 14,5 °C 1,6 km/h (1 Bft)
29.09.2024 17:28 20,1 °C 14,5 °C 57 % 57 % 1027,3 hPa 0,0 l/m² 1,5 km/h (1 Bft) W-SW 250 ° 1 min 98 W/m² 6,1 °C 14,5 °C 3,2 km/h (1 Bft)
29.09.2024 17:29 20,2 °C 14,4 °C 57 % 56 % 1027,2 hPa 0,0 l/m² 0,0 km/h (0 Bft) W-SW 250 ° 1 min 100 W/m² 5,7 °C 14,4 °C 0,0 km/h (0 Bft)
29.09.2024 17:30 20,2 °C 14,5 °C 57 % 58 % 1027,2 hPa 0,0 l/m² 0,0 km/h (0 Bft) W-SW 250 ° 1 min 102 W/m² 6,3 °C 14,5 °C 0,0 km/h (0 Bft)
29.09.2024 17:31 20,1 °C 14,6 °C 57 % 58 % 1027,2 hPa 0,0 l/m² 0,0 km/h (0 Bft) W-SW 250 ° 1 min 111 W/m² 6,4 °C 14,6 °C 0,0 km/h (0 Bft)
29.09.2024 17:32 20,2 °C 14,6 °C 57 % 58 % 1027,2 hPa 0,0 l/m² 0,0 km/h (0 Bft) W-SW 250 ° 1 min 135 W/m² 6,4 °C 14,6 °C 0,0 km/h (0 Bft)
29.09.2024 17:33 20,1 °C 14,6 °C 57 % 57 % 1027,3 hPa 0,0 l/m² 0,0 km/h (0 Bft) W-SW 250 ° 1 min 128 W/m² 6,2 °C 14,6 °C 0,0 km/h (0 Bft)
29.09.2024 17:34 20,2 °C 14,6 °C 57 % 57 % 1027,3 hPa 0,0 l/m² 0,0 km/h (0 Bft) W-SW 250 ° 1 min 113 W/m² 6,2 °C 14,6 °C 0,0 km/h (0 Bft)
29.09.2024 17:35 20,1 °C 14,6 °C 57 % 57 % 1027,2 hPa 0,0 l/m² 0,0 km/h (0 Bft) W-SW 250 ° 1 min 105 W/m² 6,2 °C 14,6 °C 0,0 km/h (0 Bft)
29.09.2024 17:36 20,1 °C 14,6 °C 57 % 57 % 1027,3 hPa 0,0 l/m² 0,0 km/h (0 Bft) W-SW 250 ° 1 min 116 W/m² 6,2 °C 14,6 °C 0,0 km/h (0 Bft)
29.09.2024 17:37 20,2 °C 14,6 °C 57 % 58 % 1027,3 hPa 0,0 l/m² 1,4 km/h (1 Bft) W-SW 250 ° 1 min 151 W/m² 6,4 °C 14,6 °C 3,2 km/h (1 Bft)
29.09.2024 17:38 20,1 °C 14,6 °C 57 % 58 % 1027,3 hPa 0,0 l/m² 1,3 km/h (1 Bft) W-SW 250 ° 1 min 144 W/m² 6,4 °C 14,6 °C 3,2 km/h (1 Bft)
29.09.2024 17:39 20,1 °C 14,7 °C 57 % 58 % 1027,2 hPa 0,0 l/m² 0,0 km/h (0 Bft) W-SW 251 ° 1 min 148 W/m² 6,5 °C 14,7 °C 0,0 km/h (0 Bft)
29.09.2024 17:40 20,1 °C 14,7 °C 57 % 57 % 1027,3 hPa 0,0 l/m² 0,0 km/h (0 Bft) W-SW 250 ° 1 min 151 W/m² 6,3 °C 14,7 °C 0,0 km/h (0 Bft)
29.09.2024 17:41 20,1 °C 14,7 °C 57 % 57 % 1027,3 hPa 0,0 l/m² 0,1 km/h (0 Bft) W-SW 250 ° 1 min 144 W/m² 6,3 °C 14,7 °C 1,6 km/h (1 Bft)
29.09.2024 17:42 20,1 °C 14,7 °C 57 % 57 % 1027,2 hPa 0,0 l/m² 0,8 km/h (0 Bft) W-SW 251 ° 1 min 135 W/m² 6,3 °C 14,7 °C 1,6 km/h (1 Bft)
29.09.2024 17:43 20,1 °C 14,7 °C 57 % 56 % 1027,2 hPa 0,0 l/m² 0,1 km/h (0 Bft) W-SW 250 ° 1 min 128 W/m² 6,0 °C 14,7 °C 1,6 km/h (1 Bft)
29.09.2024 17:44 20,2 °C 14,7 °C 57 % 56 % 1027,2 hPa 0,0 l/m² 0,5 km/h (0 Bft) W-SW 250 ° 1 min 125 W/m² 6,0 °C 14,7 °C 1,6 km/h (1 Bft)
29.09.2024 17:45 20,1 °C 14,7 °C 57 % 57 % 1027,3 hPa 0,0 l/m² 0,1 km/h (0 Bft) W-SW 250 ° 1 min 120 W/m² 6,3 °C 14,7 °C 1,6 km/h (1 Bft)
29.09.2024 17:46 20,1 °C 14,7 °C 57 % 57 % 1027,3 hPa 0,0 l/m² 0,2 km/h (0 Bft) W-SW 251 ° 1 min 120 W/m² 6,3 °C 14,7 °C 1,6 km/h (1 Bft)
29.09.2024 17:47 20,2 °C 14,7 °C 57 % 57 % 1027,3 hPa 0,0 l/m² 0,4 km/h (0 Bft) W-SW 250 ° 1 min 123 W/m² 6,3 °C 14,7 °C 1,6 km/h (1 Bft)
29.09.2024 17:48 20,2 °C 14,7 °C 57 % 58 % 1027,3 hPa 0,0 l/m² 0,0 km/h (0 Bft) W-SW 250 ° 1 min 116 W/m² 6,5 °C 14,7 °C 0,0 km/h (0 Bft)
29.09.2024 17:49 20,1 °C 14,8 °C 57 % 58 % 1027,3 hPa 0,0 l/m² 0,2 km/h (0 Bft) W-SW 250 ° 1 min 98 W/m² 6,6 °C 14,8 °C 1,6 km/h (1 Bft)
29.09.2024 17:50 20,1 °C 14,8 °C 57 % 58 % 1027,2 hPa 0,0 l/m² 1,0 km/h (0 Bft) W-SW 250 ° 1 min 84 W/m² 6,6 °C 14,8 °C 1,6 km/h (1 Bft)
29.09.2024 17:51 20,1 °C 14,7 °C 57 % 58 % 1027,2 hPa 0,0 l/m² 0,9 km/h (0 Bft) W-SW 250 ° 1 min 76 W/m² 6,5 °C 14,7 °C 3,2 km/h (1 Bft)
29.09.2024 17:52 20,2 °C 14,7 °C 57 % 57 % 1027,2 hPa 0,0 l/m² 0,0 km/h (0 Bft) W-SW 250 ° 1 min 69 W/m² 6,3 °C 14,7 °C 0,0 km/h (0 Bft)
29.09.2024 17:53 20,1 °C 14,6 °C 57 % 58 % 1027,2 hPa 0,0 l/m² 0,0 km/h (0 Bft) W-SW 250 ° 1 min 63 W/m² 6,4 °C 14,6 °C 0,0 km/h (0 Bft)
29.09.2024 17:54 20,1 °C 14,6 °C 57 % 58 % 1027,3 hPa 0,0 l/m² 0,0 km/h (0 Bft) W-SW 250 ° 1 min 54 W/m² 6,4 °C 14,6 °C 0,0 km/h (0 Bft)
29.09.2024 17:55 20,1 °C 14,6 °C 57 % 58 % 1027,3 hPa 0,0 l/m² 0,1 km/h (0 Bft) W-SW 250 ° 1 min 54 W/m² 6,4 °C 14,6 °C 1,6 km/h (1 Bft)
29.09.2024 17:56 20,1 °C 14,5 °C 57 % 58 % 1027,2 hPa 0,0 l/m² 2,9 km/h (1 Bft) N-NO 33 ° 1 min 58 W/m² 6,3 °C 14,5 °C 6,4 km/h (2 Bft)
29.09.2024 17:57 20,2 °C 14,4 °C 57 % 59 % 1027,3 hPa 0,0 l/m² 4,3 km/h (1 Bft) O-NO 58 ° 1 min 62 W/m² 6,5 °C 14,4 °C 6,4 km/h (2 Bft)
29.09.2024 17:58 20,1 °C 14,4 °C 57 % 60 % 1027,3 hPa 0,0 l/m² 3,2 km/h (1 Bft) O-NO 58 ° 1 min 56 W/m² 6,7 °C 14,4 °C 4,8 km/h (1 Bft)
29.09.2024 17:59 20,2 °C 14,4 °C 57 % 60 % 1027,2 hPa 0,0 l/m² 3,0 km/h (1 Bft) O-NO 58 ° 0 min 49 W/m² 6,7 °C 14,4 °C 4,8 km/h (1 Bft)
29.09.2024 18:00 20,1 °C 14,3 °C 57 % 60 % 1027,2 hPa 0,0 l/m² 4,2 km/h (1 Bft) O-NO 59 ° 0 min 49 W/m² 6,6 °C 14,3 °C 6,4 km/h (2 Bft)
29.09.2024 18:01 20,1 °C 14,4 °C 57 % 62 % 1027,2 hPa 0,0 l/m² 3,6 km/h (1 Bft) O-NO 59 ° 0 min 42 W/m² 7,2 °C 14,4 °C 6,4 km/h (2 Bft)
29.09.2024 18:02 20,2 °C 14,3 °C 57 % 62 % 1027,2 hPa 0,0 l/m² 4,0 km/h (1 Bft) O-NO 59 ° 0 min 39 W/m² 7,1 °C 14,3 °C 4,8 km/h (1 Bft)
29.09.2024 18:03 20,2 °C 14,3 °C 57 % 61 % 1027,2 hPa 0,0 l/m² 5,0 km/h (1 Bft) O-NO 78 ° 0 min 35 W/m² 6,9 °C 14,3 °C 8,0 km/h (2 Bft)
29.09.2024 18:04 20,2 °C 14,3 °C 57 % 61 % 1027,2 hPa 0,0 l/m² 5,4 km/h (2 Bft) O-NO 73 ° 0 min 30 W/m² 6,9 °C 14,3 °C 6,4 km/h (2 Bft)
29.09.2024 18:05 20,1 °C 14,2 °C 57 % 61 % 1027,2 hPa 0,0 l/m² 5,3 km/h (1 Bft) O-NO 74 ° 0 min 28 W/m² 6,8 °C 14,2 °C 6,4 km/h (2 Bft)
29.09.2024 18:06 20,1 °C 14,2 °C 57 % 61 % 1027,2 hPa 0,0 l/m² 5,5 km/h (2 Bft) O-NO 74 ° 0 min 26 W/m² 6,8 °C 14,2 °C 8,0 km/h (2 Bft)
29.09.2024 18:07 20,1 °C 14,1 °C 57 % 61 % 1027,3 hPa 0,0 l/m² 3,7 km/h (1 Bft) O-NO 74 ° 0 min 26 W/m² 6,7 °C 14,1 °C 4,8 km/h (1 Bft)
29.09.2024 18:08 20,1 °C 14,1 °C 57 % 61 % 1027,3 hPa 0,0 l/m² 3,8 km/h (1 Bft) O-NO 74 ° 0 min 25 W/m² 6,7 °C 14,1 °C 4,8 km/h (1 Bft)
29.09.2024 18:09 20,2 °C 14,1 °C 57 % 62 % 1027,3 hPa 0,0 l/m² 3,0 km/h (1 Bft) O-NO 74 ° 0 min 25 W/m² 6,9 °C 14,1 °C 4,8 km/h (1 Bft)
29.09.2024 18:10 20,1 °C 14,0 °C 57 % 62 % 1027,3 hPa 0,0 l/m² 4,1 km/h (1 Bft) O-NO 74 ° 0 min 23 W/m² 6,8 °C 14,0 °C 4,8 km/h (1 Bft)
29.09.2024 18:11 20,1 °C 13,9 °C 57 % 62 % 1027,3 hPa 0,0 l/m² 3,8 km/h (1 Bft) O-NO 74 ° 0 min 21 W/m² 6,7 °C 13,9 °C 4,8 km/h (1 Bft)
29.09.2024 18:12 20,1 °C 13,9 °C 57 % 62 % 1027,2 hPa 0,0 l/m² 3,6 km/h (1 Bft) O-NO 74 ° 0 min 19 W/m² 6,7 °C 13,9 °C 4,8 km/h (1 Bft)
29.09.2024 18:13 20,1 °C 13,8 °C 57 % 62 % 1027,3 hPa 0,0 l/m² 3,9 km/h (1 Bft) O-NO 74 ° 0 min 19 W/m² 6,6 °C 13,8 °C 4,8 km/h (1 Bft)
29.09.2024 18:14 20,1 °C 13,8 °C 57 % 63 % 1027,2 hPa 0,0 l/m² 4,3 km/h (1 Bft) O 89 ° 0 min 19 W/m² 6,9 °C 13,8 °C 6,4 km/h (2 Bft)
29.09.2024 18:15 20,1 °C 13,8 °C 57 % 62 % 1027,3 hPa 0,0 l/m² 4,0 km/h (1 Bft) O 89 ° 0 min 21 W/m² 6,6 °C 13,8 °C 4,8 km/h (1 Bft)
29.09.2024 18:16 20,1 °C 13,8 °C 57 % 63 % 1027,2 hPa 0,0 l/m² 4,6 km/h (1 Bft) O 89 ° 0 min 21 W/m² 6,9 °C 13,8 °C 6,4 km/h (2 Bft)
29.09.2024 18:17 20,1 °C 13,7 °C 57 % 62 % 1027,2 hPa 0,0 l/m² 4,7 km/h (1 Bft) O 89 ° 0 min 21 W/m² 6,6 °C 13,7 °C 6,4 km/h (2 Bft)
29.09.2024 18:18 20,1 °C 13,7 °C 57 % 63 % 1027,2 hPa 0,0 l/m² 5,2 km/h (1 Bft) O 89 ° 0 min 21 W/m² 6,8 °C 13,7 °C 6,4 km/h (2 Bft)
29.09.2024 18:19 20,1 °C 13,7 °C 57 % 63 % 1027,2 hPa 0,0 l/m² 4,2 km/h (1 Bft) O 88 ° 0 min 19 W/m² 6,8 °C 13,7 °C 6,4 km/h (2 Bft)
29.09.2024 18:20 20,1 °C 13,6 °C 57 % 63 % 1027,2 hPa 0,0 l/m² 4,7 km/h (1 Bft) O 86 ° 0 min 19 W/m² 6,7 °C 13,6 °C 6,4 km/h (2 Bft)
29.09.2024 18:21 20,1 °C 13,6 °C 57 % 64 % 1027,2 hPa 0,0 l/m² 4,4 km/h (1 Bft) O 86 ° 0 min 19 W/m² 6,9 °C 13,6 °C 4,8 km/h (1 Bft)
29.09.2024 18:22 20,1 °C 13,5 °C 57 % 64 % 1027,2 hPa 0,0 l/m² 3,8 km/h (1 Bft) O 86 ° 0 min 19 W/m² 6,8 °C 13,5 °C 4,8 km/h (1 Bft)
29.09.2024 18:23 20,1 °C 13,4 °C 57 % 64 % 1027,2 hPa 0,0 l/m² 5,1 km/h (1 Bft) O 86 ° 0 min 19 W/m² 6,7 °C 13,4 °C 6,4 km/h (2 Bft)
29.09.2024 18:24 20,1 °C 13,4 °C 57 % 64 % 1027,2 hPa 0,0 l/m² 5,1 km/h (1 Bft) O 85 ° 0 min 19 W/m² 6,7 °C 13,4 °C 6,4 km/h (2 Bft)
29.09.2024 18:25 20,1 °C 13,3 °C 57 % 65 % 1027,2 hPa 0,0 l/m² 4,6 km/h (1 Bft) O 84 ° 0 min 18 W/m² 6,9 °C 13,3 °C 6,4 km/h (2 Bft)
29.09.2024 18:26 20,1 °C 13,2 °C 57 % 65 % 1027,1 hPa 0,0 l/m² 4,1 km/h (1 Bft) O 84 ° 0 min 18 W/m² 6,8 °C 13,2 °C 4,8 km/h (1 Bft)
29.09.2024 18:27 20,1 °C 13,2 °C 57 % 65 % 1027,2 hPa 0,0 l/m² 4,0 km/h (1 Bft) O 84 ° 0 min 16 W/m² 6,8 °C 13,2 °C 4,8 km/h (1 Bft)
29.09.2024 18:28 20,1 °C 13,1 °C 57 % 65 % 1027,2 hPa 0,0 l/m² 3,2 km/h (1 Bft) O 84 ° 0 min 16 W/m² 6,7 °C 13,1 °C 4,8 km/h (1 Bft)
29.09.2024 18:29 20,1 °C 13,1 °C 57 % 65 % 1027,1 hPa 0,0 l/m² 3,6 km/h (1 Bft) O 84 ° 0 min 14 W/m² 6,7 °C 13,1 °C 4,8 km/h (1 Bft)
29.09.2024 18:30 20,1 °C 13,0 °C 57 % 65 % 1027,1 hPa 0,0 l/m² 3,1 km/h (1 Bft) O 84 ° 0 min 14 W/m² 6,6 °C 13,0 °C 4,8 km/h (1 Bft)
29.09.2024 18:31 20,1 °C 12,9 °C 57 % 66 % 1027,1 hPa 0,0 l/m² 3,7 km/h (1 Bft) O 84 ° 0 min 12 W/m² 6,7 °C 12,9 °C 4,8 km/h (1 Bft)
29.09.2024 18:32 20,1 °C 12,9 °C 57 % 66 % 1027,1 hPa 0,0 l/m² 2,0 km/h (1 Bft) O 84 ° 0 min 12 W/m² 6,7 °C 12,9 °C 3,2 km/h (1 Bft)
29.09.2024 18:33 20,1 °C 12,8 °C 57 % 66 % 1027,2 hPa 0,0 l/m² 2,6 km/h (1 Bft) O 84 ° 0 min 12 W/m² 6,6 °C 12,8 °C 3,2 km/h (1 Bft)
29.09.2024 18:34 20,1 °C 12,8 °C 57 % 67 % 1027,1 hPa 0,0 l/m² 3,0 km/h (1 Bft) O 84 ° 0 min 12 W/m² 6,8 °C 12,8 °C 4,8 km/h (1 Bft)
29.09.2024 18:35 20,1 °C 12,8 °C 57 % 67 % 1027,1 hPa 0,0 l/m² 4,3 km/h (1 Bft) O 84 ° 0 min 12 W/m² 6,8 °C 12,8 °C 4,8 km/h (1 Bft)
29.09.2024 18:36 20,1 °C 12,7 °C 57 % 67 % 1027,1 hPa 0,0 l/m² 4,2 km/h (1 Bft) O 84 ° 0 min 11 W/m² 6,7 °C 12,7 °C 4,8 km/h (1 Bft)
29.09.2024 18:37 20,1 °C 12,7 °C 57 % 67 % 1027,1 hPa 0,0 l/m² 3,9 km/h (1 Bft) O 84 ° 0 min 11 W/m² 6,7 °C 12,7 °C 4,8 km/h (1 Bft)
29.09.2024 18:38 20,1 °C 12,6 °C 57 % 67 % 1027,0 hPa 0,0 l/m² 4,0 km/h (1 Bft) O 84 ° 0 min 11 W/m² 6,6 °C 12,6 °C 4,8 km/h (1 Bft)
29.09.2024 18:39 20,1 °C 12,6 °C 57 % 68 % 1027,1 hPa 0,0 l/m² 3,6 km/h (1 Bft) O 84 ° 0 min 11 W/m² 6,9 °C 12,6 °C 4,8 km/h (1 Bft)
29.09.2024 18:40 20,1 °C 12,4 °C 57 % 68 % 1027,0 hPa 0,0 l/m² 3,6 km/h (1 Bft) O 84 ° 0 min 9 W/m² 6,7 °C 12,4 °C 4,8 km/h (1 Bft)
29.09.2024 18:41 20,1 °C 12,4 °C 57 % 68 % 1027,0 hPa 0,0 l/m² 3,7 km/h (1 Bft) O 84 ° 0 min 9 W/m² 6,7 °C 12,4 °C 4,8 km/h (1 Bft)
29.09.2024 18:42 20,1 °C 12,4 °C 57 % 68 % 1027,0 hPa 0,0 l/m² 2,9 km/h (1 Bft) O 84 ° 0 min 9 W/m² 6,7 °C 12,4 °C 4,8 km/h (1 Bft)
29.09.2024 18:43 20,1 °C 12,3 °C 57 % 68 % 1027,0 hPa 0,0 l/m² 1,6 km/h (1 Bft) O 84 ° 0 min 7 W/m² 6,6 °C 12,3 °C 3,2 km/h (1 Bft)
29.09.2024 18:44 20,1 °C 12,3 °C 57 % 68 % 1027,0 hPa 0,0 l/m² 2,7 km/h (1 Bft) O 84 ° 0 min 7 W/m² 6,6 °C 12,3 °C 4,8 km/h (1 Bft)
29.09.2024 18:46 20,1 °C 12,2 °C 57 % 69 % 1026,9 hPa 0,0 l/m² 2,0 km/h (1 Bft) O 84 ° 0 min 7 W/m² 6,7 °C 12,2 °C 4,8 km/h (1 Bft)
29.09.2024 18:47 20,1 °C 12,2 °C 57 % 69 % 1026,9 hPa 0,0 l/m² 2,1 km/h (1 Bft) O 84 ° 0 min 5 W/m² 6,7 °C 12,2 °C 3,2 km/h (1 Bft)
29.09.2024 18:48 20,1 °C 12,2 °C 57 % 69 % 1026,9 hPa 0,0 l/m² 1,3 km/h (1 Bft) O 84 ° 0 min 5 W/m² 6,7 °C 12,2 °C 3,2 km/h (1 Bft)
29.09.2024 18:49 20,1 °C 12,1 °C 57 % 69 % 1026,9 hPa 0,0 l/m² 0,1 km/h (0 Bft) O 84 ° 0 min 5 W/m² 6,6 °C 12,1 °C 1,6 km/h (1 Bft)
29.09.2024 18:50 20,1 °C 12,1 °C 57 % 69 % 1026,9 hPa 0,0 l/m² 0,0 km/h (0 Bft) O 84 ° 0 min 0 W/m² 6,6 °C 12,1 °C 0,0 km/h (0 Bft)
29.09.2024 18:51 20,1 °C 12,1 °C 57 % 71 % 1026,9 hPa 0,0 l/m² 0,0 km/h (0 Bft) O 84 ° 0 min 0 W/m² 7,0 °C 12,1 °C 0,0 km/h (0 Bft)
29.09.2024 18:52 20,1 °C 12,1 °C 57 % 72 % 1026,8 hPa 0,0 l/m² 1,5 km/h (1 Bft) O 84 ° 0 min 0 W/m² 7,2 °C 12,1 °C 3,2 km/h (1 Bft)
29.09.2024 18:53 20,1 °C 11,9 °C 57 % 72 % 1026,9 hPa 0,0 l/m² 2,0 km/h (1 Bft) O 84 ° 0 min 0 W/m² 7,0 °C 11,9 °C 3,2 km/h (1 Bft)
29.09.2024 18:54 20,1 °C 11,8 °C 57 % 72 % 1027,0 hPa 0,0 l/m² 2,3 km/h (1 Bft) O 84 ° 0 min 0 W/m² 6,9 °C 11,8 °C 4,8 km/h (1 Bft)
29.09.2024 18:55 20,1 °C 11,7 °C 57 % 73 % 1026,9 hPa 0,0 l/m² 2,4 km/h (1 Bft) O 84 ° 0 min 0 W/m² 7,0 °C 11,7 °C 3,2 km/h (1 Bft)
29.09.2024 18:56 20,1 °C 11,7 °C 57 % 74 % 1027,0 hPa 0,0 l/m² 2,6 km/h (1 Bft) O 84 ° 0 min 0 W/m² 7,2 °C 11,7 °C 4,8 km/h (1 Bft)
29.09.2024 18:57 20,1 °C 11,6 °C 57 % 74 % 1027,0 hPa 0,0 l/m² 2,8 km/h (1 Bft) O 84 ° 0 min 0 W/m² 7,1 °C 11,6 °C 3,2 km/h (1 Bft)
29.09.2024 18:58 20,1 °C 11,4 °C 57 % 74 % 1027,0 hPa 0,0 l/m² 2,4 km/h (1 Bft) O 84 ° 0 min 0 W/m² 6,9 °C 11,4 °C 4,8 km/h (1 Bft)
29.09.2024 18:59 20,1 °C 11,3 °C 57 % 74 % 1026,9 hPa 0,0 l/m² 2,4 km/h (1 Bft) O 84 ° 0 min 0 W/m² 6,8 °C 11,3 °C 4,8 km/h (1 Bft)
29.09.2024 19:00 20,1 °C 11,3 °C 57 % 74 % 1026,9 hPa 0,0 l/m² 2,4 km/h (1 Bft) O 84 ° 0 min 0 W/m² 6,8 °C 11,3 °C 4,8 km/h (1 Bft)
29.09.2024 19:01 20,1 °C 11,2 °C 57 % 74 % 1026,9 hPa 0,0 l/m² 1,9 km/h (1 Bft) O 84 ° 0 min 0 W/m² 6,7 °C 11,2 °C 4,8 km/h (1 Bft)
29.09.2024 19:02 20,1 °C 11,2 °C 57 % 74 % 1026,9 hPa 0,0 l/m² 2,1 km/h (1 Bft) O 84 ° 0 min 0 W/m² 6,7 °C 11,2 °C 3,2 km/h (1 Bft)
29.09.2024 19:03 20,1 °C 11,2 °C 57 % 75 % 1026,9 hPa 0,0 l/m² 1,5 km/h (1 Bft) O 82 ° 0 min 0 W/m² 6,9 °C 11,2 °C 3,2 km/h (1 Bft)
29.09.2024 19:04 20,1 °C 11,2 °C 57 % 75 % 1026,9 hPa 0,0 l/m² 1,7 km/h (1 Bft) O 82 ° 0 min 0 W/m² 6,9 °C 11,2 °C 3,2 km/h (1 Bft)
29.09.2024 19:05 20,1 °C 11,2 °C 57 % 75 % 1026,9 hPa 0,0 l/m² 2,7 km/h (1 Bft) O 80 ° 0 min 0 W/m² 6,9 °C 11,2 °C 4,8 km/h (1 Bft)
29.09.2024 19:06 20,1 °C 11,2 °C 57 % 75 % 1026,8 hPa 0,0 l/m² 2,0 km/h (1 Bft) O 79 ° 0 min 0 W/m² 6,9 °C 11,2 °C 3,2 km/h (1 Bft)
29.09.2024 19:07 20,1 °C 11,2 °C 57 % 75 % 1026,9 hPa 0,0 l/m² 1,5 km/h (1 Bft) O 79 ° 0 min 0 W/m² 6,9 °C 11,2 °C 4,8 km/h (1 Bft)
29.09.2024 19:08 20,1 °C 11,2 °C 57 % 75 % 1026,8 hPa 0,0 l/m² 1,3 km/h (1 Bft) O 79 ° 0 min 0 W/m² 6,9 °C 11,2 °C 3,2 km/h (1 Bft)
29.09.2024 19:09 20,1 °C 11,2 °C 57 % 75 % 1026,9 hPa 0,0 l/m² 2,4 km/h (1 Bft) O-NO 78 ° 0 min 0 W/m² 6,9 °C 11,2 °C 4,8 km/h (1 Bft)
29.09.2024 19:10 20,1 °C 11,2 °C 57 % 75 % 1026,8 hPa 0,0 l/m² 0,7 km/h (0 Bft) O-NO 78 ° 0 min 0 W/m² 6,9 °C 11,2 °C 3,2 km/h (1 Bft)
29.09.2024 19:11 20,1 °C 11,2 °C 57 % 75 % 1026,8 hPa 0,0 l/m² 0,2 km/h (0 Bft) O-NO 78 ° 0 min 0 W/m² 6,9 °C 11,2 °C 1,6 km/h (1 Bft)
29.09.2024 19:12 20,1 °C 11,1 °C 57 % 75 % 1026,8 hPa 0,0 l/m² 0,7 km/h (0 Bft) O-NO 78 ° 0 min 0 W/m² 6,8 °C 11,1 °C 1,6 km/h (1 Bft)
29.09.2024 19:13 20,1 °C 11,1 °C 57 % 75 % 1026,8 hPa 0,0 l/m² 0,2 km/h (0 Bft) O-NO 78 ° 0 min 0 W/m² 6,8 °C 11,1 °C 3,2 km/h (1 Bft)
29.09.2024 19:14 20,1 °C 11,1 °C 57 % 75 % 1026,8 hPa 0,0 l/m² 0,5 km/h (0 Bft) O-NO 78 ° 0 min 0 W/m² 6,8 °C 11,1 °C 1,6 km/h (1 Bft)
29.09.2024 19:15 20,1 °C 11,0 °C 57 % 75 % 1026,8 hPa 0,0 l/m² 2,1 km/h (1 Bft) O-NO 78 ° 0 min 0 W/m² 6,7 °C 11,0 °C 3,2 km/h (1 Bft)
29.09.2024 19:16 20,1 °C 10,9 °C 57 % 75 % 1026,8 hPa 0,0 l/m² 3,1 km/h (1 Bft) O-NO 74 ° 0 min 0 W/m² 6,6 °C 10,9 °C 4,8 km/h (1 Bft)
29.09.2024 19:17 20,1 °C 10,9 °C 57 % 75 % 1026,8 hPa 0,0 l/m² 2,4 km/h (1 Bft) O-NO 73 ° 0 min 0 W/m² 6,6 °C 10,9 °C 3,2 km/h (1 Bft)
29.09.2024 19:18 20,1 °C 10,9 °C 57 % 75 % 1026,8 hPa 0,0 l/m² 0,6 km/h (0 Bft) O-NO 73 ° 0 min 0 W/m² 6,6 °C 10,9 °C 3,2 km/h (1 Bft)
29.09.2024 19:19 20,1 °C 10,8 °C 57 % 75 % 1026,8 hPa 0,0 l/m² 1,9 km/h (1 Bft) O-NO 73 ° 0 min 0 W/m² 6,5 °C 10,8 °C 3,2 km/h (1 Bft)
29.09.2024 19:20 20,1 °C 10,8 °C 57 % 75 % 1026,8 hPa 0,0 l/m² 1,5 km/h (1 Bft) O-NO 73 ° 0 min 0 W/m² 6,5 °C 10,8 °C 3,2 km/h (1 Bft)
29.09.2024 19:21 20,1 °C 10,8 °C 57 % 75 % 1026,8 hPa 0,0 l/m² 1,3 km/h (1 Bft) O-NO 73 ° 0 min 0 W/m² 6,5 °C 10,8 °C 3,2 km/h (1 Bft)
29.09.2024 19:22 20,1 °C 10,8 °C 57 % 75 % 1026,8 hPa 0,0 l/m² 0,4 km/h (0 Bft) O-NO 73 ° 0 min 0 W/m² 6,5 °C 10,8 °C 1,6 km/h (1 Bft)
29.09.2024 19:23 20,1 °C 10,8 °C 57 % 75 % 1026,9 hPa 0,0 l/m² 0,1 km/h (0 Bft) O-NO 73 ° 0 min 0 W/m² 6,5 °C 10,8 °C 1,6 km/h (1 Bft)
29.09.2024 19:24 20,1 °C 10,7 °C 57 % 75 % 1026,9 hPa 0,0 l/m² 1,2 km/h (1 Bft) O-NO 73 ° 0 min 0 W/m² 6,5 °C 10,7 °C 3,2 km/h (1 Bft)
29.09.2024 19:25 20,1 °C 10,7 °C 57 % 76 % 1026,9 hPa 0,0 l/m² 0,8 km/h (0 Bft) O-NO 73 ° 0 min 0 W/m² 6,6 °C 10,7 °C 1,6 km/h (1 Bft)
29.09.2024 19:27 20,1 °C 10,4 °C 57 % 76 % 1026,9 hPa 0,0 l/m² 1,0 km/h (0 Bft) O-NO 73 ° 0 min 0 W/m² 6,4 °C 10,4 °C 3,2 km/h (1 Bft)
29.09.2024 19:28 20,1 °C 10,4 °C 57 % 77 % 1026,9 hPa 0,0 l/m² 0,2 km/h (0 Bft) O-NO 73 ° 0 min 0 W/m² 6,5 °C 10,4 °C 1,6 km/h (1 Bft)
29.09.2024 19:29 20,1 °C 10,3 °C 57 % 77 % 1026,8 hPa 0,0 l/m² 0,0 km/h (0 Bft) O-NO 73 ° 0 min 0 W/m² 6,4 °C 10,3 °C 0,0 km/h (0 Bft)
29.09.2024 19:30 20,1 °C 10,2 °C 57 % 77 % 1026,9 hPa 0,0 l/m² 0,1 km/h (0 Bft) O-NO 73 ° 0 min 0 W/m² 6,4 °C 10,2 °C 1,6 km/h (1 Bft)
29.09.2024 19:31 20,1 °C 10,1 °C 57 % 78 % 1026,9 hPa 0,0 l/m² 0,0 km/h (0 Bft) O-NO 73 ° 0 min 0 W/m² 6,4 °C 10,1 °C 0,0 km/h (0 Bft)
29.09.2024 19:32 20,1 °C 10,1 °C 57 % 78 % 1026,9 hPa 0,0 l/m² 0,2 km/h (0 Bft) O-NO 73 ° 0 min 0 W/m² 6,4 °C 10,1 °C 1,6 km/h (1 Bft)
29.09.2024 19:33 20,1 °C 10,0 °C 57 % 78 % 1026,8 hPa 0,0 l/m² 0,1 km/h (0 Bft) O-NO 73 ° 0 min 0 W/m² 6,3 °C 10,0 °C 1,6 km/h (1 Bft)
29.09.2024 19:34 20,1 °C 10,0 °C 57 % 78 % 1026,9 hPa 0,0 l/m² 0,0 km/h (0 Bft) O-NO 73 ° 0 min 0 W/m² 6,3 °C 10,0 °C 0,0 km/h (0 Bft)
29.09.2024 19:35 20,1 °C 9,9 °C 57 % 79 % 1026,9 hPa 0,0 l/m² 0,4 km/h (0 Bft) O-NO 73 ° 0 min 0 W/m² 6,4 °C 9,9 °C 1,6 km/h (1 Bft)
29.09.2024 19:36 20,1 °C 9,9 °C 57 % 79 % 1026,9 hPa 0,0 l/m² 1,1 km/h (1 Bft) O-NO 73 ° 0 min 0 W/m² 6,4 °C 9,9 °C 3,2 km/h (1 Bft)
29.09.2024 19:37 20,1 °C 9,9 °C 57 % 79 % 1026,9 hPa 0,0 l/m² 1,2 km/h (1 Bft) O-NO 73 ° 0 min 0 W/m² 6,4 °C 9,9 °C 3,2 km/h (1 Bft)
29.09.2024 19:38 20,1 °C 9,9 °C 57 % 79 % 1026,9 hPa 0,0 l/m² 1,5 km/h (1 Bft) O-NO 73 ° 0 min 0 W/m² 6,4 °C 9,9 °C 3,2 km/h (1 Bft)
29.09.2024 19:39 20,1 °C 9,9 °C 57 % 79 % 1026,9 hPa 0,0 l/m² 1,1 km/h (1 Bft) O-NO 73 ° 0 min 0 W/m² 6,4 °C 9,9 °C 1,6 km/h (1 Bft)
29.09.2024 19:40 20,1 °C 9,9 °C 57 % 79 % 1027,0 hPa 0,0 l/m² 0,7 km/h (0 Bft) O-NO 73 ° 0 min 0 W/m² 6,4 °C 9,9 °C 1,6 km/h (1 Bft)
29.09.2024 19:41 20,1 °C 9,9 °C 57 % 79 % 1027,0 hPa 0,0 l/m² 0,3 km/h (0 Bft) O-NO 73 ° 0 min 0 W/m² 6,4 °C 9,9 °C 1,6 km/h (1 Bft)
29.09.2024 19:42 20,1 °C 9,9 °C 57 % 79 % 1027,0 hPa 0,0 l/m² 0,3 km/h (0 Bft) O-NO 73 ° 0 min 0 W/m² 6,4 °C 9,9 °C 1,6 km/h (1 Bft)
29.09.2024 19:43 20,1 °C 9,8 °C 57 % 79 % 1027,0 hPa 0,0 l/m² 1,6 km/h (1 Bft) O-NO 73 ° 0 min 0 W/m² 6,3 °C 9,8 °C 3,2 km/h (1 Bft)
29.09.2024 19:44 20,1 °C 9,8 °C 57 % 79 % 1027,0 hPa 0,0 l/m² 2,2 km/h (1 Bft) O-NO 73 ° 0 min 0 W/m² 6,3 °C 9,8 °C 3,2 km/h (1 Bft)
29.09.2024 19:45 20,1 °C 9,8 °C 57 % 79 % 1027,0 hPa 0,0 l/m² 1,2 km/h (1 Bft) O-NO 73 ° 0 min 0 W/m² 6,3 °C 9,8 °C 3,2 km/h (1 Bft)
29.09.2024 19:46 20,1 °C 9,7 °C 57 % 79 % 1027,0 hPa 0,0 l/m² 2,7 km/h (1 Bft) O-NO 73 ° 0 min 0 W/m² 6,2 °C 9,7 °C 3,2 km/h (1 Bft)
29.09.2024 19:47 20,1 °C 9,7 °C 57 % 79 % 1027,0 hPa 0,0 l/m² 2,0 km/h (1 Bft) O-NO 73 ° 0 min 0 W/m² 6,2 °C 9,7 °C 3,2 km/h (1 Bft)
29.09.2024 19:48 20,1 °C 9,6 °C 57 % 80 % 1027,1 hPa 0,0 l/m² 2,4 km/h (1 Bft) O-NO 73 ° 0 min 0 W/m² 6,3 °C 9,6 °C 3,2 km/h (1 Bft)
29.09.2024 19:49 20,1 °C 9,6 °C 57 % 80 % 1027,1 hPa 0,0 l/m² 2,3 km/h (1 Bft) O-NO 73 ° 0 min 0 W/m² 6,3 °C 9,6 °C 3,2 km/h (1 Bft)
29.09.2024 19:50 20,1 °C 9,5 °C 57 % 80 % 1027,0 hPa 0,0 l/m² 2,3 km/h (1 Bft) O-NO 73 ° 0 min 0 W/m² 6,2 °C 9,5 °C 3,2 km/h (1 Bft)
29.09.2024 19:51 20,1 °C 9,5 °C 57 % 80 % 1027,1 hPa 0,0 l/m² 1,7 km/h (1 Bft) O-NO 73 ° 0 min 0 W/m² 6,2 °C 9,5 °C 3,2 km/h (1 Bft)
29.09.2024 19:52 20,1 °C 9,5 °C 57 % 81 % 1027,2 hPa 0,0 l/m² 1,9 km/h (1 Bft) O-NO 73 ° 0 min 0 W/m² 6,4 °C 9,5 °C 3,2 km/h (1 Bft)
29.09.2024 19:53 20,1 °C 9,5 °C 57 % 80 % 1027,2 hPa 0,0 l/m² 2,3 km/h (1 Bft) O-NO 73 ° 0 min 0 W/m² 6,2 °C 9,5 °C 3,2 km/h (1 Bft)
29.09.2024 19:54 20,1 °C 9,5 °C 57 % 80 % 1027,0 hPa 0,0 l/m² 2,0 km/h (1 Bft) O-NO 73 ° 0 min 0 W/m² 6,2 °C 9,5 °C 3,2 km/h (1 Bft)
29.09.2024 19:55 20,1 °C 9,5 °C 57 % 80 % 1027,1 hPa 0,0 l/m² 1,7 km/h (1 Bft) O-NO 73 ° 0 min 0 W/m² 6,2 °C 9,5 °C 3,2 km/h (1 Bft)
29.09.2024 19:56 20,1 °C 9,6 °C 57 % 80 % 1027,1 hPa 0,0 l/m² 2,1 km/h (1 Bft) O-NO 73 ° 0 min 0 W/m² 6,3 °C 9,6 °C 3,2 km/h (1 Bft)
29.09.2024 19:57 20,1 °C 9,6 °C 57 % 80 % 1027,1 hPa 0,0 l/m² 1,3 km/h (1 Bft) O-NO 73 ° 0 min 0 W/m² 6,3 °C 9,6 °C 3,2 km/h (1 Bft)
29.09.2024 19:58 20,1 °C 9,6 °C 57 % 80 % 1027,1 hPa 0,0 l/m² 1,7 km/h (1 Bft) O-NO 73 ° 0 min 0 W/m² 6,3 °C 9,6 °C 3,2 km/h (1 Bft)
29.09.2024 19:59 20,1 °C 9,6 °C 57 % 80 % 1027,1 hPa 0,0 l/m² 1,9 km/h (1 Bft) O-NO 73 ° 0 min 0 W/m² 6,3 °C 9,6 °C 3,2 km/h (1 Bft)
29.09.2024 20:00 20,1 °C 9,6 °C 57 % 80 % 1027,0 hPa 0,0 l/m² 2,5 km/h (1 Bft) O-NO 73 ° 0 min 0 W/m² 6,3 °C 9,6 °C 3,2 km/h (1 Bft)
29.09.2024 20:02 20,1 °C 9,6 °C 57 % 80 % 1027,1 hPa 0,0 l/m² 2,2 km/h (1 Bft) O-NO 73 ° 0 min 0 W/m² 6,3 °C 9,6 °C 3,2 km/h (1 Bft)
29.09.2024 20:03 20,1 °C 9,6 °C 57 % 80 % 1027,1 hPa 0,0 l/m² 1,7 km/h (1 Bft) O-NO 73 ° 0 min 0 W/m² 6,3 °C 9,6 °C 3,2 km/h (1 Bft)
29.09.2024 20:04 20,1 °C 9,6 °C 57 % 80 % 1027,1 hPa 0,0 l/m² 1,6 km/h (1 Bft) O-NO 73 ° 0 min 0 W/m² 6,3 °C 9,6 °C 3,2 km/h (1 Bft)
29.09.2024 20:05 20,1 °C 9,6 °C 57 % 80 % 1027,1 hPa 0,0 l/m² 2,5 km/h (1 Bft) O-NO 73 ° 0 min 0 W/m² 6,3 °C 9,6 °C 3,2 km/h (1 Bft)
29.09.2024 20:06 20,1 °C 9,6 °C 57 % 80 % 1027,2 hPa 0,0 l/m² 0,5 km/h (0 Bft) O-NO 73 ° 0 min 0 W/m² 6,3 °C 9,6 °C 1,6 km/h (1 Bft)
29.09.2024 20:07 20,1 °C 9,5 °C 57 % 80 % 1027,1 hPa 0,0 l/m² 0,1 km/h (0 Bft) O-NO 73 ° 0 min 0 W/m² 6,2 °C 9,5 °C 1,6 km/h (1 Bft)
29.09.2024 20:08 20,1 °C 9,6 °C 57 % 80 % 1027,1 hPa 0,0 l/m² 0,0 km/h (0 Bft) O-NO 73 ° 0 min 0 W/m² 6,3 °C 9,6 °C 0,0 km/h (0 Bft)
29.09.2024 20:09 20,1 °C 9,5 °C 57 % 80 % 1027,1 hPa 0,0 l/m² 0,0 km/h (0 Bft) O-NO 73 ° 0 min 0 W/m² 6,2 °C 9,5 °C 0,0 km/h (0 Bft)
29.09.2024 20:10 20,1 °C 9,5 °C 57 % 80 % 1027,1 hPa 0,0 l/m² 0,0 km/h (0 Bft) O-NO 73 ° 0 min 0 W/m² 6,2 °C 9,5 °C 0,0 km/h (0 Bft)
29.09.2024 20:11 20,1 °C 9,4 °C 57 % 80 % 1027,1 hPa 0,0 l/m² 0,0 km/h (0 Bft) O-NO 73 ° 0 min 0 W/m² 6,1 °C 9,4 °C 0,0 km/h (0 Bft)
29.09.2024 20:12 20,1 °C 9,4 °C 57 % 80 % 1027,1 hPa 0,0 l/m² 0,3 km/h (0 Bft) O-NO 73 ° 0 min 0 W/m² 6,1 °C 9,4 °C 1,6 km/h (1 Bft)
29.09.2024 20:13 20,1 °C 9,3 °C 57 % 80 % 1027,1 hPa 0,0 l/m² 0,2 km/h (0 Bft) O-NO 73 ° 0 min 0 W/m² 6,0 °C 9,3 °C 1,6 km/h (1 Bft)
29.09.2024 20:14 20,1 °C 9,3 °C 57 % 80 % 1027,1 hPa 0,0 l/m² 0,0 km/h (0 Bft) O-NO 73 ° 0 min 0 W/m² 6,0 °C 9,3 °C 0,0 km/h (0 Bft)
29.09.2024 20:15 20,1 °C 9,2 °C 57 % 81 % 1027,0 hPa 0,0 l/m² 0,0 km/h (0 Bft) O-NO 73 ° 0 min 0 W/m² 6,1 °C 9,2 °C 0,0 km/h (0 Bft)
29.09.2024 20:16 20,1 °C 9,2 °C 57 % 81 % 1027,0 hPa 0,0 l/m² 0,4 km/h (0 Bft) O-NO 73 ° 0 min 0 W/m² 6,1 °C 9,2 °C 1,6 km/h (1 Bft)
29.09.2024 20:17 20,1 °C 9,1 °C 57 % 81 % 1027,1 hPa 0,0 l/m² 0,3 km/h (0 Bft) O-NO 73 ° 0 min 0 W/m² 6,0 °C 9,1 °C 1,6 km/h (1 Bft)
29.09.2024 20:18 20,1 °C 9,1 °C 57 % 81 % 1027,0 hPa 0,0 l/m² 0,0 km/h (0 Bft) O-NO 73 ° 0 min 0 W/m² 6,0 °C 9,1 °C 0,0 km/h (0 Bft)
29.09.2024 20:19 20,1 °C 9,0 °C 57 % 82 % 1027,0 hPa 0,0 l/m² 0,0 km/h (0 Bft) O-NO 73 ° 0 min 0 W/m² 6,1 °C 9,0 °C 0,0 km/h (0 Bft)
29.09.2024 20:20 20,1 °C 8,9 °C 57 % 82 % 1027,1 hPa 0,0 l/m² 0,3 km/h (0 Bft) O-NO 73 ° 0 min 0 W/m² 6,0 °C 8,9 °C 1,6 km/h (1 Bft)
29.09.2024 20:21 20,1 °C 8,9 °C 57 % 82 % 1027,0 hPa 0,0 l/m² 0,3 km/h (0 Bft) O-NO 73 ° 0 min 0 W/m² 6,0 °C 8,9 °C 1,6 km/h (1 Bft)
29.09.2024 20:22 20,1 °C 8,9 °C 57 % 82 % 1027,1 hPa 0,0 l/m² 0,0 km/h (0 Bft) O-NO 73 ° 0 min 0 W/m² 6,0 °C 8,9 °C 0,0 km/h (0 Bft)
29.09.2024 20:23 20,1 °C 8,8 °C 57 % 82 % 1027,1 hPa 0,0 l/m² 0,0 km/h (0 Bft) O-NO 73 ° 0 min 0 W/m² 5,9 °C 8,8 °C 0,0 km/h (0 Bft)
29.09.2024 20:24 20,1 °C 8,8 °C 57 % 82 % 1027,1 hPa 0,0 l/m² 0,0 km/h (0 Bft) O-NO 73 ° 0 min 0 W/m² 5,9 °C 8,8 °C 0,0 km/h (0 Bft)
29.09.2024 20:25 20,1 °C 8,8 °C 57 % 82 % 1027,1 hPa 0,0 l/m² 0,5 km/h (0 Bft) O-NO 73 ° 0 min 0 W/m² 5,9 °C 8,8 °C 1,6 km/h (1 Bft)
29.09.2024 20:26 20,1 °C 8,7 °C 57 % 83 % 1027,2 hPa 0,0 l/m² 0,0 km/h (0 Bft) O-NO 73 ° 0 min 0 W/m² 6,0 °C 8,7 °C 0,0 km/h (0 Bft)
29.09.2024 20:27 20,1 °C 8,7 °C 57 % 83 % 1027,1 hPa 0,0 l/m² 0,0 km/h (0 Bft) O-NO 73 ° 0 min 0 W/m² 6,0 °C 8,7 °C 0,0 km/h (0 Bft)
29.09.2024 20:28 20,1 °C 8,7 °C 57 % 83 % 1027,1 hPa 0,0 l/m² 0,0 km/h (0 Bft) O-NO 73 ° 0 min 0 W/m² 6,0 °C 8,7 °C 0,0 km/h (0 Bft)
29.09.2024 20:29 20,1 °C 8,6 °C 57 % 83 % 1027,1 hPa 0,0 l/m² 0,0 km/h (0 Bft) O-NO 73 ° 0 min 0 W/m² 5,9 °C 8,6 °C 0,0 km/h (0 Bft)
29.09.2024 20:30 20,0 °C 8,7 °C 57 % 83 % 1027,1 hPa 0,0 l/m² 0,7 km/h (0 Bft) O-NO 73 ° 0 min 0 W/m² 6,0 °C 8,7 °C 3,2 km/h (1 Bft)
29.09.2024 20:31 20,0 °C 8,6 °C 57 % 83 % 1027,1 hPa 0,0 l/m² 1,7 km/h (1 Bft) O-NO 73 ° 0 min 0 W/m² 5,9 °C 8,6 °C 3,2 km/h (1 Bft)
29.09.2024 20:32 20,1 °C 8,6 °C 57 % 83 % 1027,1 hPa 0,0 l/m² 1,3 km/h (1 Bft) O-NO 73 ° 0 min 0 W/m² 5,9 °C 8,6 °C 3,2 km/h (1 Bft)
29.09.2024 20:33 20,1 °C 8,6 °C 57 % 83 % 1027,0 hPa 0,0 l/m² 1,0 km/h (0 Bft) O-NO 73 ° 0 min 0 W/m² 5,9 °C 8,6 °C 1,6 km/h (1 Bft)
29.09.2024 20:34 20,1 °C 8,7 °C 57 % 83 % 1027,0 hPa 0,0 l/m² 1,1 km/h (1 Bft) O-NO 73 ° 0 min 0 W/m² 6,0 °C 8,7 °C 1,6 km/h (1 Bft)
29.09.2024 20:35 20,1 °C 8,7 °C 57 % 83 % 1027,0 hPa 0,0 l/m² 1,1 km/h (1 Bft) O-NO 73 ° 0 min 0 W/m² 6,0 °C 8,7 °C 1,6 km/h (1 Bft)
29.09.2024 20:36 20,1 °C 8,7 °C 57 % 83 % 1027,0 hPa 0,0 l/m² 1,0 km/h (0 Bft) O-NO 73 ° 0 min 0 W/m² 6,0 °C 8,7 °C 1,6 km/h (1 Bft)
29.09.2024 20:37 20,1 °C 8,7 °C 57 % 83 % 1027,1 hPa 0,0 l/m² 0,2 km/h (0 Bft) O-NO 73 ° 0 min 0 W/m² 6,0 °C 8,7 °C 1,6 km/h (1 Bft)
29.09.2024 20:38 20,0 °C 8,6 °C 57 % 83 % 1027,0 hPa 0,0 l/m² 0,0 km/h (0 Bft) O-NO 73 ° 0 min 0 W/m² 5,9 °C 8,6 °C 0,0 km/h (0 Bft)
29.09.2024 20:39 20,0 °C 8,6 °C 57 % 83 % 1027,0 hPa 0,0 l/m² 0,0 km/h (0 Bft) O-NO 73 ° 0 min 0 W/m² 5,9 °C 8,6 °C 0,0 km/h (0 Bft)
29.09.2024 20:40 20,0 °C 8,5 °C 57 % 83 % 1027,0 hPa 0,0 l/m² 0,0 km/h (0 Bft) O-NO 73 ° 0 min 0 W/m² 5,8 °C 8,5 °C 0,0 km/h (0 Bft)
29.09.2024 20:41 20,0 °C 8,5 °C 57 % 83 % 1027,0 hPa 0,0 l/m² 0,0 km/h (0 Bft) O-NO 73 ° 0 min 0 W/m² 5,8 °C 8,5 °C 0,0 km/h (0 Bft)
29.09.2024 20:42 20,0 °C 8,4 °C 57 % 84 % 1027,2 hPa 0,0 l/m² 0,0 km/h (0 Bft) O-NO 73 ° 0 min 0 W/m² 5,9 °C 8,4 °C 0,0 km/h (0 Bft)
29.09.2024 20:43 20,0 °C 8,4 °C 57 % 84 % 1027,1 hPa 0,0 l/m² 0,0 km/h (0 Bft) O-NO 73 ° 0 min 0 W/m² 5,9 °C 8,4 °C 0,0 km/h (0 Bft)
29.09.2024 20:44 20,0 °C 8,3 °C 57 % 84 % 1027,1 hPa 0,0 l/m² 0,0 km/h (0 Bft) O-NO 73 ° 0 min 0 W/m² 5,8 °C 8,3 °C 0,0 km/h (0 Bft)
29.09.2024 20:46 20,1 °C 8,3 °C 57 % 84 % 1027,1 hPa 0,0 l/m² 0,0 km/h (0 Bft) O-NO 73 ° 0 min 0 W/m² 5,8 °C 8,3 °C 0,0 km/h (0 Bft)
29.09.2024 20:47 20,1 °C 8,3 °C 57 % 84 % 1027,1 hPa 0,0 l/m² 0,0 km/h (0 Bft) O-NO 73 ° 0 min 0 W/m² 5,8 °C 8,3 °C 0,0 km/h (0 Bft)
29.09.2024 20:48 20,1 °C 8,3 °C 57 % 84 % 1027,1 hPa 0,0 l/m² 0,0 km/h (0 Bft) O-NO 73 ° 0 min 0 W/m² 5,8 °C 8,3 °C 0,0 km/h (0 Bft)
29.09.2024 20:49 20,0 °C 8,3 °C 57 % 84 % 1027,1 hPa 0,0 l/m² 0,0 km/h (0 Bft) O-NO 73 ° 0 min 0 W/m² 5,8 °C 8,3 °C 0,0 km/h (0 Bft)
29.09.2024 20:50 20,0 °C 8,3 °C 57 % 85 % 1027,2 hPa 0,0 l/m² 1,9 km/h (1 Bft) O-NO 73 ° 0 min 0 W/m² 5,9 °C 8,3 °C 3,2 km/h (1 Bft)
29.09.2024 20:51 20,1 °C 8,2 °C 57 % 85 % 1027,2 hPa 0,0 l/m² 1,5 km/h (1 Bft) O-NO 73 ° 0 min 0 W/m² 5,8 °C 8,2 °C 3,2 km/h (1 Bft)
29.09.2024 20:52 20,1 °C 8,2 °C 57 % 85 % 1027,1 hPa 0,0 l/m² 0,3 km/h (0 Bft) O-NO 73 ° 0 min 0 W/m² 5,8 °C 8,2 °C 1,6 km/h (1 Bft)
29.09.2024 20:53 20,0 °C 8,1 °C 57 % 85 % 1027,2 hPa 0,0 l/m² 0,2 km/h (0 Bft) O-NO 73 ° 0 min 0 W/m² 5,7 °C 8,1 °C 1,6 km/h (1 Bft)
29.09.2024 20:54 20,0 °C 8,1 °C 57 % 85 % 1027,2 hPa 0,0 l/m² 1,1 km/h (1 Bft) O-NO 73 ° 0 min 0 W/m² 5,7 °C 8,1 °C 3,2 km/h (1 Bft)
29.09.2024 20:55 20,1 °C 8,1 °C 57 % 85 % 1027,1 hPa 0,0 l/m² 1,5 km/h (1 Bft) O-NO 73 ° 0 min 0 W/m² 5,7 °C 8,1 °C 1,6 km/h (1 Bft)
29.09.2024 20:56 20,0 °C 8,1 °C 57 % 86 % 1027,1 hPa 0,0 l/m² 2,0 km/h (1 Bft) O-NO 73 ° 0 min 0 W/m² 5,9 °C 8,1 °C 3,2 km/h (1 Bft)
29.09.2024 20:57 20,1 °C 8,1 °C 57 % 86 % 1027,1 hPa 0,0 l/m² 0,8 km/h (0 Bft) O-NO 73 ° 0 min 0 W/m² 5,9 °C 8,1 °C 3,2 km/h (1 Bft)
29.09.2024 20:58 20,1 °C 8,1 °C 57 % 86 % 1027,1 hPa 0,0 l/m² 0,0 km/h (0 Bft) O-NO 73 ° 0 min 0 W/m² 5,9 °C 8,1 °C 0,0 km/h (0 Bft)
29.09.2024 20:59 20,0 °C 8,1 °C 57 % 86 % 1027,2 hPa 0,0 l/m² 0,0 km/h (0 Bft) O-NO 73 ° 0 min 0 W/m² 5,9 °C 8,1 °C 0,0 km/h (0 Bft)
29.09.2024 21:00 20,1 °C 8,1 °C 57 % 86 % 1027,1 hPa 0,0 l/m² 0,0 km/h (0 Bft) O-NO 73 ° 0 min 0 W/m² 5,9 °C 8,1 °C 0,0 km/h (0 Bft)
29.09.2024 21:01 20,0 °C 8,2 °C 57 % 86 % 1027,1 hPa 0,0 l/m² 0,0 km/h (0 Bft) O-NO 73 ° 0 min 0 W/m² 6,0 °C 8,2 °C 0,0 km/h (0 Bft)
29.09.2024 21:02 20,0 °C 8,1 °C 57 % 86 % 1027,1 hPa 0,0 l/m² 0,0 km/h (0 Bft) O-NO 73 ° 0 min 0 W/m² 5,9 °C 8,1 °C 0,0 km/h (0 Bft)
29.09.2024 21:03 20,0 °C 8,1 °C 57 % 86 % 1027,1 hPa 0,0 l/m² 0,0 km/h (0 Bft) O-NO 73 ° 0 min 0 W/m² 5,9 °C 8,1 °C 0,0 km/h (0 Bft)
29.09.2024 21:04 20,1 °C 8,2 °C 57 % 86 % 1027,1 hPa 0,0 l/m² 0,0 km/h (0 Bft) O-NO 73 ° 0 min 0 W/m² 6,0 °C 8,2 °C 0,0 km/h (0 Bft)
29.09.2024 21:05 20,0 °C 8,1 °C 57 % 86 % 1027,1 hPa 0,0 l/m² 0,0 km/h (0 Bft) O-NO 73 ° 0 min 0 W/m² 5,9 °C 8,1 °C 0,0 km/h (0 Bft)
29.09.2024 21:06 20,0 °C 8,1 °C 57 % 86 % 1027,1 hPa 0,0 l/m² 0,0 km/h (0 Bft) O-NO 73 ° 0 min 0 W/m² 5,9 °C 8,1 °C 0,0 km/h (0 Bft)
29.09.2024 21:07 20,1 °C 8,1 °C 57 % 86 % 1027,1 hPa 0,0 l/m² 1,0 km/h (0 Bft) O-NO 73 ° 0 min 0 W/m² 5,9 °C 8,1 °C 3,2 km/h (1 Bft)
29.09.2024 21:08 20,0 °C 8,1 °C 57 % 86 % 1027,1 hPa 0,0 l/m² 0,4 km/h (0 Bft) O-NO 73 ° 0 min 0 W/m² 5,9 °C 8,1 °C 3,2 km/h (1 Bft)
29.09.2024 21:09 20,0 °C 8,1 °C 57 % 86 % 1027,0 hPa 0,0 l/m² 0,0 km/h (0 Bft) O-NO 73 ° 0 min 0 W/m² 5,9 °C 8,1 °C 0,0 km/h (0 Bft)
29.09.2024 21:10 20,0 °C 8,1 °C 57 % 86 % 1027,1 hPa 0,0 l/m² 0,5 km/h (0 Bft) O-NO 73 ° 0 min 0 W/m² 5,9 °C 8,1 °C 1,6 km/h (1 Bft)
29.09.2024 21:11 20,1 °C 8,0 °C 57 % 86 % 1027,0 hPa 0,0 l/m² 0,1 km/h (0 Bft) O-NO 73 ° 0 min 0 W/m² 5,8 °C 8,0 °C 1,6 km/h (1 Bft)
29.09.2024 21:12 20,0 °C 7,9 °C 57 % 85 % 1027,0 hPa 0,0 l/m² 0,8 km/h (0 Bft) O-NO 73 ° 0 min 0 W/m² 5,5 °C 7,9 °C 3,2 km/h (1 Bft)
29.09.2024 21:13 20,0 °C 7,9 °C 57 % 86 % 1027,0 hPa 0,0 l/m² 2,0 km/h (1 Bft) O-NO 73 ° 0 min 0 W/m² 5,7 °C 7,9 °C 3,2 km/h (1 Bft)
29.09.2024 21:14 20,0 °C 7,9 °C 57 % 86 % 1027,0 hPa 0,0 l/m² 1,1 km/h (1 Bft) O-NO 73 ° 0 min 0 W/m² 5,7 °C 7,9 °C 3,2 km/h (1 Bft)
29.09.2024 21:15 20,0 °C 7,9 °C 57 % 86 % 1027,0 hPa 0,0 l/m² 1,2 km/h (1 Bft) O-NO 73 ° 0 min 0 W/m² 5,7 °C 7,9 °C 3,2 km/h (1 Bft)
29.09.2024 21:16 20,0 °C 7,8 °C 57 % 86 % 1027,0 hPa 0,0 l/m² 1,5 km/h (1 Bft) O-NO 73 ° 0 min 0 W/m² 5,6 °C 7,8 °C 3,2 km/h (1 Bft)
29.09.2024 21:17 20,0 °C 7,8 °C 57 % 86 % 1027,0 hPa 0,0 l/m² 1,9 km/h (1 Bft) O-NO 73 ° 0 min 0 W/m² 5,6 °C 7,8 °C 3,2 km/h (1 Bft)
29.09.2024 21:18 20,0 °C 7,8 °C 57 % 86 % 1027,0 hPa 0,0 l/m² 1,5 km/h (1 Bft) O-NO 73 ° 0 min 0 W/m² 5,6 °C 7,8 °C 3,2 km/h (1 Bft)
29.09.2024 21:19 20,0 °C 7,8 °C 57 % 86 % 1027,0 hPa 0,0 l/m² 1,1 km/h (1 Bft) O-NO 73 ° 0 min 0 W/m² 5,6 °C 7,8 °C 3,2 km/h (1 Bft)
29.09.2024 21:20 20,0 °C 7,8 °C 57 % 86 % 1027,0 hPa 0,0 l/m² 0,3 km/h (0 Bft) O-NO 73 ° 0 min 0 W/m² 5,6 °C 7,8 °C 1,6 km/h (1 Bft)
29.09.2024 21:21 20,0 °C 7,8 °C 57 % 86 % 1027,0 hPa 0,0 l/m² 0,0 km/h (0 Bft) O-NO 73 ° 0 min 0 W/m² 5,6 °C 7,8 °C 0,0 km/h (0 Bft)
29.09.2024 21:22 20,0 °C 7,8 °C 57 % 86 % 1026,9 hPa 0,0 l/m² 0,1 km/h (0 Bft) O-NO 73 ° 0 min 0 W/m² 5,6 °C 7,8 °C 1,6 km/h (1 Bft)
29.09.2024 21:23 20,0 °C 7,7 °C 57 % 86 % 1027,1 hPa 0,0 l/m² 0,0 km/h (0 Bft) O-NO 73 ° 0 min 0 W/m² 5,5 °C 7,7 °C 0,0 km/h (0 Bft)
29.09.2024 21:24 20,0 °C 7,7 °C 57 % 86 % 1027,0 hPa 0,0 l/m² 1,7 km/h (1 Bft) O-NO 73 ° 0 min 0 W/m² 5,5 °C 7,7 °C 3,2 km/h (1 Bft)
29.09.2024 21:25 20,0 °C 7,7 °C 57 % 86 % 1027,0 hPa 0,0 l/m² 2,6 km/h (1 Bft) O-NO 73 ° 0 min 0 W/m² 5,5 °C 7,7 °C 3,2 km/h (1 Bft)
29.09.2024 21:26 20,0 °C 7,7 °C 57 % 86 % 1027,0 hPa 0,0 l/m² 3,3 km/h (1 Bft) O-NO 73 ° 0 min 0 W/m² 5,5 °C 7,7 °C 4,8 km/h (1 Bft)
29.09.2024 21:27 20,0 °C 7,7 °C 57 % 86 % 1026,9 hPa 0,0 l/m² 3,1 km/h (1 Bft) O-NO 73 ° 0 min 0 W/m² 5,5 °C 7,7 °C 4,8 km/h (1 Bft)
29.09.2024 21:28 20,0 °C 7,6 °C 57 % 87 % 1026,9 hPa 0,0 l/m² 2,4 km/h (1 Bft) O-NO 73 ° 0 min 0 W/m² 5,6 °C 7,6 °C 3,2 km/h (1 Bft)
29.09.2024 21:29 20,0 °C 7,6 °C 57 % 87 % 1026,9 hPa 0,0 l/m² 2,5 km/h (1 Bft) O-NO 73 ° 0 min 0 W/m² 5,6 °C 7,6 °C 4,8 km/h (1 Bft)
29.09.2024 21:30 20,0 °C 7,6 °C 57 % 87 % 1026,9 hPa 0,0 l/m² 3,3 km/h (1 Bft) O-NO 73 ° 0 min 0 W/m² 5,6 °C 7,6 °C 4,8 km/h (1 Bft)
29.09.2024 21:31 20,0 °C 7,5 °C 57 % 87 % 1026,9 hPa 0,0 l/m² 2,8 km/h (1 Bft) O-NO 73 ° 0 min 0 W/m² 5,5 °C 7,5 °C 4,8 km/h (1 Bft)
29.09.2024 21:32 20,0 °C 7,6 °C 57 % 87 % 1026,9 hPa 0,0 l/m² 2,2 km/h (1 Bft) O-NO 73 ° 0 min 0 W/m² 5,6 °C 7,6 °C 3,2 km/h (1 Bft)
29.09.2024 21:33 20,0 °C 7,6 °C 57 % 87 % 1026,9 hPa 0,0 l/m² 0,8 km/h (0 Bft) O-NO 73 ° 0 min 0 W/m² 5,6 °C 7,6 °C 1,6 km/h (1 Bft)
29.09.2024 21:34 20,0 °C 7,5 °C 57 % 87 % 1026,8 hPa 0,0 l/m² 0,7 km/h (0 Bft) O-NO 73 ° 0 min 0 W/m² 5,5 °C 7,5 °C 1,6 km/h (1 Bft)
29.09.2024 21:35 20,0 °C 7,6 °C 57 % 87 % 1026,9 hPa 0,0 l/m² 1,1 km/h (1 Bft) O-NO 73 ° 0 min 0 W/m² 5,6 °C 7,6 °C 1,6 km/h (1 Bft)
29.09.2024 21:37 20,0 °C 7,6 °C 57 % 87 % 1026,9 hPa 0,0 l/m² 2,1 km/h (1 Bft) O-NO 73 ° 0 min 0 W/m² 5,6 °C 7,6 °C 4,8 km/h (1 Bft)
29.09.2024 21:38 20,0 °C 7,6 °C 57 % 87 % 1026,9 hPa 0,0 l/m² 2,1 km/h (1 Bft) O-NO 73 ° 0 min 0 W/m² 5,6 °C 7,6 °C 3,2 km/h (1 Bft)
29.09.2024 21:39 20,0 °C 7,6 °C 57 % 87 % 1026,8 hPa 0,0 l/m² 2,7 km/h (1 Bft) O-NO 73 ° 0 min 0 W/m² 5,6 °C 7,6 °C 4,8 km/h (1 Bft)
29.09.2024 21:40 20,0 °C 7,6 °C 57 % 87 % 1026,8 hPa 0,0 l/m² 2,5 km/h (1 Bft) O-NO 73 ° 0 min 0 W/m² 5,6 °C 7,6 °C 3,2 km/h (1 Bft)
29.09.2024 21:41 20,0 °C 7,5 °C 57 % 87 % 1026,9 hPa 0,0 l/m² 3,2 km/h (1 Bft) O-NO 73 ° 0 min 0 W/m² 5,5 °C 7,5 °C 4,8 km/h (1 Bft)
29.09.2024 21:42 20,0 °C 7,6 °C 57 % 87 % 1026,8 hPa 0,0 l/m² 3,6 km/h (1 Bft) O-NO 73 ° 0 min 0 W/m² 5,6 °C 7,6 °C 4,8 km/h (1 Bft)
29.09.2024 21:43 20,0 °C 7,6 °C 57 % 87 % 1026,7 hPa 0,0 l/m² 3,6 km/h (1 Bft) O-NO 73 ° 0 min 0 W/m² 5,6 °C 7,6 °C 4,8 km/h (1 Bft)
29.09.2024 21:44 20,0 °C 7,6 °C 57 % 87 % 1026,7 hPa 0,0 l/m² 2,6 km/h (1 Bft) O-NO 73 ° 0 min 0 W/m² 5,6 °C 7,6 °C 4,8 km/h (1 Bft)
29.09.2024 21:46 20,0 °C 7,6 °C 57 % 87 % 1026,7 hPa 0,0 l/m² 2,5 km/h (1 Bft) O-NO 73 ° 0 min 0 W/m² 5,6 °C 7,6 °C 4,8 km/h (1 Bft)
29.09.2024 21:47 20,0 °C 7,5 °C 57 % 87 % 1026,6 hPa 0,0 l/m² 2,5 km/h (1 Bft) O-NO 73 ° 0 min 0 W/m² 5,5 °C 7,5 °C 3,2 km/h (1 Bft)
29.09.2024 21:48 20,0 °C 7,6 °C 57 % 87 % 1026,7 hPa 0,0 l/m² 3,4 km/h (1 Bft) O-NO 73 ° 0 min 0 W/m² 5,6 °C 7,6 °C 4,8 km/h (1 Bft)
29.09.2024 21:49 20,0 °C 7,4 °C 57 % 87 % 1026,8 hPa 0,0 l/m² 3,0 km/h (1 Bft) O-NO 73 ° 0 min 0 W/m² 5,4 °C 7,4 °C 4,8 km/h (1 Bft)
29.09.2024 21:50 20,0 °C 7,4 °C 57 % 87 % 1026,7 hPa 0,0 l/m² 3,0 km/h (1 Bft) O-NO 73 ° 0 min 0 W/m² 5,4 °C 7,4 °C 4,8 km/h (1 Bft)
29.09.2024 21:51 20,0 °C 7,4 °C 57 % 87 % 1026,7 hPa 0,0 l/m² 3,3 km/h (1 Bft) O-NO 73 ° 0 min 0 W/m² 5,4 °C 7,4 °C 4,8 km/h (1 Bft)
29.09.2024 21:52 19,9 °C 7,4 °C 57 % 87 % 1026,7 hPa 0,0 l/m² 3,3 km/h (1 Bft) O-NO 73 ° 0 min 0 W/m² 5,4 °C 7,4 °C 4,8 km/h (1 Bft)
29.09.2024 21:53 20,0 °C 7,4 °C 57 % 87 % 1026,7 hPa 0,0 l/m² 2,3 km/h (1 Bft) O-NO 73 ° 0 min 0 W/m² 5,4 °C 7,4 °C 4,8 km/h (1 Bft)
29.09.2024 21:54 20,0 °C 7,4 °C 57 % 87 % 1026,7 hPa 0,0 l/m² 2,8 km/h (1 Bft) O-NO 73 ° 0 min 0 W/m² 5,4 °C 7,4 °C 3,2 km/h (1 Bft)
29.09.2024 21:55 20,0 °C 7,4 °C 57 % 87 % 1026,7 hPa 0,0 l/m² 3,2 km/h (1 Bft) O-NO 73 ° 0 min 0 W/m² 5,4 °C 7,4 °C 4,8 km/h (1 Bft)
29.09.2024 21:56 20,0 °C 7,4 °C 57 % 87 % 1026,8 hPa 0,0 l/m² 3,0 km/h (1 Bft) O-NO 73 ° 0 min 0 W/m² 5,4 °C 7,4 °C 3,2 km/h (1 Bft)
29.09.2024 21:57 20,0 °C 7,4 °C 57 % 87 % 1026,7 hPa 0,0 l/m² 2,0 km/h (1 Bft) O-NO 73 ° 0 min 0 W/m² 5,4 °C 7,4 °C 3,2 km/h (1 Bft)
29.09.2024 21:58 20,0 °C 7,4 °C 57 % 88 % 1026,7 hPa 0,0 l/m² 2,0 km/h (1 Bft) O-NO 73 ° 0 min 0 W/m² 5,5 °C 7,4 °C 3,2 km/h (1 Bft)
29.09.2024 21:59 20,0 °C 7,3 °C 57 % 88 % 1026,8 hPa 0,0 l/m² 1,5 km/h (1 Bft) O-NO 73 ° 0 min 0 W/m² 5,4 °C 7,3 °C 3,2 km/h (1 Bft)
29.09.2024 22:00 20,0 °C 7,3 °C 57 % 88 % 1026,7 hPa 0,0 l/m² 2,0 km/h (1 Bft) O-NO 73 ° 0 min 0 W/m² 5,4 °C 7,3 °C 3,2 km/h (1 Bft)
29.09.2024 22:02 19,9 °C 7,3 °C 57 % 88 % 1026,7 hPa 0,0 l/m² 1,7 km/h (1 Bft) O-NO 73 ° 0 min 0 W/m² 5,4 °C 7,3 °C 3,2 km/h (1 Bft)
29.09.2024 22:03 19,9 °C 7,3 °C 57 % 88 % 1026,7 hPa 0,0 l/m² 1,6 km/h (1 Bft) O-NO 73 ° 0 min 0 W/m² 5,4 °C 7,3 °C 3,2 km/h (1 Bft)
29.09.2024 22:04 19,9 °C 7,2 °C 57 % 88 % 1026,7 hPa 0,0 l/m² 1,5 km/h (1 Bft) O-NO 73 ° 0 min 0 W/m² 5,3 °C 7,2 °C 3,2 km/h (1 Bft)
29.09.2024 22:05 20,0 °C 7,2 °C 57 % 88 % 1026,7 hPa 0,0 l/m² 1,4 km/h (1 Bft) O-NO 73 ° 0 min 0 W/m² 5,3 °C 7,2 °C 3,2 km/h (1 Bft)
29.09.2024 22:06 20,0 °C 7,2 °C 57 % 88 % 1026,7 hPa 0,0 l/m² 1,8 km/h (1 Bft) O-NO 73 ° 0 min 0 W/m² 5,3 °C 7,2 °C 3,2 km/h (1 Bft)
29.09.2024 22:07 20,0 °C 7,2 °C 57 % 88 % 1026,8 hPa 0,0 l/m² 0,9 km/h (0 Bft) O-NO 73 ° 0 min 0 W/m² 5,3 °C 7,2 °C 1,6 km/h (1 Bft)
29.09.2024 22:08 19,9 °C 7,2 °C 57 % 88 % 1026,7 hPa 0,0 l/m² 0,3 km/h (0 Bft) O-NO 73 ° 0 min 0 W/m² 5,3 °C 7,2 °C 1,6 km/h (1 Bft)
29.09.2024 22:09 20,0 °C 7,2 °C 57 % 88 % 1026,7 hPa 0,0 l/m² 0,7 km/h (0 Bft) O-NO 73 ° 0 min 0 W/m² 5,3 °C 7,2 °C 1,6 km/h (1 Bft)
29.09.2024 22:10 20,0 °C 7,2 °C 57 % 89 % 1026,7 hPa 0,0 l/m² 0,1 km/h (0 Bft) O-NO 73 ° 0 min 0 W/m² 5,5 °C 7,2 °C 1,6 km/h (1 Bft)
29.09.2024 22:11 19,9 °C 7,2 °C 57 % 88 % 1026,6 hPa 0,0 l/m² 0,9 km/h (0 Bft) O-NO 73 ° 0 min 0 W/m² 5,3 °C 7,2 °C 1,6 km/h (1 Bft)
29.09.2024 22:12 19,9 °C 7,2 °C 57 % 89 % 1026,6 hPa 0,0 l/m² 1,1 km/h (1 Bft) O-NO 73 ° 0 min 0 W/m² 5,5 °C 7,2 °C 1,6 km/h (1 Bft)
29.09.2024 22:13 20,0 °C 7,2 °C 57 % 89 % 1026,6 hPa 0,0 l/m² 1,3 km/h (1 Bft) O-NO 73 ° 0 min 0 W/m² 5,5 °C 7,2 °C 3,2 km/h (1 Bft)
29.09.2024 22:14 20,0 °C 7,2 °C 57 % 89 % 1026,6 hPa 0,0 l/m² 2,3 km/h (1 Bft) O-NO 73 ° 0 min 0 W/m² 5,5 °C 7,2 °C 4,8 km/h (1 Bft)
29.09.2024 22:15 20,0 °C 7,3 °C 57 % 89 % 1026,5 hPa 0,0 l/m² 2,0 km/h (1 Bft) O-NO 73 ° 0 min 0 W/m² 5,6 °C 7,3 °C 3,2 km/h (1 Bft)
29.09.2024 22:16 19,9 °C 7,3 °C 57 % 89 % 1026,5 hPa 0,0 l/m² 1,0 km/h (0 Bft) O-NO 73 ° 0 min 0 W/m² 5,6 °C 7,3 °C 3,2 km/h (1 Bft)
29.09.2024 22:17 20,0 °C 7,3 °C 57 % 89 % 1026,6 hPa 0,0 l/m² 2,2 km/h (1 Bft) O-NO 73 ° 0 min 0 W/m² 5,6 °C 7,3 °C 3,2 km/h (1 Bft)
29.09.2024 22:18 19,9 °C 7,3 °C 57 % 89 % 1026,6 hPa 0,0 l/m² 2,1 km/h (1 Bft) O-NO 73 ° 0 min 0 W/m² 5,6 °C 7,3 °C 3,2 km/h (1 Bft)
29.09.2024 22:19 20,0 °C 7,4 °C 57 % 89 % 1026,5 hPa 0,0 l/m² 2,1 km/h (1 Bft) O-NO 73 ° 0 min 0 W/m² 5,7 °C 7,4 °C 3,2 km/h (1 Bft)
29.09.2024 22:20 20,0 °C 7,4 °C 57 % 88 % 1026,5 hPa 0,0 l/m² 2,6 km/h (1 Bft) O-NO 73 ° 0 min 0 W/m² 5,5 °C 7,4 °C 4,8 km/h (1 Bft)
29.09.2024 22:21 20,0 °C 7,4 °C 57 % 88 % 1026,5 hPa 0,0 l/m² 0,8 km/h (0 Bft) O-NO 73 ° 0 min 0 W/m² 5,5 °C 7,4 °C 3,2 km/h (1 Bft)
29.09.2024 22:22 19,9 °C 7,4 °C 57 % 88 % 1026,5 hPa 0,0 l/m² 1,1 km/h (1 Bft) O-NO 73 ° 0 min 0 W/m² 5,5 °C 7,4 °C 3,2 km/h (1 Bft)
29.09.2024 22:23 19,9 °C 7,4 °C 57 % 88 % 1026,5 hPa 0,0 l/m² 0,8 km/h (0 Bft) O-NO 73 ° 0 min 0 W/m² 5,5 °C 7,4 °C 3,2 km/h (1 Bft)
29.09.2024 22:24 20,0 °C 7,5 °C 57 % 88 % 1026,4 hPa 0,0 l/m² 0,3 km/h (0 Bft) O-NO 73 ° 0 min 0 W/m² 5,6 °C 7,5 °C 1,6 km/h (1 Bft)
29.09.2024 22:25 19,9 °C 7,5 °C 57 % 88 % 1026,5 hPa 0,0 l/m² 0,5 km/h (0 Bft) O-NO 73 ° 0 min 0 W/m² 5,6 °C 7,5 °C 1,6 km/h (1 Bft)
29.09.2024 22:26 19,9 °C 7,5 °C 57 % 88 % 1026,5 hPa 0,0 l/m² 1,5 km/h (1 Bft) O-NO 73 ° 0 min 0 W/m² 5,6 °C 7,5 °C 3,2 km/h (1 Bft)
29.09.2024 22:27 19,9 °C 7,5 °C 57 % 88 % 1026,5 hPa 0,0 l/m² 1,0 km/h (0 Bft) O-NO 73 ° 0 min 0 W/m² 5,6 °C 7,5 °C 1,6 km/h (1 Bft)
29.09.2024 22:28 19,9 °C 7,4 °C 57 % 88 % 1026,4 hPa 0,0 l/m² 1,7 km/h (1 Bft) O-NO 73 ° 0 min 0 W/m² 5,5 °C 7,4 °C 3,2 km/h (1 Bft)
29.09.2024 22:29 19,9 °C 7,4 °C 57 % 88 % 1026,4 hPa 0,0 l/m² 1,5 km/h (1 Bft) O-NO 73 ° 0 min 0 W/m² 5,5 °C 7,4 °C 3,2 km/h (1 Bft)
29.09.2024 22:30 19,9 °C 7,4 °C 57 % 88 % 1026,4 hPa 0,0 l/m² 1,4 km/h (1 Bft) O-NO 73 ° 0 min 0 W/m² 5,5 °C 7,4 °C 3,2 km/h (1 Bft)
29.09.2024 22:31 19,9 °C 7,4 °C 57 % 88 % 1026,5 hPa 0,0 l/m² 1,0 km/h (0 Bft) O-NO 73 ° 0 min 0 W/m² 5,5 °C 7,4 °C 1,6 km/h (1 Bft)
29.09.2024 22:32 20,0 °C 7,3 °C 57 % 88 % 1026,5 hPa 0,0 l/m² 1,3 km/h (1 Bft) O-NO 73 ° 0 min 0 W/m² 5,4 °C 7,3 °C 3,2 km/h (1 Bft)
29.09.2024 22:33 19,9 °C 7,3 °C 57 % 88 % 1026,4 hPa 0,0 l/m² 0,2 km/h (0 Bft) O-NO 73 ° 0 min 0 W/m² 5,4 °C 7,3 °C 1,6 km/h (1 Bft)
29.09.2024 22:34 19,9 °C 7,3 °C 57 % 88 % 1026,4 hPa 0,0 l/m² 0,3 km/h (0 Bft) O-NO 73 ° 0 min 0 W/m² 5,4 °C 7,3 °C 1,6 km/h (1 Bft)
29.09.2024 22:35 19,9 °C 7,3 °C 57 % 88 % 1026,4 hPa 0,0 l/m² 0,8 km/h (0 Bft) O-NO 73 ° 0 min 0 W/m² 5,4 °C 7,3 °C 1,6 km/h (1 Bft)
29.09.2024 22:36 19,9 °C 7,3 °C 57 % 88 % 1026,3 hPa 0,0 l/m² 1,5 km/h (1 Bft) O-NO 73 ° 0 min 0 W/m² 5,4 °C 7,3 °C 3,2 km/h (1 Bft)
29.09.2024 22:37 19,9 °C 7,2 °C 57 % 88 % 1026,4 hPa 0,0 l/m² 1,6 km/h (1 Bft) O-NO 73 ° 0 min 0 W/m² 5,3 °C 7,2 °C 3,2 km/h (1 Bft)
29.09.2024 22:38 19,9 °C 7,2 °C 57 % 88 % 1026,3 hPa 0,0 l/m² 0,2 km/h (0 Bft) O-NO 73 ° 0 min 0 W/m² 5,3 °C 7,2 °C 1,6 km/h (1 Bft)
29.09.2024 22:39 19,9 °C 7,2 °C 57 % 88 % 1026,3 hPa 0,0 l/m² 0,9 km/h (0 Bft) O-NO 73 ° 0 min 0 W/m² 5,3 °C 7,2 °C 1,6 km/h (1 Bft)
29.09.2024 22:40 19,9 °C 7,2 °C 57 % 89 % 1026,3 hPa 0,0 l/m² 2,0 km/h (1 Bft) O-NO 73 ° 0 min 0 W/m² 5,5 °C 7,2 °C 3,2 km/h (1 Bft)
29.09.2024 22:41 19,9 °C 7,2 °C 57 % 89 % 1026,4 hPa 0,0 l/m² 2,2 km/h (1 Bft) O-NO 73 ° 0 min 0 W/m² 5,5 °C 7,2 °C 3,2 km/h (1 Bft)
29.09.2024 22:42 19,9 °C 7,2 °C 57 % 88 % 1026,3 hPa 0,0 l/m² 1,2 km/h (1 Bft) O-NO 73 ° 0 min 0 W/m² 5,3 °C 7,2 °C 3,2 km/h (1 Bft)
29.09.2024 22:43 19,9 °C 7,1 °C 57 % 88 % 1026,3 hPa 0,0 l/m² 1,7 km/h (1 Bft) O-NO 73 ° 0 min 0 W/m² 5,2 °C 7,1 °C 4,8 km/h (1 Bft)
29.09.2024 22:44 19,9 °C 7,1 °C 57 % 89 % 1026,3 hPa 0,0 l/m² 1,3 km/h (1 Bft) O-NO 73 ° 0 min 0 W/m² 5,4 °C 7,1 °C 3,2 km/h (1 Bft)
29.09.2024 22:45 19,9 °C 7,1 °C 57 % 89 % 1026,3 hPa 0,0 l/m² 1,8 km/h (1 Bft) O-NO 73 ° 0 min 0 W/m² 5,4 °C 7,1 °C 3,2 km/h (1 Bft)
29.09.2024 22:46 19,9 °C 7,1 °C 57 % 89 % 1026,3 hPa 0,0 l/m² 2,4 km/h (1 Bft) O-NO 73 ° 0 min 0 W/m² 5,4 °C 7,1 °C 3,2 km/h (1 Bft)
29.09.2024 22:47 19,9 °C 7,1 °C 57 % 89 % 1026,3 hPa 0,0 l/m² 1,4 km/h (1 Bft) O-NO 73 ° 0 min 0 W/m² 5,4 °C 7,1 °C 3,2 km/h (1 Bft)
29.09.2024 22:48 19,9 °C 7,1 °C 57 % 89 % 1026,3 hPa 0,0 l/m² 1,3 km/h (1 Bft) O-NO 73 ° 0 min 0 W/m² 5,4 °C 7,1 °C 3,2 km/h (1 Bft)
29.09.2024 22:49 19,9 °C 7,1 °C 57 % 89 % 1026,3 hPa 0,0 l/m² 1,5 km/h (1 Bft) O-NO 73 ° 0 min 0 W/m² 5,4 °C 7,1 °C 3,2 km/h (1 Bft)
29.09.2024 22:50 19,9 °C 7,1 °C 57 % 89 % 1026,2 hPa 0,0 l/m² 1,3 km/h (1 Bft) O-NO 73 ° 0 min 0 W/m² 5,4 °C 7,1 °C 3,2 km/h (1 Bft)
29.09.2024 22:51 19,9 °C 7,1 °C 57 % 89 % 1026,2 hPa 0,0 l/m² 1,3 km/h (1 Bft) O-NO 73 ° 0 min 0 W/m² 5,4 °C 7,1 °C 3,2 km/h (1 Bft)
29.09.2024 22:52 19,9 °C 7,1 °C 57 % 89 % 1026,3 hPa 0,0 l/m² 2,3 km/h (1 Bft) O-NO 73 ° 0 min 0 W/m² 5,4 °C 7,1 °C 3,2 km/h (1 Bft)
29.09.2024 22:53 19,9 °C 7,1 °C 57 % 89 % 1026,2 hPa 0,0 l/m² 2,7 km/h (1 Bft) O-NO 73 ° 0 min 0 W/m² 5,4 °C 7,1 °C 4,8 km/h (1 Bft)
29.09.2024 22:54 19,9 °C 7,1 °C 57 % 89 % 1026,2 hPa 0,0 l/m² 2,1 km/h (1 Bft) O-NO 73 ° 0 min 0 W/m² 5,4 °C 7,1 °C 4,8 km/h (1 Bft)
29.09.2024 22:55 19,9 °C 7,2 °C 57 % 89 % 1026,1 hPa 0,0 l/m² 1,9 km/h (1 Bft) O-NO 73 ° 0 min 0 W/m² 5,5 °C 7,2 °C 3,2 km/h (1 Bft)
29.09.2024 22:56 19,9 °C 7,2 °C 57 % 89 % 1026,2 hPa 0,0 l/m² 1,7 km/h (1 Bft) O-NO 73 ° 0 min 0 W/m² 5,5 °C 7,2 °C 3,2 km/h (1 Bft)
29.09.2024 22:57 19,9 °C 7,2 °C 57 % 89 % 1026,1 hPa 0,0 l/m² 2,8 km/h (1 Bft) O-NO 73 ° 0 min 0 W/m² 5,5 °C 7,2 °C 4,8 km/h (1 Bft)
29.09.2024 22:58 19,9 °C 7,2 °C 57 % 89 % 1026,1 hPa 0,0 l/m² 3,6 km/h (1 Bft) O-NO 70 ° 0 min 0 W/m² 5,5 °C 7,2 °C 6,4 km/h (2 Bft)
29.09.2024 22:59 19,9 °C 7,2 °C 57 % 89 % 1026,1 hPa 0,0 l/m² 2,6 km/h (1 Bft) O-NO 70 ° 0 min 0 W/m² 5,5 °C 7,2 °C 3,2 km/h (1 Bft)
29.09.2024 23:00 19,9 °C 7,2 °C 57 % 89 % 1026,0 hPa 0,0 l/m² 1,8 km/h (1 Bft) O-NO 69 ° 0 min 0 W/m² 5,5 °C 7,2 °C 3,2 km/h (1 Bft)
29.09.2024 23:02 19,9 °C 7,3 °C 57 % 89 % 1026,0 hPa 0,0 l/m² 3,8 km/h (1 Bft) O-NO 62 ° 0 min 0 W/m² 5,6 °C 7,3 °C 6,4 km/h (2 Bft)
29.09.2024 23:03 19,9 °C 7,3 °C 57 % 89 % 1026,0 hPa 0,0 l/m² 2,9 km/h (1 Bft) O-NO 62 ° 0 min 0 W/m² 5,6 °C 7,3 °C 4,8 km/h (1 Bft)
29.09.2024 23:04 19,9 °C 7,4 °C 57 % 89 % 1026,0 hPa 0,0 l/m² 2,6 km/h (1 Bft) O-NO 62 ° 0 min 0 W/m² 5,7 °C 7,4 °C 3,2 km/h (1 Bft)
29.09.2024 23:05 19,9 °C 7,4 °C 57 % 89 % 1026,0 hPa 0,0 l/m² 2,1 km/h (1 Bft) O-NO 62 ° 0 min 0 W/m² 5,7 °C 7,4 °C 4,8 km/h (1 Bft)
29.09.2024 23:06 19,9 °C 7,5 °C 57 % 89 % 1026,0 hPa 0,0 l/m² 0,5 km/h (0 Bft) O-NO 62 ° 0 min 0 W/m² 5,8 °C 7,5 °C 1,6 km/h (1 Bft)
29.09.2024 23:07 19,9 °C 7,5 °C 57 % 89 % 1026,0 hPa 0,0 l/m² 1,9 km/h (1 Bft) O-NO 62 ° 0 min 0 W/m² 5,8 °C 7,5 °C 3,2 km/h (1 Bft)
29.09.2024 23:08 19,9 °C 7,6 °C 57 % 88 % 1025,9 hPa 0,0 l/m² 1,9 km/h (1 Bft) O-NO 62 ° 0 min 0 W/m² 5,7 °C 7,6 °C 3,2 km/h (1 Bft)
29.09.2024 23:09 19,9 °C 7,5 °C 57 % 88 % 1025,9 hPa 0,0 l/m² 2,0 km/h (1 Bft) O-NO 62 ° 0 min 0 W/m² 5,6 °C 7,5 °C 3,2 km/h (1 Bft)
29.09.2024 23:10 19,9 °C 7,4 °C 57 % 88 % 1026,0 hPa 0,0 l/m² 3,3 km/h (1 Bft) O-NO 62 ° 0 min 0 W/m² 5,5 °C 7,4 °C 4,8 km/h (1 Bft)
29.09.2024 23:12 19,9 °C 7,4 °C 57 % 88 % 1025,9 hPa 0,0 l/m² 3,3 km/h (1 Bft) O-NO 62 ° 0 min 0 W/m² 5,5 °C 7,4 °C 4,8 km/h (1 Bft)
29.09.2024 23:13 19,9 °C 7,4 °C 57 % 88 % 1025,9 hPa 0,0 l/m² 2,3 km/h (1 Bft) O-NO 62 ° 0 min 0 W/m² 5,5 °C 7,4 °C 4,8 km/h (1 Bft)
29.09.2024 23:14 19,9 °C 7,3 °C 57 % 88 % 1025,9 hPa 0,0 l/m² 2,3 km/h (1 Bft) O-NO 62 ° 0 min 0 W/m² 5,4 °C 7,3 °C 4,8 km/h (1 Bft)
29.09.2024 23:15 19,9 °C 7,3 °C 57 % 89 % 1025,9 hPa 0,0 l/m² 2,6 km/h (1 Bft) O-NO 62 ° 0 min 0 W/m² 5,6 °C 7,3 °C 3,2 km/h (1 Bft)
29.09.2024 23:16 19,9 °C 7,3 °C 57 % 89 % 1025,7 hPa 0,0 l/m² 3,2 km/h (1 Bft) O-NO 67 ° 0 min 0 W/m² 5,6 °C 7,3 °C 6,4 km/h (2 Bft)
29.09.2024 23:17 19,9 °C 7,4 °C 57 % 88 % 1025,8 hPa 0,0 l/m² 3,2 km/h (1 Bft) O-NO 67 ° 0 min 0 W/m² 5,5 °C 7,4 °C 4,8 km/h (1 Bft)
29.09.2024 23:18 19,9 °C 7,4 °C 57 % 88 % 1025,7 hPa 0,0 l/m² 3,2 km/h (1 Bft) O-NO 67 ° 0 min 0 W/m² 5,5 °C 7,4 °C 4,8 km/h (1 Bft)
29.09.2024 23:19 19,9 °C 7,4 °C 57 % 88 % 1025,7 hPa 0,0 l/m² 3,2 km/h (1 Bft) O-NO 67 ° 0 min 0 W/m² 5,5 °C 7,4 °C 4,8 km/h (1 Bft)
29.09.2024 23:20 19,9 °C 7,4 °C 57 % 88 % 1025,7 hPa 0,0 l/m² 3,2 km/h (1 Bft) O-NO 67 ° 0 min 0 W/m² 5,5 °C 7,4 °C 4,8 km/h (1 Bft)
29.09.2024 23:21 19,9 °C 7,4 °C 57 % 88 % 1025,8 hPa 0,0 l/m² 3,2 km/h (1 Bft) O-NO 67 ° 0 min 0 W/m² 5,5 °C 7,4 °C 6,4 km/h (2 Bft)
29.09.2024 23:27 19,8 °C 7,5 °C 57 % 88 % 1025,6 hPa 0,0 l/m² 1,6 km/h (1 Bft) O-NO 64 ° 0 min 0 W/m² 5,6 °C 7,5 °C 3,2 km/h (1 Bft)
29.09.2024 23:29 19,8 °C 7,6 °C 57 % 88 % 1025,5 hPa 0,0 l/m² 2,7 km/h (1 Bft) O-NO 65 ° 0 min 0 W/m² 5,7 °C 7,6 °C 4,8 km/h (1 Bft)
29.09.2024 23:30 19,8 °C 7,6 °C 57 % 88 % 1025,5 hPa 0,0 l/m² 3,4 km/h (1 Bft) O-NO 65 ° 0 min 0 W/m² 5,7 °C 7,6 °C 4,8 km/h (1 Bft)
29.09.2024 23:32 19,8 °C 7,6 °C 57 % 88 % 1025,5 hPa 0,0 l/m² 3,3 km/h (1 Bft) O-NO 65 ° 0 min 0 W/m² 5,7 °C 7,6 °C 4,8 km/h (1 Bft)
29.09.2024 23:34 19,9 °C 7,6 °C 57 % 88 % 1025,5 hPa 0,0 l/m² 3,7 km/h (1 Bft) O-NO 65 ° 0 min 0 W/m² 5,7 °C 7,6 °C 4,8 km/h (1 Bft)
29.09.2024 23:36 19,9 °C 7,6 °C 57 % 87 % 1025,5 hPa 0,0 l/m² 4,0 km/h (1 Bft) O-NO 65 ° 0 min 0 W/m² 5,6 °C 7,6 °C 4,8 km/h (1 Bft)
29.09.2024 23:38 19,8 °C 7,6 °C 57 % 88 % 1025,5 hPa 0,0 l/m² 3,1 km/h (1 Bft) O-NO 65 ° 0 min 0 W/m² 5,7 °C 7,6 °C 4,8 km/h (1 Bft)
29.09.2024 23:40 19,8 °C 7,6 °C 57 % 88 % 1025,5 hPa 0,0 l/m² 2,8 km/h (1 Bft) O-NO 65 ° 0 min 0 W/m² 5,7 °C 7,6 °C 3,2 km/h (1 Bft)
29.09.2024 23:41 19,9 °C 7,6 °C 57 % 87 % 1025,4 hPa 0,0 l/m² 3,0 km/h (1 Bft) O-NO 65 ° 0 min 0 W/m² 5,6 °C 7,6 °C 3,2 km/h (1 Bft)
29.09.2024 23:42 19,9 °C 7,6 °C 57 % 87 % 1025,4 hPa 0,0 l/m² 2,6 km/h (1 Bft) O-NO 65 ° 0 min 0 W/m² 5,6 °C 7,6 °C 3,2 km/h (1 Bft)
29.09.2024 23:45 19,9 °C 7,5 °C 57 % 88 % 1025,4 hPa 0,0 l/m² 2,6 km/h (1 Bft) O-NO 65 ° 0 min 0 W/m² 5,6 °C 7,5 °C 4,8 km/h (1 Bft)
29.09.2024 23:47 19,9 °C 7,5 °C 57 % 88 % 1025,3 hPa 0,0 l/m² 1,9 km/h (1 Bft) O-NO 65 ° 0 min 0 W/m² 5,6 °C 7,5 °C 4,8 km/h (1 Bft)
29.09.2024 23:49 19,9 °C 7,6 °C 57 % 88 % 1025,4 hPa 0,0 l/m² 1,7 km/h (1 Bft) O-NO 65 ° 0 min 0 W/m² 5,7 °C 7,6 °C 3,2 km/h (1 Bft)
29.09.2024 23:50 19,9 °C 7,6 °C 57 % 88 % 1025,4 hPa 0,0 l/m² 1,6 km/h (1 Bft) O-NO 65 ° 0 min 0 W/m² 5,7 °C 7,6 °C 3,2 km/h (1 Bft)
29.09.2024 23:51 19,9 °C 7,6 °C 57 % 88 % 1025,4 hPa 0,0 l/m² 1,9 km/h (1 Bft) O-NO 65 ° 0 min 0 W/m² 5,7 °C 7,6 °C 3,2 km/h (1 Bft)
29.09.2024 23:52 19,9 °C 7,6 °C 57 % 88 % 1025,4 hPa 0,0 l/m² 1,5 km/h (1 Bft) O-NO 65 ° 0 min 0 W/m² 5,7 °C 7,6 °C 3,2 km/h (1 Bft)
29.09.2024 23:55 19,9 °C 7,6 °C 57 % 88 % 1025,4 hPa 0,0 l/m² 0,7 km/h (0 Bft) O-NO 65 ° 0 min 0 W/m² 5,7 °C 7,6 °C 3,2 km/h (1 Bft)
29.09.2024 23:57 19,9 °C 7,6 °C 57 % 87 % 1025,3 hPa 0,0 l/m² 0,4 km/h (0 Bft) O-NO 65 ° 0 min 0 W/m² 5,6 °C 7,6 °C 1,6 km/h (1 Bft)
29.09.2024 23:59 19,9 °C 7,6 °C 57 % 87 % 1025,4 hPa 0,0 l/m² 0,0 km/h (0 Bft) O-NO 65 ° 0 min 0 W/m² 5,6 °C 7,6 °C 0,0 km/h (0 Bft)
_ Min-Zeit 23:40 06:11 23:59 13:59 00:08 - 23:59 - - - - 06:11 06:11 23:59
Minimum _ 19,8 °C 3,8 °C 57 % 54 % 1024,7 hPa - 0,0 km/h (0 Bft) - - - - 2,6 °C 3,8 °C 0,0 km/h (0 Bft)
_ Max-Zeit 00:16 13:57 09:16 08:28 11:19 23:59 12:15 - - 13:23 13:09 11:19 13:57 13:30
Maximum _ 20,7 °C 16,4 °C 58 % 93 % 1029,0 hPa 0,0 l/m² 12,5 km/h
SW (2 Bft)
- - 3 min 824 W/m² 8,9 °C 16,4 °C 16,1 km/h
N (3 Bft)
Durchschnitt _ 20,2 °C 9,5 °C 57 % 79 % 1027,3 hPa #0,0 l/m² 2,0 km/h (1 Bft) W-SW - #10:05 h 161 W/m² 5,7 °C 9,4 °C 3,7 km/h (1 Bft)
© 2009 Mathias Hoßbach